[[{"header":{"parameterUnit":"m.s-1","parameterCategory":1,"la1":31.0,"la2":29.5877,"lo1":-88.7671,"lo2":-86.6584,"dy":0.0162,"dx":0.0185,"nx":115,"ny":88,"refTime":"2026-04-04T12:00:00:Z","depth":0,"parameterNumber":2,"parameterNumberName":"U-component_of_WINDS"},"data":[0.0,0.0,0.0,0.0,0.0,0.0,0.0,0.0,0.0,0.0,0.0,0.0,0.0,0.0,0.0,0.0,0.0,0.0,0.0,0.0,0.0,0.0,0.0,0.0,0.0,0.0,0.0,0.0,0.0,0.0,0.0,0.0,0.0,0.0,0.0,0.0,0.0,0.0,0.0,0.0,0.0,0.0,0.0,0.0,0.0,0.0,0.0,0.0,0.0,0.0,0.0,0.0,0.0,0.0,0.0,0.0,0.0,0.0,0.0,0.0,0.0,0.0,0.0,0.0,0.0,0.0,0.0,0.0,0.0,0.0,0.0,0.0,0.0,0.0,0.0,0.0,0.0,0.0,0.0,0.0,0.0,0.0,0.0,0.0,0.0,0.0,0.0,0.0,0.0,0.0,0.0,0.0,0.0,0.0,0.0,0.0,0.0,0.0,0.0,0.0,0.0,0.0,0.0,0.0,0.0,0.0,0.0,0.0,0.0,0.0,0.0,0.0,0.0,0.0,0.0,0.0,0.0,0.0,0.0,0.0,0.0,0.0,0.0,0.0,0.0,0.0,0.0,0.0,0.0,0.0,0.0,0.0,0.0,0.0,0.0,0.0,0.0,0.0,0.0,0.0,0.0,0.0,0.0,0.0,0.0,0.0,0.0,0.0,0.0,0.0,0.0,0.0,0.0,0.0,0.0,0.0,0.0,0.0,0.0,0.0,0.0,0.0,0.0,0.0,0.0,0.0,0.0,0.0,0.0,0.0,0.0,0.0,0.0,0.0,0.0,0.0,0.0,0.0,0.0,0.0,0.0,0.0,0.0,0.0,0.0,0.0,0.0,0.0,0.0,0.0,0.0,0.0,0.0,0.0,0.0,0.0,0.0,0.0,0.0,0.0,0.0,0.0,0.0,0.0,0.0,0.0,0.0,0.0,0.0,0.0,0.0,0.0,0.0,0.0,0.0,0.0,0.0,0.0,0.0,0.0,0.0,0.0,0.0,0.0,0.0,0.0,0.0,0.0,0.0,0.0,0.0,0.0,0.0,0.0,0.0,0.0,0.0,0.0,0.0,0.0,0.0,0.0,0.0,0.0,0.0,0.0,0.0,0.0,0.0,0.0,0.0,0.0,0.0,0.0,0.0,0.0,0.0,0.0,0.0,0.0,0.0,0.0,0.0,0.0,0.0,0.0,0.0,0.0,0.0,0.0,0.0,0.0,0.0,0.0,0.0,0.0,0.0,0.0,0.0,0.0,0.0,0.0,0.0,0.0,0.0,0.0,0.0,0.0,0.0,0.0,0.0,0.0,0.0,0.0,0.0,0.0,0.0,0.0,0.0,0.0,0.0,0.0,0.0,0.0,0.0,0.0,0.0,0.0,0.0,0.0,0.0,0.0,0.0,0.0,0.0,0.0,0.0,0.0,0.0,0.0,0.0,0.0,0.0,0.0,0.0,0.0,0.0,0.0,0.0,0.0,0.0,0.0,0.0,0.0,0.0,0.0,0.0,0.0,0.0,0.0,0.0,0.0,0.0,0.0,0.0,0.0,0.0,0.0,0.0,0.0,0.0,0.0,0.0,0.0,0.0,0.0,0.0,0.0,0.0,0.0,0.0,0.0,0.0,0.0,0.0,0.0,0.0,0.0,0.0,0.0,0.0,0.0,0.0,0.0,0.0,0.0,0.0,0.0,0.0,0.0,0.0,0.0,0.0,0.0,0.0,0.0,0.0,0.0,0.0,0.0,0.0,0.0,0.0,0.0,0.0,0.0,0.0,0.0,0.0,0.0,0.0,0.0,0.0,0.0,0.0,0.0,0.0,0.0,0.0,0.0,0.0,0.0,0.0,0.0,0.0,0.0,0.0,0.0,0.0,0.0,0.0,0.0,0.0,0.0,0.0,0.0,0.0,0.0,0.0,0.0,0.0,0.0,0.0,0.0,0.0,0.0,0.0,0.0,0.0,0.0,0.0,0.0,0.0,0.0,0.0,0.0,0.0,0.0,0.0,0.0,0.0,0.0,0.0,0.0,0.0,0.0,0.0,0.0,0.0,0.0,0.0,0.0,0.0,0.0,0.0,0.0,0.0,0.0,0.0,0.0,0.0,0.0,0.0,0.0,0.0,0.0,0.0,0.0,0.0,0.0,0.0,0.0,0.0,0.0,0.0,0.0,0.0,0.0,0.0,0.0,0.0,0.0,0.0,0.0,0.0,0.0,0.0,0.0,0.0,0.0,0.0,0.0,0.0,0.0,0.0,0.0,0.0,0.0,0.0,0.0,0.0,0.0,0.0,0.0,0.0,0.0,0.0,0.0,0.0,0.0,0.0,0.0,0.0,0.0,0.0,0.0,0.0,0.0,0.0,0.0,0.0,0.0,0.0,0.0,0.0,0.0,0.0,0.0,0.0,0.0,0.0,0.0,0.0,0.0,0.0,0.0,0.0,0.0,0.0,0.0,0.0,0.0,0.0,0.0,0.0,0.0,0.0,0.0,0.0,0.0,0.0,0.0,0.0,0.0,0.0,0.0,0.0,0.0,0.0,0.0,0.0,0.0,0.0,0.0,0.0,0.0,0.0,0.0,0.0,0.0,0.0,0.0,0.0,0.0,0.0,0.0,0.0,0.0,0.0,0.0,0.0,0.0,0.0,0.0,0.0,0.0,0.0,0.0,0.0,0.0,0.0,0.0,0.0,0.0,0.0,0.0,0.0,0.0,0.0,0.0,0.0,0.0,0.0,0.0,0.0,0.0,0.0,0.0,0.0,0.0,0.0,0.0,0.0,0.0,0.0,0.0,0.0,0.0,0.0,0.0,0.0,0.0,0.0,0.0,0.0,0.0,0.0,0.0,0.0,0.0,0.0,0.0,0.0,0.0,0.0,0.0,0.0,0.0,0.0,0.0,0.0,0.0,0.0,0.0,0.0,0.0,0.0,0.0,0.0,0.0,0.0,0.0,0.0,0.0,0.0,0.0,0.0,0.0,0.0,0.0,0.0,0.0,0.0,0.0,0.0,0.0,0.0,0.0,0.0,0.0,0.0,0.0,0.0,0.0,0.0,0.0,0.0,0.0,0.0,0.0,0.0,0.0,0.0,0.0,0.0,0.0,0.0,0.0,0.0,0.0,0.0,0.0,0.0,0.0,0.0,0.0,0.0,0.0,0.0,0.0,0.0,0.0,0.0,0.0,0.0,0.0,0.0,0.0,0.0,0.0,0.0,0.0,0.0,0.0,0.0,0.0,0.0,0.0,0.0,0.0,0.0,0.0,0.0,0.0,0.0,0.0,0.0,0.0,0.0,0.0,0.0,0.0,0.0,0.0,0.0,0.0,0.0,0.0,0.0,0.0,0.0,0.0,0.0,0.0,0.0,0.0,0.0,0.0,0.0,0.0,0.0,0.0,0.0,0.0,0.0,0.0,0.0,0.0,0.0,0.0,0.0,0.0,0.0,0.0,0.0,0.0,0.0,0.0,0.0,0.0,0.0,0.0,0.0,0.0,0.0,0.0,0.0,0.0,0.0,0.0,0.0,0.0,0.0,0.0,0.0,0.0,0.0,0.0,0.0,0.0,0.0,0.0,0.0,0.0,0.0,0.0,0.0,0.0,0.0,0.0,0.0,0.0,0.0,0.0,0.0,0.0,0.0,0.0,0.0,0.0,0.0,0.0,0.0,0.0,0.0,0.0,0.0,0.0,0.0,0.0,0.0,0.0,0.0,0.0,0.0,0.0,0.0,0.0,0.0,0.0,0.0,0.0,0.0,0.0,0.0,0.0,0.0,0.0,0.0,0.0,0.0,0.0,0.0,0.0,0.0,0.0,0.0,0.0,0.0,0.0,0.0,0.0,0.0,0.0,0.0,0.0,0.0,0.0,0.0,0.0,0.0,0.0,0.0,0.0,0.0,0.0,0.0,0.0,0.0,0.0,0.0,0.0,0.0,0.0,0.0,0.0,0.0,0.0,0.0,0.0,0.0,0.0,0.0,0.0,0.0,0.0,0.0,0.0,0.0,0.0,0.0,0.0,0.0,0.0,0.0,0.0,0.0,0.0,0.0,0.0,0.0,0.0,0.0,0.0,0.0,0.0,0.0,0.0,0.0,0.0,0.0,0.0,0.0,0.0,0.0,0.0,0.0,0.0,0.0,0.0,0.0,0.0,0.0,0.0,0.0,0.0,0.0,0.0,0.0,0.0,0.0,0.0,0.0,0.0,0.0,0.0,0.0,0.0,0.0,0.0,0.0,0.0,0.0,0.0,0.0,0.0,0.0,0.0,0.0,0.0,0.0,0.0,0.0,0.0,0.0,0.0,2.7826,0.0,0.0,0.0,0.0,0.0,0.0,0.0,0.0,0.0,0.0,0.0,0.0,0.0,0.0,0.0,0.0,0.0,0.0,0.0,0.0,0.0,0.0,0.0,0.0,0.0,0.0,0.0,0.0,0.0,0.0,0.0,0.0,0.0,0.0,0.0,0.0,0.0,0.0,0.0,0.0,0.0,0.0,0.0,0.0,0.0,0.0,0.0,0.0,0.0,0.0,0.0,0.0,0.0,0.0,0.0,0.0,0.0,0.0,0.0,0.0,0.0,0.0,0.0,0.0,0.0,0.0,0.0,0.0,0.0,0.0,0.0,0.0,0.0,0.0,0.0,0.0,0.0,0.0,0.0,0.0,0.0,0.0,0.0,0.0,0.0,0.0,0.0,0.0,0.0,0.0,0.0,0.0,0.0,0.0,0.0,0.0,0.0,0.0,0.0,0.0,0.0,0.0,0.0,0.0,0.0,0.0,0.0,0.0,0.0,0.0,2.9207,2.965,2.9204,2.9026,2.9108,0.0,0.0,0.0,0.0,0.0,0.0,0.0,0.0,0.0,0.0,0.0,0.0,0.0,0.0,0.0,0.0,0.0,0.0,0.0,0.0,0.0,0.0,0.0,0.0,0.0,0.0,0.0,0.0,0.0,0.0,0.0,0.0,0.0,0.0,0.0,0.0,0.0,0.0,0.0,0.0,0.0,0.0,0.0,0.0,0.0,0.0,0.0,0.0,0.0,0.0,0.0,0.0,0.0,0.0,0.0,0.0,0.0,0.0,0.0,0.0,0.0,0.0,0.0,0.0,0.0,0.0,0.0,0.0,0.0,0.0,0.0,0.0,0.0,0.0,0.0,0.0,0.0,0.0,0.0,0.0,0.0,0.0,0.0,0.0,0.0,0.0,0.0,0.0,0.0,0.0,0.0,0.0,0.0,0.0,0.0,0.0,0.0,0.0,0.0,0.0,0.0,0.0,0.0,0.0,0.0,0.0,0.0,0.0,0.0,0.0,0.0,0.0,2.9873,2.976,3.013,0.0,0.0,0.0,0.0,0.0,0.0,0.0,0.0,0.0,0.0,0.0,0.0,0.0,0.0,0.0,0.0,0.0,0.0,0.0,0.0,0.0,0.0,0.0,0.0,0.0,0.0,0.0,0.0,0.0,0.0,0.0,0.0,0.0,0.0,0.0,0.0,0.0,0.0,0.0,0.0,0.0,0.0,0.0,0.0,0.0,0.0,0.0,0.0,0.0,0.0,0.0,0.0,0.0,0.0,0.0,0.0,0.0,0.0,0.0,0.0,0.0,0.0,0.0,0.0,0.0,0.0,0.0,0.0,0.0,0.0,0.0,0.0,0.0,0.0,0.0,0.0,0.0,0.0,0.0,0.0,0.0,0.0,0.0,0.0,0.0,0.0,0.0,0.0,0.0,0.0,0.0,0.0,0.0,0.0,0.0,0.0,0.0,0.0,0.0,0.0,0.0,0.0,0.0,0.0,0.0,0.0,0.0,0.0,0.0,0.0,3.047,3.1244,3.121,0.0,3.0204,0.0,0.0,0.0,0.0,0.0,0.0,0.0,0.0,0.0,0.0,0.0,0.0,0.0,0.0,0.0,0.0,0.0,0.0,0.0,0.0,0.0,0.0,0.0,0.0,0.0,0.0,0.0,0.0,0.0,0.0,0.0,0.0,0.0,0.0,0.0,0.0,0.0,0.0,0.0,0.0,0.0,0.0,0.0,0.0,0.0,0.0,0.0,0.0,0.0,0.0,0.0,0.0,0.0,0.0,0.0,0.0,0.0,0.0,0.0,0.0,0.0,0.0,0.0,0.0,0.0,0.0,0.0,0.0,0.0,0.0,0.0,0.0,0.0,0.0,0.0,0.0,0.0,0.0,0.0,0.0,0.0,0.0,0.0,0.0,0.0,0.0,0.0,0.0,0.0,0.0,0.0,0.0,0.0,0.0,0.0,0.0,0.0,0.0,0.0,0.0,0.0,0.0,0.0,0.0,0.0,0.0,0.0,0.0,0.0,0.0,0.0,3.2078,3.2115,3.1494,0.0,0.0,0.0,0.0,0.0,0.0,0.0,0.0,0.0,0.0,0.0,0.0,0.0,0.0,0.0,0.0,0.0,0.0,0.0,0.0,0.0,0.0,0.0,0.0,0.0,0.0,0.0,0.0,0.0,0.0,0.0,0.0,0.0,0.0,0.0,0.0,0.0,0.0,0.0,0.0,0.0,0.0,0.0,0.0,0.0,0.0,0.0,0.0,0.0,0.0,0.0,0.0,0.0,0.0,0.0,0.0,0.0,0.0,0.0,0.0,0.0,0.0,0.0,0.0,0.0,0.0,0.0,0.0,0.0,0.0,0.0,0.0,0.0,0.0,0.0,0.0,0.0,0.0,0.0,0.0,0.0,0.0,0.0,0.0,0.0,0.0,0.0,0.0,0.0,0.0,0.0,0.0,0.0,0.0,0.0,0.0,0.0,0.0,0.0,0.0,0.0,0.0,0.0,0.0,0.0,0.0,0.0,0.0,0.0,0.0,3.0757,0.0,3.2806,3.2696,3.1962,3.0577,0.0,0.0,0.0,0.0,0.0,0.0,0.0,0.0,0.0,0.0,0.0,0.0,0.0,0.0,0.0,0.0,0.0,0.0,0.0,0.0,0.0,0.0,0.0,0.0,0.0,0.0,0.0,0.0,0.0,0.0,0.0,0.0,0.0,0.0,0.0,0.0,0.0,0.0,0.0,0.0,0.0,0.0,0.0,0.0,0.0,0.0,0.0,0.0,0.0,0.0,0.0,0.0,0.0,0.0,0.0,0.0,0.0,0.0,0.0,0.0,0.0,0.0,0.0,0.0,0.0,0.0,0.0,0.0,0.0,0.0,0.0,0.0,0.0,0.0,0.0,0.0,0.0,0.0,0.0,0.0,0.0,0.0,0.0,0.0,0.0,0.0,0.0,0.0,0.0,0.0,0.0,0.0,0.0,0.0,0.0,0.0,0.0,0.0,0.0,0.0,0.0,0.0,0.0,0.0,0.0,0.0,0.0,0.0,0.0,3.2078,3.2886,3.3693,3.2993,3.2182,0.0,0.0,0.0,0.0,0.0,0.0,0.0,0.0,0.0,0.0,0.0,0.0,0.0,0.0,0.0,0.0,0.0,0.0,0.0,0.0,0.0,0.0,0.0,0.0,0.0,0.0,0.0,0.0,0.0,0.0,0.0,0.0,0.0,0.0,0.0,0.0,0.0,0.0,0.0,0.0,0.0,0.0,0.0,0.0,0.0,0.0,0.0,0.0,0.0,0.0,0.0,0.0,0.0,0.0,0.0,0.0,0.0,0.0,0.0,0.0,0.0,0.0,0.0,0.0,0.0,0.0,0.0,0.0,0.0,0.0,0.0,0.0,0.0,0.0,0.0,0.0,0.0,0.0,0.0,0.0,0.0,0.0,0.0,0.0,0.0,0.0,0.0,0.0,0.0,0.0,0.0,0.0,0.0,0.0,0.0,0.0,0.0,0.0,0.0,0.0,0.0,0.0,0.0,0.0,0.0,0.0,0.0,0.0,0.0,3.139,3.2709,3.3763,3.4494,3.328,3.2225,0.0,0.0,0.0,0.0,0.0,0.0,0.0,0.0,0.0,0.0,0.0,0.0,0.0,0.0,0.0,0.0,0.0,0.0,0.0,0.0,0.0,0.0,0.0,0.0,0.0,0.0,0.0,0.0,0.0,0.0,0.0,0.0,0.0,0.0,0.0,0.0,0.0,0.0,0.0,0.0,0.0,0.0,0.0,0.0,0.0,0.0,0.0,0.0,0.0,0.0,0.0,0.0,0.0,0.0,0.0,0.0,0.0,0.0,0.0,0.0,0.0,0.0,0.0,0.0,0.0,0.0,0.0,0.0,0.0,0.0,0.0,0.0,0.0,0.0,0.0,0.0,0.0,0.0,0.0,0.0,0.0,0.0,0.0,0.0,0.0,0.0,0.0,0.0,0.0,0.0,0.0,0.0,0.0,0.0,0.0,0.0,0.0,0.0,0.0,0.0,0.0,0.0,0.0,0.0,0.0,0.0,0.0,0.0,0.0,3.2556,0.0,3.4718,0.0,3.3423,3.2225,0.0,0.0,0.0,0.0,0.0,0.0,0.0,0.0,0.0,0.0,0.0,0.0,0.0,0.0,0.0,0.0,0.0,0.0,0.0,0.0,0.0,0.0,0.0,0.0,0.0,0.0,0.0,0.0,0.0,0.0,0.0,0.0,0.0,0.0,0.0,0.0,0.0,0.0,0.0,0.0,0.0,0.0,0.0,0.0,0.0,0.0,0.0,0.0,0.0,0.0,0.0,0.0,0.0,0.0,0.0,0.0,0.0,0.0,0.0,0.0,0.0,0.0,0.0,0.0,0.0,0.0,0.0,0.0,0.0,0.0,0.0,0.0,0.0,0.0,0.0,0.0,0.0,0.0,0.0,0.0,0.0,0.0,0.0,0.0,0.0,0.0,0.0,0.0,0.0,0.0,0.0,0.0,0.0,0.0,0.0,0.0,0.0,0.0,0.0,0.0,0.0,0.0,0.0,0.0,0.0,0.0,0.0,0.0,3.2669,3.4927,3.5855,3.5969,3.5071,3.3573,3.2259,0.0,0.0,0.0,0.0,0.0,0.0,0.0,0.0,0.0,0.0,0.0,0.0,0.0,0.0,0.0,0.0,0.0,0.0,0.0,0.0,0.0,0.0,0.0,0.0,0.0,0.0,0.0,0.0,0.0,0.0,0.0,0.0,0.0,0.0,0.0,0.0,0.0,0.0,0.0,0.0,0.0,0.0,0.0,0.0,0.0,0.0,0.0,0.0,0.0,0.0,0.0,0.0,0.0,0.0,0.0,0.0,0.0,0.0,0.0,0.0,0.0,0.0,0.0,0.0,0.0,0.0,0.0,0.0,0.0,0.0,0.0,0.0,0.0,0.0,0.0,0.0,0.0,0.0,0.0,0.0,0.0,0.0,0.0,0.0,0.0,0.0,0.0,0.0,0.0,0.0,0.0,0.0,0.0,0.0,0.0,0.0,0.0,0.0,0.0,0.0,0.0,0.0,0.0,0.0,0.0,0.0,0.0,0.0,0.0,3.7503,3.7804,3.8102,3.8281,3.5705,3.3613,0.0,0.0,0.0,0.0,0.0,0.0,0.0,0.0,0.0,0.0,0.0,0.0,0.0,0.0,0.0,0.0,0.0,0.0,0.0,0.0,0.0,0.0,0.0,0.0,0.0,0.0,0.0,0.0,0.0,0.0,0.0,0.0,0.0,0.0,0.0,0.0,0.0,0.0,0.0,0.0,0.0,0.0,0.0,0.0,0.0,0.0,0.0,0.0,0.0,0.0,0.0,0.0,0.0,0.0,0.0,0.0,0.0,0.0,0.0,0.0,0.0,0.0,0.0,0.0,0.0,0.0,0.0,0.0,0.0,0.0,0.0,0.0,0.0,0.0,0.0,0.0,0.0,0.0,0.0,0.0,0.0,0.0,0.0,0.0,0.0,0.0,0.0,0.0,0.0,0.0,0.0,0.0,0.0,0.0,0.0,0.0,0.0,0.0,0.0,0.0,0.0,0.0,0.0,0.0,0.0,0.0,0.0,0.0,0.0,4.1727,4.125,4.1038,4.1234,3.8395,3.5778,3.3537,0.0,0.0,0.0,0.0,0.0,0.0,0.0,0.0,0.0,0.0,0.0,0.0,0.0,0.0,0.0,0.0,0.0,0.0,0.0,0.0,0.0,0.0,0.0,0.0,0.0,0.0,0.0,0.0,0.0,0.0,0.0,0.0,0.0,0.0,0.0,0.0,0.0,0.0,0.0,0.0,0.0,0.0,0.0,0.0,0.0,0.0,0.0,0.0,0.0,0.0,0.0,0.0,0.0,0.0,0.0,0.0,0.0,0.0,0.0,0.0,0.0,0.0,0.0,0.0,0.0,0.0,0.0,0.0,0.0,0.0,0.0,0.0,0.0,0.0,0.0,0.0,0.0,0.0,0.0,0.0,0.0,0.0,0.0,0.0,0.0,0.0,0.0,0.0,0.0,0.0,0.0,0.0,0.0,0.0,0.0,0.0,0.0,0.0,0.0,0.0,0.0,0.0,0.0,0.0,0.0,0.0,0.0,0.0,4.7209,4.5961,4.487,4.3942,4.1479,3.8612,0.0,0.0,0.0,0.0,0.0,0.0,0.0,0.0,0.0,0.0,0.0,0.0,0.0,0.0,0.0,0.0,0.0,0.0,0.0,0.0,0.0,0.0,0.0,0.0,0.0,0.0,0.0,0.0,0.0,0.0,0.0,0.0,0.0,0.0,0.0,0.0,0.0,0.0,0.0,0.0,0.0,0.0,0.0,0.0,0.0,0.0,0.0,0.0,0.0,0.0,0.0,0.0,0.0,0.0,0.0,0.0,0.0,0.0,0.0,0.0,0.0,0.0,0.0,0.0,0.0,0.0,0.0,0.0,0.0,0.0,0.0,0.0,0.0,0.0,0.0,0.0,0.0,0.0,0.0,0.0,0.0,0.0,0.0,0.0,0.0,0.0,0.0,0.0,0.0,0.0,0.0,0.0,0.0,0.0,0.0,0.0,0.0,0.0,0.0,0.0,0.0,0.0,0.0,0.0,0.0,0.0,0.0,0.0,0.0,4.9371,5.1442,5.1297,4.892,4.5297,4.1599,0.0,0.0,0.0,0.0,0.0,0.0,0.0,0.0,0.0,0.0,0.0,0.0,0.0,0.0,0.0,0.0,0.0,0.0,0.0,0.0,0.0,0.0,0.0,0.0,0.0,0.0,0.0,0.0,0.0,0.0,0.0,0.0,0.0,0.0,0.0,0.0,0.0,0.0,0.0,0.0,0.0,0.0,0.0,0.0,0.0,0.0,0.0,0.0,0.0,0.0,0.0,0.0,0.0,0.0,0.0,0.0,0.0,0.0,0.0,0.0,0.0,0.0,0.0,0.0,0.0,0.0,0.0,0.0,0.0,0.0,0.0,0.0,0.0,0.0,0.0,0.0,0.0,0.0,0.0,0.0,0.0,0.0,0.0,0.0,0.0,0.0,0.0,0.0,0.0,0.0,0.0,0.0,0.0,0.0,0.0,0.0,0.0,0.0,0.0,0.0,0.0,0.0,0.0,0.0,0.0,0.0,0.0,0.0,4.7089,5.2438,5.5045,5.5656,5.4316,4.9539,4.4905,0.0,0.0,0.0,0.0,0.0,0.0,0.0,0.0,0.0,0.0,0.0,0.0,0.0,0.0,0.0,0.0,0.0,0.0,0.0,0.0,0.0,0.0,0.0,0.0,0.0,0.0,0.0,0.0,0.0,0.0,0.0,0.0,0.0,0.0,0.0,0.0,0.0,0.0,0.0,0.0,0.0,0.0,0.0,0.0,0.0,0.0,0.0,0.0,0.0,0.0,0.0,0.0,0.0,0.0,0.0,0.0,0.0,0.0,0.0,0.0,0.0,0.0,0.0,0.0,0.0,0.0,0.0,0.0,0.0,0.0,0.0,0.0,0.0,0.0,0.0,0.0,0.0,0.0,0.0,0.0,0.0,0.0,0.0,0.0,0.0,0.0,0.0,0.0,0.0,0.0,0.0,0.0,0.0,0.0,0.0,0.0,0.0,0.0,0.0,0.0,0.0,0.0,0.0,0.0,0.0,0.0,0.0,0.0,4.9348,5.5385,5.7249,5.8475,5.8977,5.3466,4.8067,0.0,0.0,0.0,0.0,0.0,0.0,0.0,0.0,0.0,0.0,0.0,0.0,0.0,0.0,0.0,0.0,0.0,0.0,0.0,0.0,0.0,0.0,0.0,0.0,0.0,0.0,0.0,0.0,0.0,0.0,0.0,0.0,0.0,0.0,0.0,0.0,0.0,0.0,0.0,0.0,0.0,0.0,0.0,0.0,0.0,0.0,0.0,0.0,0.0,0.0,0.0,0.0,0.0,0.0,0.0,0.0,0.0,0.0,0.0,0.0,0.0,0.0,0.0,0.0,0.0,0.0,0.0,0.0,0.0,0.0,0.0,0.0,0.0,0.0,0.0,0.0,0.0,0.0,0.0,0.0,0.0,0.0,0.0,0.0,0.0,0.0,0.0,0.0,0.0,0.0,0.0,0.0,0.0,0.0,0.0,0.0,0.0,0.0,0.0,0.0,0.0,0.0,0.0,0.0,0.0,0.0,0.0,0.0,5.0148,5.5595,5.8484,5.9896,5.9776,5.4387,4.9223,0.0,0.0,0.0,0.0,0.0,0.0,0.0,0.0,0.0,0.0,0.0,0.0,0.0,0.0,0.0,0.0,0.0,0.0,0.0,0.0,0.0,0.0,0.0,0.0,0.0,0.0,0.0,0.0,0.0,0.0,0.0,0.0,0.0,0.0,0.0,0.0,0.0,0.0,0.0,0.0,0.0,0.0,0.0,0.0,0.0,0.0,0.0,0.0,2.8369,0.0,0.0,0.0,0.0,0.0,0.0,0.0,0.0,0.0,0.0,0.0,0.0,0.0,0.0,0.0,0.0,0.0,0.0,0.0,0.0,0.0,0.0,0.0,0.0,0.0,0.0,0.0,0.0,0.0,0.0,0.0,0.0,0.0,0.0,0.0,0.0,0.0,0.0,0.0,0.0,0.0,0.0,0.0,0.0,0.0,0.0,0.0,0.0,0.0,0.0,0.0,0.0,0.0,0.0,0.0,0.0,0.0,0.0,0.0,5.1589,5.6725,5.912,6.0221,5.9881,5.5494,5.0766,0.0,0.0,0.0,0.0,0.0,0.0,0.0,0.0,0.0,0.0,0.0,0.0,0.0,0.0,0.0,0.0,0.0,0.0,0.0,0.0,0.0,0.0,0.0,0.0,0.0,0.0,0.0,0.0,0.0,0.0,0.0,0.0,0.0,0.0,0.0,0.0,0.0,0.0,0.0,0.0,0.0,0.0,0.0,0.0,0.0,0.0,0.0,0.0,0.0,0.0,0.0,0.0,0.0,0.0,0.0,0.0,0.0,0.0,0.0,0.0,0.0,0.0,0.0,0.0,0.0,0.0,0.0,0.0,0.0,0.0,0.0,0.0,0.0,0.0,0.0,0.0,0.0,0.0,0.0,0.0,0.0,0.0,0.0,0.0,0.0,0.0,0.0,0.0,0.0,0.0,0.0,0.0,0.0,0.0,0.0,0.0,0.0,0.0,0.0,0.0,0.0,0.0,0.0,0.0,0.0,0.0,0.0,4.8144,5.3098,5.7792,5.9538,6.0303,6.0114,5.6612,5.229,4.7221,0.0,0.0,0.0,0.0,0.0,0.0,0.0,0.0,0.0,0.0,0.0,0.0,0.0,0.0,0.0,0.0,0.0,0.0,0.0,0.0,0.0,0.0,0.0,0.0,0.0,0.0,0.0,0.0,0.0,0.0,0.0,0.0,0.0,0.0,0.0,0.0,0.0,0.0,2.9359,3.2519,0.0,0.0,0.0,0.0,0.0,0.0,0.0,0.0,3.3283,0.0,0.0,0.0,0.0,0.0,0.0,0.0,0.0,0.0,0.0,0.0,0.0,0.0,0.0,0.0,0.0,0.0,0.0,0.0,0.0,0.0,0.0,0.0,0.0,0.0,0.0,0.0,0.0,0.0,0.0,0.0,0.0,0.0,0.0,0.0,0.0,0.0,0.0,0.0,0.0,0.0,0.0,0.0,0.0,0.0,0.0,0.0,0.0,0.0,0.0,0.0,0.0,0.0,0.0,0.0,0.0,4.3489,4.9125,5.3781,5.7355,6.0127,6.1155,6.0402,5.7491,5.3116,4.718,0.0,0.0,0.0,0.0,0.0,0.0,0.0,0.0,0.0,0.0,0.0,0.0,0.0,0.0,0.0,0.0,0.0,0.0,0.0,0.0,0.0,0.0,0.0,0.0,0.0,0.0,0.0,0.0,0.0,0.0,0.0,0.0,0.0,0.0,0.0,0.0,0.0,0.0,0.0,3.5862,3.7364,0.0,0.0,0.0,0.0,0.0,0.0,0.0,0.0,3.5873,0.0,0.0,0.0,0.0,0.0,0.0,0.0,0.0,0.0,0.0,0.0,0.0,0.0,0.0,0.0,0.0,0.0,0.0,0.0,0.0,0.0,0.0,0.0,0.0,0.0,0.0,0.0,0.0,0.0,0.0,0.0,0.0,0.0,0.0,0.0,0.0,0.0,0.0,0.0,0.0,0.0,0.0,0.0,0.0,0.0,0.0,0.0,0.0,0.0,0.0,0.0,0.0,0.0,0.0,0.0,4.4679,5.031,5.4887,5.8228,6.0443,6.097,5.9722,5.6877,5.2538,0.0,0.0,0.0,0.0,0.0,0.0,0.0,0.0,0.0,0.0,0.0,0.0,0.0,0.0,0.0,0.0,0.0,0.0,0.0,0.0,0.0,0.0,0.0,0.0,0.0,0.0,0.0,0.0,0.0,0.0,0.0,0.0,0.0,0.0,0.0,0.0,0.0,0.0,0.0,0.0,3.7621,3.9668,3.8901,0.0,0.0,0.0,0.0,0.0,0.0,3.9089,3.855,0.0,0.0,0.0,0.0,0.0,0.0,0.0,0.0,0.0,0.0,0.0,0.0,0.0,0.0,0.0,0.0,0.0,0.0,0.0,0.0,0.0,0.0,0.0,0.0,0.0,0.0,0.0,0.0,0.0,0.0,0.0,0.0,0.0,0.0,0.0,0.0,0.0,0.0,0.0,0.0,0.0,0.0,0.0,0.0,0.0,0.0,0.0,0.0,0.0,0.0,0.0,0.0,0.0,0.0,0.0,4.5784,5.1416,5.5885,5.9118,6.0732,6.0714,5.9013,5.6131,5.1733,0.0,0.0,0.0,0.0,0.0,0.0,0.0,0.0,0.0,0.0,0.0,0.0,0.0,0.0,0.0,0.0,0.0,0.0,0.0,0.0,0.0,0.0,0.0,0.0,0.0,0.0,0.0,0.0,0.0,0.0,0.0,0.0,0.0,0.0,0.0,0.0,0.0,0.0,0.0,0.0,0.0,4.165,4.1796,4.1548,0.0,0.0,0.0,0.0,4.198,4.2053,0.0,0.0,0.0,0.0,0.0,0.0,0.0,0.0,0.0,0.0,0.0,0.0,0.0,0.0,0.0,0.0,0.0,0.0,0.0,0.0,0.0,0.0,0.0,0.0,0.0,0.0,0.0,0.0,0.0,0.0,0.0,0.0,0.0,0.0,0.0,0.0,0.0,0.0,0.0,0.0,0.0,0.0,0.0,0.0,0.0,0.0,0.0,0.0,0.0,0.0,0.0,0.0,0.0,0.0,0.0,0.0,4.6192,5.1959,5.6242,5.8967,6.1148,6.1231,5.9047,5.6122,5.1496,0.0,0.0,0.0,0.0,0.0,0.0,0.0,0.0,0.0,0.0,0.0,0.0,0.0,0.0,0.0,0.0,0.0,0.0,0.0,0.0,0.0,0.0,0.0,0.0,0.0,0.0,0.0,0.0,0.0,0.0,0.0,0.0,0.0,0.0,0.0,0.0,0.0,0.0,0.0,0.0,0.0,4.3502,4.4182,4.5429,4.5801,0.0,0.0,4.5223,4.5337,4.5365,0.0,0.0,0.0,0.0,0.0,0.0,0.0,0.0,0.0,0.0,0.0,0.0,0.0,0.0,0.0,0.0,0.0,0.0,0.0,0.0,0.0,0.0,0.0,0.0,0.0,0.0,0.0,0.0,0.0,0.0,0.0,0.0,0.0,0.0,0.0,0.0,0.0,0.0,0.0,0.0,0.0,0.0,0.0,0.0,0.0,0.0,0.0,0.0,0.0,0.0,0.0,0.0,0.0,0.0,0.0,4.1297,4.73,5.2725,5.6826,5.9539,6.1434,6.1308,5.9047,5.575,5.1225,0.0,0.0,0.0,0.0,0.0,0.0,0.0,0.0,0.0,0.0,0.0,0.0,0.0,0.0,0.0,0.0,0.0,0.0,0.0,0.0,0.0,0.0,0.0,0.0,0.0,0.0,0.0,0.0,0.0,0.0,0.0,0.0,0.0,0.0,0.0,0.0,0.0,0.0,0.0,0.0,0.0,0.0,4.7168,4.8448,0.0,0.0,0.0,4.8825,4.9297,0.0,0.0,0.0,0.0,0.0,0.0,0.0,0.0,0.0,0.0,0.0,0.0,0.0,0.0,0.0,0.0,0.0,0.0,0.0,0.0,0.0,0.0,0.0,0.0,0.0,0.0,0.0,0.0,0.0,0.0,0.0,0.0,0.0,0.0,0.0,0.0,0.0,0.0,0.0,0.0,0.0,0.0,0.0,0.0,0.0,0.0,0.0,0.0,0.0,0.0,0.0,0.0,0.0,0.0,0.0,0.0,0.0,4.8121,5.3404,5.7398,6.0013,6.1612,6.1298,5.9013,5.5606,0.0,0.0,0.0,0.0,0.0,0.0,0.0,0.0,0.0,0.0,0.0,0.0,0.0,0.0,0.0,0.0,0.0,0.0,0.0,0.0,0.0,0.0,0.0,0.0,0.0,0.0,0.0,2.4006,0.0,0.0,0.0,0.0,0.0,0.0,0.0,0.0,0.0,0.0,0.0,0.0,0.0,0.0,4.625,4.9711,5.1064,5.2055,0.0,0.0,5.2202,5.2795,5.2239,5.054,0.0,0.0,0.0,0.0,0.0,0.0,0.0,0.0,0.0,0.0,0.0,0.0,0.0,0.0,0.0,0.0,0.0,0.0,0.0,0.0,0.0,0.0,0.0,0.0,0.0,0.0,0.0,0.0,0.0,0.0,0.0,0.0,0.0,0.0,0.0,0.0,0.0,0.0,0.0,0.0,0.0,0.0,0.0,0.0,0.0,0.0,0.0,0.0,0.0,0.0,0.0,0.0,0.0,0.0,0.0,4.8044,5.3805,5.7823,6.0047,6.1612,6.1298,5.9047,5.608,5.1758,0.0,0.0,0.0,0.0,0.0,0.0,0.0,0.0,0.0,0.0,0.0,0.0,0.0,0.0,0.0,0.0,0.0,0.0,0.0,0.0,0.0,0.0,0.0,0.0,0.0,0.0,0.0,0.0,0.0,0.0,0.0,0.0,0.0,0.0,0.0,0.0,0.0,0.0,0.0,0.0,0.0,4.7283,5.1289,5.3157,5.4724,0.0,0.0,5.5291,5.5328,5.4662,5.2784,4.8773,0.0,0.0,0.0,0.0,0.0,0.0,0.0,0.0,0.0,0.0,0.0,0.0,0.0,0.0,0.0,0.0,0.0,0.0,0.0,0.0,0.0,0.0,0.0,0.0,0.0,0.0,0.0,0.0,0.0,0.0,0.0,0.0,0.0,0.0,0.0,0.0,0.0,0.0,0.0,0.0,0.0,0.0,0.0,0.0,0.0,0.0,0.0,0.0,0.0,0.0,0.0,0.0,0.0,4.2941,4.9265,5.4254,5.8109,6.0747,6.1849,6.1545,5.9708,5.6824,5.29,0.0,0.0,0.0,0.0,0.0,0.0,0.0,0.0,0.0,0.0,0.0,0.0,0.0,0.0,0.0,0.0,0.0,0.0,0.0,0.0,0.0,0.0,0.0,0.0,0.0,0.0,0.0,0.0,2.9696,3.017,2.9365,0.0,0.0,0.0,0.0,0.0,0.0,0.0,0.0,0.0,0.0,4.9637,5.3634,5.6014,0.0,0.0,5.7923,5.7268,5.7771,5.6314,5.4111,5.1064,4.7209,0.0,0.0,0.0,0.0,0.0,0.0,0.0,0.0,0.0,0.0,0.0,0.0,0.0,0.0,0.0,0.0,0.0,0.0,0.0,0.0,0.0,0.0,0.0,0.0,0.0,0.0,0.0,0.0,0.0,0.0,0.0,0.0,0.0,0.0,0.0,0.0,0.0,0.0,0.0,0.0,0.0,0.0,0.0,0.0,0.0,0.0,0.0,0.0,0.0,0.0,0.0,0.0,4.3667,5.0041,5.4744,5.849,6.1264,6.2018,6.1782,6.0443,5.7568,5.4109,0.0,0.0,0.0,0.0,0.0,0.0,0.0,0.0,0.0,0.0,0.0,0.0,0.0,0.0,0.0,0.0,0.0,0.0,0.0,0.0,0.0,0.0,0.0,0.0,0.0,0.0,0.0,0.0,3.0861,3.11,3.0283,0.0,0.0,0.0,0.0,0.0,0.0,0.0,0.0,0.0,0.0,5.1328,5.5291,5.7478,5.9089,6.0115,5.9126,5.8357,5.8681,5.708,5.4935,5.236,0.0,0.0,0.0,0.0,0.0,0.0,0.0,0.0,0.0,0.0,0.0,0.0,0.0,0.0,0.0,0.0,0.0,0.0,0.0,0.0,0.0,0.0,0.0,0.0,0.0,0.0,0.0,0.0,0.0,0.0,0.0,0.0,0.0,0.0,0.0,0.0,0.0,0.0,0.0,0.0,0.0,0.0,0.0,0.0,0.0,0.0,0.0,0.0,0.0,0.0,0.0,0.0,0.0,4.4147,5.0049,5.5218,5.9007,6.1264,6.2009,6.2052,6.1221,5.8355,5.5336,5.2198,0.0,0.0,0.0,0.0,0.0,0.0,0.0,0.0,0.0,0.0,0.0,0.0,0.0,0.0,0.0,0.0,0.0,0.0,0.0,0.0,0.0,0.0,0.0,0.0,0.0,0.0,3.2138,3.182,3.1094,0.0,0.0,0.0,0.0,0.0,0.0,0.0,0.0,0.0,0.0,4.8011,5.2002,5.5838,5.7109,5.8288,5.9796,5.9303,5.8531,5.7814,5.6944,5.5343,0.0,0.0,0.0,0.0,0.0,0.0,0.0,0.0,0.0,0.0,0.0,0.0,0.0,0.0,0.0,0.0,0.0,0.0,0.0,0.0,0.0,0.0,0.0,0.0,0.0,0.0,0.0,3.6531,3.6446,0.0,0.0,0.0,0.0,0.0,0.0,0.0,0.0,0.0,0.0,0.0,4.4285,4.4974,0.0,0.0,0.0,0.0,0.0,0.0,0.0,0.0,0.0,0.0,0.0,0.0,4.5594,5.142,5.5716,5.9253,6.1907,6.2255,6.2052,6.1298,5.9327,5.5708,5.027,0.0,0.0,0.0,0.0,0.0,0.0,0.0,0.0,0.0,0.0,0.0,0.0,0.0,0.0,0.0,0.0,0.0,0.0,0.0,0.0,0.0,0.0,0.0,0.0,0.0,3.1596,0.0,0.0,0.0,0.0,0.0,0.0,0.0,0.0,0.0,0.0,0.0,4.164,4.6093,5.0088,5.3646,5.6557,5.8095,5.915,0.0,0.0,0.0,0.0,0.0,0.0,0.0,0.0,0.0,0.0,0.0,0.0,0.0,0.0,4.5227,4.174,4.1087,4.1083,4.1083,0.0,0.0,0.0,0.0,0.0,0.0,0.0,0.0,0.0,0.0,0.0,0.0,0.0,0.0,0.0,0.0,3.855,0.0,0.0,0.0,0.0,0.0,0.0,0.0,0.0,4.5536,4.7699,4.9161,5.0161,5.0228,0.0,4.7977,4.5135,0.0,0.0,0.0,0.0,0.0,0.0,0.0,0.0,4.7015,5.2596,5.6393,5.9616,6.2255,6.2424,6.2188,6.167,5.9708,5.5843,4.9958,4.6203,4.2523,0.0,0.0,0.0,0.0,0.0,0.0,0.0,0.0,0.0,0.0,0.0,0.0,0.0,0.0,0.0,0.0,0.0,0.0,0.0,0.0,0.0,0.0,0.0,3.2964,0.0,0.0,0.0,0.0,0.0,0.0,0.0,0.0,0.0,3.7741,4.0985,4.4918,4.9133,5.2052,5.4553,5.6625,0.0,0.0,0.0,0.0,0.0,0.0,0.0,5.6178,5.5396,5.5185,5.5154,5.5296,5.5063,5.4853,5.4908,0.0,0.0,4.787,4.6874,4.6879,4.6874,4.7269,4.7746,4.8039,4.871,4.9522,0.0,0.0,0.0,0.0,0.0,0.0,0.0,0.0,4.4811,4.4811,0.0,4.2503,0.0,0.0,0.0,0.0,0.0,0.0,0.0,0.0,5.0025,5.2216,5.3746,5.5192,5.5505,5.471,5.3247,5.2089,5.0863,4.3335,0.0,0.0,0.0,0.0,0.0,0.0,4.8368,5.3509,5.7153,6.0114,6.2289,6.2424,6.2391,6.2289,5.949,5.5919,5.1607,4.924,4.6305,4.2597,3.8956,0.0,0.0,0.0,0.0,0.0,0.0,0.0,0.0,0.0,0.0,0.0,0.0,0.0,0.0,0.0,0.0,0.0,0.0,0.0,0.0,3.3223,0.0,0.0,0.0,0.0,0.0,0.0,0.0,0.0,0.0,0.0,4.3252,4.5132,4.8088,5.2609,0.0,0.0,0.0,0.0,5.7869,5.7869,5.8478,5.8623,5.7768,5.7413,5.7086,5.6431,0.0,0.0,5.9836,6.0229,6.031,6.0493,6.0401,5.9049,5.4488,5.3466,5.3324,5.335,5.3376,5.3717,5.442,5.5022,5.5876,5.2773,0.0,0.0,0.0,0.0,4.8079,4.8924,5.0075,4.9518,4.9593,4.9973,4.7733,0.0,0.0,0.0,0.0,0.0,0.0,4.8376,5.0887,5.4363,5.6765,5.8263,5.9776,5.9776,5.8524,5.8051,5.6934,5.5099,5.1792,4.7511,4.2448,0.0,0.0,0.0,0.0,5.0364,5.4921,5.766,6.0105,6.2357,6.2424,6.2144,6.1603,5.9699,5.7568,5.5268,5.2536,4.9586,4.644,4.2733,0.0,0.0,0.0,0.0,0.0,0.0,0.0,0.0,0.0,0.0,0.0,0.0,0.0,0.0,0.0,0.0,0.0,0.0,0.0,3.5013,3.6253,3.6687,0.0,0.0,0.0,0.0,0.0,0.0,0.0,0.0,0.0,4.9678,5.0208,5.1272,0.0,0.0,5.6179,5.718,5.8056,5.8618,5.8688,0.0,0.0,0.0,5.9065,5.8928,5.8722,5.9927,6.1335,6.2671,6.3253,6.351,6.3617,6.3679,6.3167,6.1891,5.9797,5.8385,5.8229,5.8645,5.9085,5.9256,5.9895,6.0491,5.849,5.4786,5.2596,5.1919,5.2334,5.2646,5.3247,5.4059,5.3915,5.3949,5.3991,5.2063,5.0811,5.0025,4.8105,0.0,0.0,0.0,5.2401,5.4642,5.778,6.0047,6.1492,6.2685,6.2797,6.1873,6.1298,6.0327,5.8998,5.7205,5.4169,4.988,0.0,0.0,4.7267,4.9898,5.2976,5.6486,5.8786,6.0714,6.2357,6.2424,6.2042,6.1289,6.0071,5.8752,5.7273,5.4634,5.2097,4.9721,4.6116,4.2394,0.0,0.0,0.0,0.0,0.0,0.0,0.0,0.0,0.0,0.0,0.0,2.7674,2.8808,0.0,0.0,0.0,3.283,3.5084,3.773,3.8425,0.0,0.0,0.0,0.0,0.0,0.0,0.0,4.495,4.7957,5.0872,5.3484,5.4506,5.5205,5.5748,5.678,5.7634,5.8114,0.0,5.9593,5.969,6.0584,6.1105,6.0598,6.0691,6.0815,6.0857,6.189,6.318,6.4493,6.5076,6.5408,6.5634,6.566,6.566,6.566,6.4077,6.2615,6.2075,6.2307,6.2583,6.2466,6.3071,6.3616,6.3386,6.2279,5.8211,5.6418,5.6308,5.6968,5.7273,5.7374,5.7983,5.7891,5.723,5.5725,5.4575,5.3678,5.2359,0.0,0.0,5.3923,5.6106,5.8229,6.0443,6.2236,6.368,6.4434,6.4749,6.4657,6.3304,6.2594,6.2357,6.0308,5.8896,5.806,5.3323,5.1124,5.1649,5.3653,5.5759,5.7958,6.009,6.1559,6.2391,6.2424,6.2052,6.1332,6.0486,5.9336,5.7891,5.5759,5.3898,5.23,4.8891,4.5297,4.1644,0.0,0.0,0.0,0.0,0.0,0.0,0.0,0.0,0.0,0.0,0.0,0.0,0.0,0.0,0.0,3.6909,0.0,4.0007,4.0232,0.0,0.0,0.0,4.189,4.3921,4.5446,4.706,4.9072,0.0,0.0,0.0,0.0,5.9374,5.8409,5.8694,5.903,5.903,5.9995,6.0668,6.0686,6.2057,6.2753,6.1751,6.1988,6.234,6.2538,6.3154,6.3954,6.519,6.5831,6.6235,6.6457,6.6589,6.6581,6.6589,6.6246,6.6007,6.4693,6.4568,6.459,6.4376,6.4838,6.522,6.6102,6.4827,6.3778,6.2357,6.0825,6.1003,6.14,6.1864,6.1511,6.1535,6.1762,5.9708,5.7746,5.6021,5.6233,5.5987,5.553,5.7196,5.8853,6.0564,6.2202,6.3768,6.5199,6.5933,6.5967,6.5436,6.5097,6.4353,6.3226,6.211,6.124,6.0419,5.8626,5.6697,5.4718,5.5166,5.6519,5.8727,5.9844,6.1028,6.2357,6.2424,6.2042,6.1289,5.9969,5.8819,5.7891,5.5759,5.3898,5.2334,4.9856,4.7064,4.3931,3.9715,0.0,0.0,0.0,0.0,0.0,0.0,0.0,0.0,0.0,3.213,3.3693,0.0,3.6031,0.0,3.8973,4.1439,4.3339,4.4121,0.0,0.0,4.6762,4.7341,4.8855,5.0344,5.1855,5.3409,5.5741,5.7528,5.8269,5.9806,6.0793,6.056,6.0348,6.0273,6.0298,6.0987,6.1506,6.1593,6.2378,6.2887,6.2535,6.2514,6.2683,6.2915,6.3374,6.3947,6.461,6.5182,6.5661,6.5902,6.5949,6.5942,6.5934,6.5713,6.5373,6.4977,6.5141,6.5404,6.524,6.5256,6.5279,6.7963,6.7218,6.7229,6.6485,6.529,6.3947,6.3609,6.3961,6.3565,6.3632,6.3893,6.2303,6.0757,5.9336,5.9718,5.9515,5.893,6.0003,6.1153,6.2337,6.3453,6.4952,6.6654,6.6734,6.6768,6.6643,6.6011,6.5266,6.4478,6.3429,6.2675,6.2269,6.1163,5.981,5.8244,5.7839,5.8278,5.9496,6.0554,6.1545,6.2357,6.2076,6.1704,6.1298,5.9496,5.8152,5.7417,5.5285,5.356,5.2334,5.0515,4.8323,4.5691,4.2252,3.9026,0.0,0.0,0.0,0.0,0.0,0.0,0.0,0.0,0.0,0.0,0.0,3.9406,0.0,4.3091,0.0,4.6568,4.7756,4.9119,5.0731,5.0986,5.1648,5.3343,5.4589,5.5698,5.6718,5.8454,5.9722,6.0163,6.1129,6.1782,6.1806,6.1592,6.1463,6.1497,6.1894,6.2199,6.2233,6.2943,6.3411,6.3198,6.2853,6.2635,6.2847,6.3193,6.3568,6.3949,6.4384,6.4746,6.4915,6.5001,6.4966,6.4957,6.4773,6.4541,6.4472,6.4524,6.4713,6.4934,6.4867,6.4679,6.9305,6.9248,6.9248,6.918,6.891,6.6271,6.5189,6.5155,6.5053,6.4918,6.4681,6.4062,6.3362,6.2695,6.2695,6.2313,6.1772,6.2391,6.3057,6.3792,6.4434,6.5865,6.7861,6.7252,6.7275,6.7827,6.6586,6.5886,6.5672,6.441,6.3758,6.3589,6.2279,6.1535,6.14,6.0655,6.025,6.0283,6.167,6.2424,6.2391,6.1772,6.1332,6.1086,5.9032,5.7451,5.6494,5.4456,5.2934,5.2029,5.0785,4.9127,4.7022,4.4884,4.2165,0.0,3.7166,0.0,0.0,0.0,0.0,0.0,0.0,0.0,0.0,4.1238,4.3132,4.5379,4.8011,4.9708,5.0002,5.135,5.2833,5.4352,5.4548,5.529,5.7148,5.809,5.8791,5.9244,6.0554,6.1467,6.1603,6.2144,6.256,6.2695,6.2715,6.2725,6.2691,6.2649,6.261,6.2678,6.3353,6.3602,6.3445,6.2881,6.2459,6.2635,6.2847,6.3051,6.3346,6.3613,6.3823,6.3967,6.403,6.4012,6.3985,6.3859,6.3698,6.3723,6.3485,6.3519,6.4048,6.4093,6.3913,7.0534,7.0003,7.0003,6.9665,6.9045,6.847,6.8233,6.8189,6.7557,6.6609,6.5503,6.5368,6.4884,6.4208,6.4208,6.4106,6.3971,6.4106,6.458,6.53,6.5436,6.6339,6.7861,6.776,6.776,6.7861,6.7635,6.6891,6.5706,6.5436,6.4986,6.4367,6.3521,6.2787,0.0,0.0,0.0,0.0,6.1951,6.2424,6.2391,6.2245,6.1612,6.0351,5.8761,0.0,5.5082,5.3424,5.1928,5.0582,5.0252,0.0,0.0,0.0,0.0,0.0,0.0,0.0,0.0,0.0,0.0,0.0,4.6177,4.5812,4.3829,4.5981,4.8443,5.0642,5.1961,5.3145,5.4347,5.5278,5.6412,5.7819,5.8022,5.8428,5.9407,6.0229,6.0752,6.0858,6.167,6.2424,6.298,6.3217,6.3521,6.4005,6.4174,6.4174,6.414,6.3208,6.2517,6.2493,6.2789,6.2779,6.2662,6.2555,6.24,6.2469,6.2615,6.277,6.2876,6.317,6.3361,6.3426,6.3461,6.3461,6.3452,6.3268,6.3164,6.3155,6.2971,6.2943,6.3414,6.3368,6.3193,7.1097,0.0,7.0737,7.0522,0.0,7.0184,7.0184,7.0128,6.8977,6.7827,6.6789,6.6779,6.6373,6.5686,6.5686,6.5493,6.5131,6.5131,6.5334,6.5706,6.6068,6.7049,6.847,6.8504,6.8673,6.9022,6.8639,6.7895,6.6823,6.644,6.5865,6.5121,6.44,6.3869,6.3497,6.3125,6.2415,6.1332,6.2009,6.2424,6.2391,6.2042,6.1298,6.0114,0.0,0.0,0.0,0.0,0.0,0.0,0.0,0.0,0.0,0.0,0.0,4.6786,4.6007,4.5778,4.6157,4.6853,4.809,4.9965,5.1792,5.1758,4.9195,5.1048,5.2934,5.4397,5.5539,5.6511,5.7255,5.8017,5.8896,5.9969,6.0139,6.0409,6.1139,6.1569,6.1975,6.2337,6.2719,6.3217,6.3927,6.4028,6.4174,6.4546,6.4613,6.4613,6.4556,6.3981,6.3497,6.3463,6.3135,6.2956,6.2922,6.2584,6.2424,6.241,6.2479,6.2537,6.2547,6.2712,6.2847,6.2856,6.2847,6.2856,6.2847,6.277,6.2702,6.2702,6.2615,6.2596,6.2818,6.278,6.2702,7.1605,7.1503,7.1515,7.1436,7.1289,7.1289,7.1289,7.1199,0.0,0.0,0.0,6.8098,6.7793,6.7218,6.7072,6.6677,6.6079,6.5943,6.5909,6.5933,6.6633,6.7728,6.9014,6.9183,6.951,7.0017,6.9421,6.8767,6.8033,6.7324,6.6669,6.6045,6.5222,6.4739,6.4613,6.4613,6.37,6.2009,6.2492,6.2729,6.2594,6.2009,6.1264,6.0351,5.9007,5.7611,5.6147,5.4794,5.3653,5.2739,5.2131,5.1818,5.1818,5.181,5.1581,5.1158,5.109,5.1166,5.1293,5.1852,5.2824,5.4355,5.6249,5.6562,5.4625,5.5564,5.6587,5.7331,5.8616,5.9394,5.9419,6.008,6.0757,6.1434,6.1627,6.1941,6.2492,6.2719,6.3057,6.3589,6.369,6.3961,6.4681,6.4783,6.486,6.4986,6.5121,6.4986,6.4952,6.4749,6.4478,6.441,6.3994,6.369,6.3622,6.3294,6.283,6.2932,6.2763,6.2594,6.2594,6.2492,6.2424,6.2473,6.2424,6.242,6.2434,6.243,6.2424,6.2424,6.2424,6.2424,6.2424,6.2424,6.2444,7.28,7.2259,7.2259,7.1875,7.1289,7.1289,7.1289,7.1222,7.0409,6.9631,6.8933,6.8944,6.8876,6.8741,6.8064,6.7692,6.7557,6.6914,6.6633,0.0,6.7421,6.8092,6.8772,6.9379,6.9648,6.949,6.9401,6.9077,6.8548,6.7863,6.7533,6.74,6.6214,6.5233,6.4647,6.4613,6.4444,6.414,6.4241,6.3961,6.3352,6.324,6.2506,6.1163,6.025,5.9099,5.762,5.6765,5.5716,5.4372,5.4169,5.4126,5.4135,5.4135,5.4363,5.4853,5.4921,5.5192,5.5784,5.5953,5.6655,5.8109,5.909,5.9225,5.8337,5.8414,5.8844,5.9564,6.0452,6.0984,6.1028,6.1637,6.212,6.2279,6.2821,6.325,6.3352,6.3869,6.4241,6.441,6.4434,6.4715,6.5392,6.5537,6.5774,6.6294,6.6261,6.643,6.6183,6.5381,6.4681,6.4613,6.4512,6.4444,6.441,6.4377,6.414,6.4309,6.3734,6.3352,6.3362,6.2922,6.2594,6.2424,6.2492,6.2458,6.2424,6.2424,6.2424,6.2458,6.2492,6.2492,6.256,6.256,6.2492,7.3319,7.3015,7.2969,7.2812,7.2496,7.2507,7.2259,7.1887,7.1548,7.0737,6.9722,6.9688,6.9485,6.9079,6.8707,6.8571,6.8493,6.7631,6.7229,6.7275,6.7699,6.8015,6.8327,6.9112,6.947,6.9364,6.9364,6.9128,6.8658,6.8438,6.835,6.8253,6.7357,6.6508,6.5821,6.5787,6.5787,6.5764,6.5009,6.4444,6.4096,6.4096,6.3396,6.1941,6.1545,6.0622,5.9142,5.8389,5.7679,5.7027,5.6605,5.6571,5.6968,5.6993,5.7306,5.8008,5.8075,5.8254,5.8558,5.8998,5.9708,6.0757,6.1525,6.1999,6.2033,6.0917,6.0554,6.1274,6.2042,6.2506,6.2506,6.3159,6.3609,6.3599,6.3903,6.4106,6.414,6.4377,6.4759,6.5097,6.5199,6.5493,6.6203,6.6305,6.6373,6.6757,6.6802,6.6802,6.6802,6.625,6.5787,6.5764,6.5459,6.5233,6.5165,6.4816,6.4647,6.4613,6.4343,6.413,6.4096,6.3734,6.3453,6.3081,6.299,6.2821,6.256,6.2424,6.256,6.2956,6.3024,6.3125,6.3429,6.3599,6.3328,7.3637,7.3469,7.3597,7.3599,7.3488,7.343,7.3091,7.2573,7.2424,7.1625,7.0513,7.0422,7.0128,6.9609,6.9362,6.9273,6.9128,6.8157,6.7623,6.7602,6.7845,6.7891,6.7794,6.8603,6.8977,6.8879,6.8867,6.873,6.8537,6.8599,6.8575,6.8395,6.8067,6.7614,6.7064,6.7171,6.7157,6.6931,6.5902,6.5189,6.485,6.485,6.4218,6.3033,6.2898,6.2313,6.1163,6.0409,5.9926,5.9733,5.9066,5.893,5.9462,5.952,5.9834,6.052,6.0631,6.0689,6.0892,6.1603,6.2279,6.283,6.3419,6.3994,6.4377,6.3057,6.2279,6.2854,6.3396,6.3724,6.3758,6.4197,6.4613,6.4613,6.4783,6.485,6.485,6.4986,6.529,6.5842,6.5943,6.617,6.6633,6.6802,6.6791,6.6791,6.6802,6.6802,6.6802,6.6802,6.6802,6.67,6.6305,6.5967,6.5909,6.5527,6.5222,6.5077,6.4952,6.4894,6.4827,6.4749,6.441,6.3859,6.3724,6.3565,6.3024,6.2966,6.3203,6.3632,6.3758,6.3883,6.4333,6.4478,6.4275,7.4005,7.3511,7.3901,7.3886,7.3498,7.3243,7.3149,7.2944,7.2529,7.188,7.1106,7.1152,7.112,7.0962,7.0086,6.9727,6.9615,6.8427,6.7742,6.758,6.7965,6.7764,6.7175,6.7855,6.7973,6.7567,6.7548,6.7726,6.8094,6.7798,6.7582,6.7612,6.7821,6.7835,6.7824,6.8249,6.8167,6.7549,6.7585,6.6958,6.5706,6.5605,6.5199,6.4444,6.4377,6.4333,6.4005,6.3453,6.2777,6.212,6.1376,6.1028,6.1086,6.1095,6.14,6.211,6.2188,6.2458,6.3149,6.3859,6.4231,6.4377,6.4444,6.4546,6.4647,6.4434,6.4309,6.441,6.4468,6.4502,6.4512,6.4613,6.4749,6.485,6.5266,6.5605,6.5672,6.6193,6.6633,6.6656,6.6599,6.6734,6.6768,6.6859,6.6859,6.7039,6.7106,6.7039,6.6937,6.6937,6.6869,6.6836,6.67,6.6667,6.6599,6.6667,6.6396,6.643,6.6,6.5672,6.5503,6.5121,6.458,6.4613,6.4502,6.44,6.4309,6.4377,6.4299,6.4444,6.4546,6.458,6.4613,6.4749,6.4603,7.3678,7.3591,7.3816,7.3972,7.4055,7.3982,7.3581,7.3019,7.263,7.1953,7.1157,7.1099,7.0964,7.0606,7.0224,6.993,6.9633,6.8293,6.7481,6.7169,6.677,6.6574,6.6683,6.6855,6.704,6.7184,6.6838,6.6945,6.7439,6.7712,6.761,6.7295,6.7635,6.772,6.7475,6.7808,6.7891,6.7826,6.8169,6.7859,6.6903,6.6502,6.6,6.5324,6.5222,6.503,6.4613,6.4299,6.4005,6.37,6.3406,6.326,6.326,6.326,6.3362,6.3666,6.371,6.3835,6.413,6.4444,6.4783,6.5199,6.5233,6.5425,6.5865,6.5889,6.5922,6.5855,6.5493,6.5266,6.53,6.5662,6.5889,6.5933,6.617,6.6373,6.6373,6.6643,6.6802,6.6802,6.6802,6.6836,6.6859,6.7174,6.7614,6.7986,6.8121,6.7952,6.7557,6.7455,6.7242,6.6903,6.6802,6.6802,6.6802,6.6802,6.6802,6.6768,6.6565,6.6373,6.6271,6.617,6.5797,6.5358,6.5256,6.5053,6.458,6.4647,6.4681,6.5063,6.5696,6.5889,6.5889,6.5889,6.5889,7.2644,7.2881,7.3168,7.3652,7.4143,7.4079,7.3605,7.2826,7.2396,7.161,7.0643,7.0611,7.0294,6.9821,7.012,7.0124,6.9652,6.8306,6.7433,6.6939,6.5879,6.5655,6.6085,6.6037,6.6262,6.6685,6.6346,6.6346,6.6745,6.7071,6.7062,6.6753,6.7165,6.7297,6.7024,6.7379,6.7671,6.7819,6.8358,6.835,6.7745,6.7435,6.6908,6.6092,6.6,6.573,6.5212,6.503,6.4884,6.4894,6.4725,6.4613,6.4613,6.4613,6.4613,6.4613,6.4783,6.4986,6.5178,6.5392,6.5842,6.6518,6.6654,6.6846,6.7275,6.7411,6.7411,6.7411,6.6958,6.662,6.6373,6.6971,6.7411,6.7444,6.7444,6.7444,6.7444,6.7411,6.7478,6.7411,6.758,6.7444,6.7512,6.7918,6.8436,6.8876,6.9011,6.8944,6.8402,6.8233,6.8019,6.7512,6.7478,6.7242,6.6937,6.6802,6.6802,6.6802,6.6768,6.6734,6.6802,6.6802,6.6768,6.6068,6.6011,6.5943,6.5618,6.5415,6.5256,6.5865,6.6373,6.67,6.6599,6.6768,6.6768,7.0711,7.0951,7.199,7.2756,7.3207,7.3083,7.2788,7.2333,7.1533,7.0603,6.9753,6.968,6.9269,6.8752,6.9898,7.0376,6.9957,6.8572,6.7575,6.6919,6.5752,6.5269,6.5412,6.5447,6.5643,6.6145,6.6023,6.5932,6.5901,6.5579,6.5448,6.5696,6.6264,6.6541,6.6609,6.7425,6.78,6.7496,6.8184,6.8369,6.7978,6.8317,6.7952,6.6897,6.6757,6.6802,6.6667,6.6034,6.5706,6.5672,6.5097,6.4715,6.4647,6.4681,6.4749,6.4783,6.5334,6.6011,6.67,6.7275,6.7963,6.8673,6.8673,6.8876,6.8741,6.8774,6.8774,6.8944,6.8774,6.8504,6.7996,6.8335,6.8774,6.8808,6.891,6.8865,6.891,6.8741,6.8977,6.8876,6.8774,6.8774,6.891,6.9011,6.9113,6.9214,6.918,6.9147,6.9113,6.9045,6.8944,6.8876,6.8741,6.847,6.7208,6.6971,6.6937,6.6802,6.6802,6.6802,6.6802,6.6802,6.6768,6.6734,6.6633,6.6599,6.6656,6.6622,6.6497,6.6667,6.6633,6.6802,6.6802,6.6802,6.6802,7.0596,7.0526,7.152,7.2095,7.2243,7.2325,7.2091,7.154,7.0669,6.9831,6.9243,6.9155,6.9016,6.8796,6.9275,6.9261,6.8812,6.7947,6.6997,6.601,6.516,6.5006,6.5411,6.5253,6.5679,6.6433,6.6162,6.5843,6.5631,6.5417,6.5358,6.5405,6.5421,6.5475,6.5759,6.6425,6.679,6.6946,6.7765,6.8054,6.7719,6.8276,6.8337,6.7812,6.8094,6.8256,6.8256,6.7996,6.7658,6.7127,6.6846,6.6508,6.6136,6.6474,6.6711,6.6779,6.7421,6.7996,6.8256,6.8538,6.8774,6.9045,6.9079,6.918,6.9079,6.9079,6.9079,6.9214,6.9586,6.9586,6.9428,6.9248,6.9113,6.9113,6.9113,6.918,6.9079,6.9079,6.9079,6.9079,6.9113,6.9282,6.9733,6.98,6.9992,7.0421,7.0489,7.0263,6.9925,6.98,6.9688,6.9248,6.9079,6.8944,6.8504,6.7783,6.7411,6.7005,6.6802,6.6836,6.6869,6.6903,6.6869,6.6768,6.6802,6.6802,6.6757,6.6757,6.6802,6.6802,6.6802,6.6802,6.6802,6.6802,6.6802,7.0326,7.0438,7.1011,7.1332,7.1449,7.1591,7.1403,7.0859,6.9945,6.9241,6.8781,6.8538,6.8447,6.8476,6.855,6.8355,6.7891,6.7403,6.6678,6.5716,6.4998,6.502,6.5546,6.5428,6.5906,6.6745,6.6311,6.5862,6.5651,6.5413,6.5268,6.5266,6.5096,6.5122,6.5358,6.5668,6.5994,6.6381,6.7063,6.7374,6.7337,6.8114,6.8597,6.8732,6.9256,6.9399,6.9136,6.9079,6.8876,6.8402,6.8301,6.8064,6.7647,6.803,6.8267,6.8368,6.8764,6.9214,6.9417,6.9451,6.9654,7.0128,7.0195,7.0229,7.0477,7.0534,7.05,7.0635,7.0917,7.1266,7.1154,7.0849,7.0331,6.9981,7.0026,7.0049,6.9891,7.0049,7.0195,7.0297,7.0331,7.0398,7.0477,7.0545,7.077,7.1267,7.1289,7.1064,7.0669,7.0534,7.0443,6.9925,6.9914,6.9789,6.9451,6.8977,6.8504,6.8053,6.7647,6.7444,6.7174,6.7174,6.7072,6.6937,6.6836,6.6836,6.6836,6.6836,6.6836,6.6869,6.6802,6.6802,6.6802,6.6802,6.6937,6.9819,7.0327,7.0435,7.0633,7.0845,7.092,7.0709,7.0343,6.9413,6.8895,6.856,6.7955,6.785,6.7729,6.8122,6.7925,6.7668,6.7333,6.6834,6.6281,6.5472,6.5368,6.5952,6.5907,6.6236,6.6954,6.637,6.6041,6.6027,6.5458,6.5128,6.5128,6.5303,6.5343,6.5451,6.5451,6.5574,6.5875,6.6195,6.6472,6.6949,6.7962,6.8793,6.937,7.0084,7.0128,6.9296,6.926,6.9248,6.9113,6.9113,6.9102,6.8933,6.9045,6.9079,6.9113,6.9214,6.9563,7.0172,7.0342,7.1052,7.1864,7.2293,7.2406,7.2812,7.3015,7.3048,7.2981,7.3116,7.3297,7.3229,7.3184,7.2676,7.1639,7.1819,7.1887,7.1616,7.1909,7.2326,7.2191,7.2022,7.1988,7.1503,7.1165,7.1199,7.1267,7.1289,7.1255,7.1131,7.1097,7.1233,7.1165,7.0917,7.059,7.0398,7.0139,6.9722,6.9282,6.891,6.8561,6.8098,6.7929,6.776,6.7614,6.7546,6.7512,6.7478,6.7444,6.7309,6.7242,6.7072,6.714,6.7343,6.7478,6.7275,6.9948,7.0154,7.0374,7.0515,7.061,7.0797,7.0719,7.0377,6.9572,6.9082,6.8848,6.8621,6.8531,6.8563,6.8656,6.8611,6.8487,6.7935,6.7139,6.6282,6.5832,6.5802,6.5966,6.6041,6.6325,6.6879,6.6789,6.67,6.658,6.6041,6.5667,6.5637,6.5338,6.5173,6.5247,6.536,6.5516,6.5647,6.6051,6.6576,6.72,6.8034,6.896,6.9932,7.0745,7.1172,7.127,7.0883,7.0376,6.9925,6.9868,6.9631,6.9316,6.9597,6.9834,6.9969,7.0838,7.1447,7.1718,7.2169,7.2575,7.306,7.315,7.3251,7.3454,7.3522,7.3556,7.3534,7.35,7.3488,7.3556,7.3984,7.3781,7.2935,7.3015,7.3082,7.2834,7.3015,7.2902,7.2496,7.2383,7.2045,7.1537,7.1334,7.1334,7.1289,7.1289,7.1289,7.1289,7.1289,7.1289,7.1289,7.1255,7.1222,7.0928,7.0737,7.0522,7.0128,6.9778,6.9383,6.8944,6.8673,6.8504,6.8301,6.8233,6.8166,6.8121,6.8019,6.7861,6.7895,6.7918,6.8087,6.8301,6.8233,6.803,7.0336,7.0352,7.0561,7.0641,7.0657,7.0864,7.0802,7.0567,6.9904,6.9553,6.9365,6.9093,6.9004,6.9004,6.9004,6.9004,6.8944,6.8541,6.7792,6.6819,6.6445,6.637,6.643,6.664,6.7089,6.7643,6.7762,6.7597,6.7343,6.6954,6.661,6.6311,6.5951,6.5922,6.6011,6.5802,6.5771,6.6026,6.6063,6.63,6.6858,6.7616,6.8481,6.9436,7.0377,7.109,7.1606,7.1539,7.1453,7.1345,7.1368,7.1187,7.0815,7.1221,7.1436,7.1594,7.2191,7.28,7.2868,7.315,7.3657,7.3827,7.3894,7.4063,7.4233,7.4334,7.4334,7.4312,7.4368,7.4334,7.4402,7.4695,7.4762,7.4402,7.4063,7.3928,7.3916,7.3928,7.3747,7.3397,7.3262,7.2721,7.2045,7.1706,7.1571,7.1402,7.1289,7.1289,7.1289,7.1289,7.1334,7.1334,7.1289,7.1289,7.1289,7.1267,7.1267,7.0928,7.0522,7.0094,6.9654,6.9519,6.935,6.891,6.8741,6.8673,6.8639,6.8571,6.8436,6.8605,6.8774,6.8696,6.8764,6.8842,6.8707,7.0889,7.0903,7.0889,7.0875,7.0875,7.0908,7.0878,7.0802,7.0323,7.0053,6.9917,6.9512,6.9213,6.9153,6.9303,6.9303,6.9123,6.9093,6.875,6.8032,6.7463,6.7044,6.7134,6.7523,6.8092,6.8734,6.8854,6.86,6.8077,6.7987,6.7748,6.7208,6.7194,6.7373,6.7583,6.6759,6.661,6.6986,6.6342,6.6157,6.6374,6.7051,6.7756,6.8367,6.9384,7.0252,7.0849,7.1651,7.2386,7.2964,7.3079,7.3116,7.3353,7.3443,7.3205,7.316,7.3454,7.3486,7.351,7.387,7.4198,7.4784,7.4952,7.5031,7.565,7.5655,7.5617,7.5595,7.5583,7.5619,7.5595,7.5684,7.5663,7.5624,7.5028,7.4705,7.4683,7.4661,7.4547,7.448,7.448,7.4074,7.2665,7.2462,7.2191,7.1808,7.1639,7.1706,7.1672,7.1751,7.147,7.1436,7.147,7.1289,7.1289,7.1289,7.1289,7.1199,7.0928,7.0658,7.0364,7.0263,7.0195,6.9755,6.9383,6.9316,6.9282,6.9282,6.935,6.9553,6.9519,6.9237,6.9339,6.9586,6.962,7.0903,7.0903,7.0903,7.0903,7.0903,7.0903,7.0903,7.0889,7.0739,7.062,7.059,7.05,7.032,7.041,7.038,7.041,7.0231,6.9917,6.9678,6.9319,6.8257,6.7778,6.7732,6.7928,6.8391,6.8974,6.9123,6.8914,6.8734,6.875,6.8615,6.8495,6.8375,6.8495,6.8615,6.8315,6.8315,6.8451,6.8228,6.789,6.782,6.8166,6.8503,6.8743,6.9608,7.0388,7.1053,7.2437,7.3127,7.3099,7.3349,7.3488,7.3566,7.3448,7.3398,7.3452,7.3648,7.3838,7.4195,7.5017,7.581,7.627,7.631,7.6825,7.7027,7.6655,7.6467,7.6425,7.6286,7.6105,7.6125,7.6105,7.6092,7.6081,7.5543,7.5274,7.5322,7.5405,7.5236,7.475,7.4568,7.4071,7.3452,7.3091,7.3024,7.2799,7.2697,7.2732,7.2495,7.2281,7.2055,7.1909,7.1819,7.147,7.1289,7.1289,7.1289,7.1289,7.1199,7.1131,7.0962,7.0928,7.0928,7.0793,7.0455,7.0319,7.0319,7.0364,7.0466,7.0364,7.0195,6.9981,7.0489,7.0793,7.0725,7.0903,7.0903,7.0903,7.0903,7.0903,7.0903,7.0903,7.0903,7.0903,7.0903,7.0903,7.0903,7.0903,7.0903,7.0889,7.0873,7.0859,7.053,7.0231,6.9828,6.89,6.8451,6.8421,6.8421,6.89,6.9722,6.9782,6.9662,6.9453,6.9439,6.9273,6.9004,6.9004,6.9123,6.9409,6.9123,6.9169,6.9273,6.9169,6.8874,6.8747,6.8982,6.9062,6.9258,6.9898,7.0687,7.1784,7.325,7.3916,7.3791,7.3951,7.4205,7.4364,7.4219,7.4241,7.4432,7.4705,7.4972,7.5184,7.5982,7.6425,7.6613,7.6868,7.6901,7.6781,7.6472,7.6291,7.6042,7.5951,7.5885,7.5872,7.5905,7.5905,7.5766,7.5423,7.5234,7.5444,7.5444,7.5146,7.4643,7.4341,7.4106,7.3402,7.3314,7.3172,7.3006,7.2781,7.2946,7.3098,7.2874,7.2673,7.2493,7.2415,7.2235,7.2122,7.2122,7.1761,7.1705,7.1389,7.1356,7.1334,7.1323,7.1244,7.121,7.1255,7.1199,7.0985,7.0884,7.0962,7.0872,7.077,7.076,7.1064,7.1086,7.112,7.0903,7.0903,7.0903,7.0903,7.0903,7.0903,7.0903,7.0903,7.0903,7.0903,7.0903,7.0903,7.0903,7.0903,7.0903,7.0903,7.0903,7.0829,7.0486,7.0007,6.9379,6.9093,6.9093,6.9093,6.9692,7.056,7.0843,7.056,7.0171,7.0097,6.9798,6.9512,6.9333,6.9542,6.9917,6.9572,6.9572,6.9917,6.9632,6.9349,6.9218,6.9363,6.9385,6.9344,6.9884,7.0899,7.2197,7.3453,7.4093,7.4306,7.4822,7.5164,7.5483,7.5519,7.5509,7.5601,7.549,7.5595,7.5997,7.5931,7.6287,7.6339,7.6399,7.6228,7.6135,7.59,7.5603,7.5372,7.5193,7.5129,7.5116,7.5141,7.5143,7.5042,7.4578,7.4567,7.4806,7.4973,7.4744,7.4115,7.3996,7.364,7.3296,7.2999,7.292,7.3047,7.2955,7.3183,7.3265,7.3048,7.3045,7.3065,7.3058,7.3074,7.3029,7.3063,7.2577,7.2171,7.1708,7.1506,7.1453,7.141,7.1312,7.1255,7.1176,7.1075,7.095,7.0985,7.1019,7.0883,7.0498,7.0747,7.1041,7.0779,7.0699,7.0903,7.0903,7.0903,7.0903,7.0903,7.0903,7.0903,7.0903,7.0903,7.0903,7.0903,7.0903,7.0903,7.0903,7.0903,7.0903,7.0903,7.0873,7.056,7.0053,6.9887,6.9798,6.9782,6.9782,7.0201,7.0753,7.0903,7.0813,7.0679,7.062,7.0649,7.0454,7.032,7.053,7.059,7.047,7.053,7.0679,7.05,7.0171,6.9812,6.9816,6.9685,6.9343,6.9801,7.0557,7.1459,7.2313,7.2934,7.3651,7.4703,7.5411,7.5444,7.5006,7.4786,7.4791,7.4494,7.4434,7.4824,7.5402,7.5927,7.621,7.6334,7.6581,7.6456,7.5499,7.5069,7.4826,7.4507,7.4263,7.4231,7.421,7.4233,7.4166,7.4042,7.3725,7.3491,7.3501,7.3528,7.3377,7.3278,7.3316,7.3101,7.2886,7.2865,7.2979,7.3087,7.3348,7.3293,7.3111,7.3184,7.321,7.3059,7.2962,7.2895,7.2874,7.2528,7.2183,7.178,7.1489,7.1451,7.1408,7.1279,7.1139,7.0973,7.0858,7.076,7.0398,7.0318,7.0258,7.0176,7.0223,7.0225,7.0166,7.019,7.0903,7.0903,7.0903,7.0903,7.0903,7.0903,7.0903,7.0903,7.0903,7.0903,7.0903,7.0903,7.0903,7.0903,7.0903,7.0903,7.0903,7.0889,7.0739,7.0486,7.041,7.041,7.041,7.041,7.062,7.0873,7.0903,7.0903,7.0903,7.0903,7.0843,7.0903,7.0903,7.0813,7.0903,7.0903,7.0843,7.0873,7.0889,7.0726,7.0486,7.041,7.032,7.0041,7.0349,7.0932,7.1599,7.224,7.2783,7.3405,7.4204,7.4739,7.4775,7.4379,7.414,7.41,7.3961,7.3845,7.4276,7.4568,7.5035,7.5623,7.578,7.5717,7.5588,7.4917,7.4396,7.4013,7.3629,7.3447,7.3431,7.3431,7.3431,7.3354,7.3137,7.2796,7.2493,7.2461,7.2371,7.2083,7.1667,7.152,7.1538,7.1796,7.1845,7.1553,7.166,7.196,7.2842,7.2748,7.2946,7.2988,7.2821,7.2694,7.2628,7.2476,7.2249,7.1953,7.1623,7.1367,7.1227,7.1235,7.1204,7.1078,7.0925,7.0628,7.0466,7.0048,6.9625,6.949,6.943,6.9406,6.9403,6.9445,6.946,7.0903,7.0903,7.0903,7.0903,7.0903,7.0903,7.0903,7.0903,7.0903,7.0903,7.0903,7.0903,7.0903,7.0903,7.0903,7.0903,7.0903,7.0903,7.0829,7.0829,7.0783,7.0783,7.0829,7.0829,7.0829,7.0873,7.0903,7.0903,7.0903,7.0903,7.0903,7.0903,7.0903,7.0903,7.0903,7.1038,7.1128,7.1158,7.1338,7.1398,7.1308,7.1278,7.1248,7.1297,7.1462,7.1787,7.2252,7.2681,7.3121,7.3432,7.3478,7.3554,7.3619,7.3666,7.3688,7.3816,7.3832,7.3987,7.4048,7.4142,7.4375,7.4765,7.4796,7.4687,7.4531,7.4328,7.3892,7.3335,7.2946,7.2684,7.2625,7.2516,7.2531,7.2455,7.2058,7.1813,7.1721,7.1626,7.1228,7.08,7.0605,7.0454,7.0107,7.0053,7.0109,7.0223,7.0364,7.0718,7.1607,7.2076,7.2074,7.1945,7.1638,7.1483,7.1432,7.1447,7.1295,7.1265,7.1071,7.0941,7.0773,7.0675,7.0655,7.0987,7.0869,7.0473,6.9933,6.9406,6.9058,6.8868,6.8683,6.8601,6.8645,6.8706,6.8694,7.0903,7.0903,7.0903,7.0903,7.0903,7.0903,7.0979,7.0903,7.0949,7.0903,7.0903,7.0903,7.0903,7.0903,7.0903,7.0903,7.0903,7.0903,7.0903,7.0903,7.0903,7.0903,7.0903,7.0903,7.0903,7.0903,7.0903,7.0919,7.0962,7.0903,7.0992,7.0932,7.0903,7.0903,7.1068,7.1414,7.1653,7.1667,7.2056,7.2339,7.2339,7.2368,7.2368,7.2339,7.2454,7.2636,7.2959,7.3199,7.3472,7.378,7.3813,7.3659,7.3531,7.3453,7.3487,7.3515,7.3707,7.3874,7.4018,7.4204,7.4471,7.4706,7.4609,7.4465,7.4256,7.3902,7.3555,7.3104,7.2484,7.1911,7.1288,7.1421,7.1293,7.1247,7.1283,7.1132,7.1028,7.0781,7.0478,7.0171,6.992,6.9671,6.9414,6.9261,6.9453,6.9689,6.979,6.9963,7.048,7.0654,7.0507,7.0356,7.0118,7.0072,7.0041,7.0122,7.0109,7.0186,7.0094,7.0121,6.9992,6.993,7.0044,7.0207,7.0162,6.9794,6.9293,6.875,6.8351,6.8057,6.7926,6.7818,6.7908,6.7962,6.7899,7.0903,7.0949,7.1278,7.1398,7.1487,7.177,7.1727,7.1427,7.1398,7.1218,7.0962,7.0903,7.0903,7.0903,7.0903,7.0903,7.0903,7.0903,7.0903,7.0903,7.0903,7.0903,7.0903,7.0903,7.0903,7.0903,7.0919,7.1128,7.1414,7.1427,7.1398,7.1338,7.1098,7.0903,7.1038,7.1534,7.1893,7.2072,7.2565,7.2954,7.2954,7.2954,7.2954,7.2924,7.2954,7.2977,7.3077,7.3143,7.318,7.3329,7.3362,7.3293,7.3309,7.3455,7.352,7.3306,7.3356,7.3488,7.359,7.3622,7.3795,7.4274,7.4252,7.4153,7.4087,7.3827,7.3403,7.2706,7.2357,7.1623,7.1027,7.0903,7.0903,7.0903,7.0903,7.0903,7.0813,7.059,7.0333,7.0019,6.9684,6.9442,6.9168,6.9032,6.9063,6.9139,6.9259,6.9424,6.9632,6.9719,6.9759,6.9645,6.9582,6.9444,6.946,6.9445,6.9431,6.9429,6.9413,6.9382,6.9316,6.9347,6.9216,6.9186,6.9071,6.8963,6.8623,6.8093,6.7654,6.7297,6.7322,6.7302,6.7249,6.7193,6.7263,7.0979,7.1158,7.1667,7.1966,7.2176,7.2654,7.2578,7.2176,7.2116,7.1727,7.1158,7.1098,7.1068,7.0949,7.0903,7.0903,7.0903,7.0903,7.0903,7.0903,7.0903,7.0903,7.0903,7.0903,7.0903,7.0903,7.1158,7.1384,7.1713,7.1803,7.1953,7.1966,7.1517,7.1291,7.1547,7.2176,7.2222,7.2521,7.2924,7.3283,7.3313,7.3313,7.3313,7.3313,7.3313,7.3373,7.3496,7.3543,7.3513,7.3529,7.347,7.3389,7.3402,7.3791,7.3821,7.3402,7.3296,7.3313,7.3359,7.3453,7.3887,7.4284,7.4158,7.4125,7.4069,7.3956,7.3436,7.2402,7.1923,7.1623,7.1038,7.0903,7.0903,7.0903,7.0903,7.0903,7.0903,7.0799,7.062,7.0213,6.9632,6.9308,6.9167,6.8988,6.904,6.9071,6.918,6.9257,6.9473,6.961,6.9626,6.9473,6.9319,6.9106,6.906,6.9091,6.9122,6.9168,6.9138,6.9138,6.8984,6.8845,6.8719,6.8595,6.8148,6.8026,6.7711,6.7618,6.7402,6.718,6.6948,6.6904,6.7032,6.7048,6.7064,7.1248,7.1803,7.1846,7.2252,7.2774,7.2937,7.2877,7.2787,7.2757,7.2385,7.1803,7.1773,7.1457,7.1068,7.0903,7.0903,7.0903,7.0903,7.0903,7.0903,7.0903,7.0903,7.0903,7.0903,7.0903,7.0932,7.1414,7.1773,7.1923,7.1953,7.2265,7.2578,7.2608,7.2608,7.2445,7.3013,7.3642,7.3732,7.4257,7.4587,7.4557,7.4557,7.4527,7.4557,7.4527,7.4497,7.4407,7.4407,7.4467,7.4497,7.4587,7.4616,7.4676,7.4723,7.4766,7.4676,7.4676,7.4646,7.4527,7.442,7.442,7.4616,7.4676,7.4766,7.4557,7.4138,7.3552,7.2907,7.2265,7.1607,7.1068,7.0903,7.0903,7.0903,7.0903,7.0903,7.0903,7.0873,7.0753,7.0723,7.026,6.9752,6.9428,6.9171,6.9005,6.9051,6.9113,6.9267,6.9392,6.9623,6.9656,6.9542,6.9272,6.903,6.8955,6.8969,6.8998,6.8996,6.8996,6.898,6.8907,6.8727,6.8421,6.8181,6.7744,6.7548,6.7637,6.7576,6.7291,6.7095,6.6958,6.6929,6.7003,6.6958,6.6929,7.1623,7.1923,7.2295,7.2864,7.3492,7.3851,7.3821,7.3492,7.3462,7.3103,7.2565,7.2475,7.2086,7.1517,7.1098,7.0903,7.0903,7.0903,7.0903,7.0903,7.0903,7.0903,7.0903,7.0903,7.0903,7.0962,7.1218,7.1517,7.1816,7.2355,7.2787,7.3283,7.3086,7.2847,7.3103,7.3612,7.3821,7.4031,7.4497,7.4856,7.4886,7.4886,7.4886,7.4886,7.4886,7.4886,7.4886,7.4886,7.4886,7.4886,7.4886,7.4886,7.4886,7.4886,7.4886,7.4886,7.4886,7.4856,7.4856,7.4886,7.4886,7.4886,7.4886,7.4856,7.4766,7.4257,7.3582,7.2937,7.2295,7.1623,7.1068,7.0903,7.0903,7.0903,7.0903,7.0903,7.0903,7.0903,7.0873,7.0873,7.0843,7.0334,6.9945,6.9931,6.9871,6.9917,6.9977,7.0085,7.0027,6.9985,6.9911,6.9731,6.9373,6.8997,6.8984,6.8984,6.9078,6.9106,6.9106,6.9074,6.895,6.8767,6.863,6.8391,6.8128,6.7965,6.7814,6.7424,6.7139,6.7047,6.6984,6.6999,6.6999,6.7,6.6958,7.2102,7.2445,7.2954,7.3552,7.4197,7.4706,7.4616,7.4197,7.4151,7.3762,7.3236,7.2937,7.2595,7.2086,7.1517,7.1218,7.1158,7.0979,7.0919,7.0903,7.0903,7.0903,7.0903,7.0903,7.0903,7.0903,7.0932,7.1457,7.2146,7.2654,7.3163,7.3851,7.3732,7.3522,7.3582,7.3911,7.424,7.4287,7.4676,7.4886,7.4886,7.4886,7.4886,7.4886,7.4886,7.4886,7.4886,7.4886,7.4886,7.4886,7.4886,7.4886,7.4886,7.4886,7.4886,7.4886,7.4886,7.4886,7.4886,7.4886,7.4886,7.4886,7.4886,7.4886,7.4796,7.4227,7.3522,7.2907,7.2026,7.1427,7.1068,7.0903,7.0903,7.0903,7.0903,7.0903,7.0903,7.0962,7.0932,7.0903,7.0903,7.0903,7.0663,7.0753,7.0783,7.0843,7.0873,7.0903,7.0679,7.038,7.029,7.0141,6.9991,6.9692,6.9662,6.9542,6.9482,6.9363,6.9363,6.9453,6.9572,6.9453,6.9289,6.899,6.866,6.8452,6.835,6.7659,6.6999,6.6999,6.6999,6.6999,6.6999,6.7029,6.7059,7.2641,7.3762,7.3791,7.418,7.4796,7.4856,7.4856,7.4736,7.4796,7.4407,7.3791,7.3253,7.2954,7.2684,7.2176,7.1833,7.1803,7.1188,7.1112,7.1052,7.0903,7.1112,7.1142,7.1112,7.1022,7.1068,7.1098,7.1727,7.2548,7.2924,7.3373,7.3821,7.4197,7.4587,7.4616,7.4557,7.4676,7.4676,7.4856,7.4886,7.4886,7.4886,7.4886,7.4886,7.4886,7.4886,7.4886,7.4886,7.4886,7.4886,7.4886,7.4886,7.4886,7.4886,7.4886,7.4886,7.4886,7.4886,7.4886,7.4886,7.4886,7.4886,7.4886,7.4886,7.4856,7.3702,7.3073,7.2954,7.2176,7.1457,7.1128,7.0932,7.1232,7.1291,7.1411,7.1411,7.1321,7.1098,7.1052,7.0932,7.0903,7.0903,7.0903,7.0903,7.0903,7.0903,7.0903,7.0903,7.0903,7.0709,7.0739,7.0709,7.0739,7.0633,7.0663,7.0514,7.026,7.0201,7.0201,7.038,7.0544,7.032,6.9917,6.9708,6.9409,6.9123,6.8794,6.8166,6.7597,6.7178,6.7089,6.7448,6.7508,6.7537,6.7448,7.3073,7.3911,7.4347,7.4646,7.4886,7.4886,7.4886,7.4886,7.4886,7.4796,7.4437,7.3851,7.3522,7.3343,7.2864,7.2505,7.2505,7.2295,7.2099,7.2129,7.2146,7.2146,7.2026,7.1757,7.1697,7.1906,7.1816,7.1906,7.2787,7.3253,7.3552,7.4031,7.4676,7.4796,7.4886,7.4886,7.4886,7.4886,7.4886,7.4886,7.4886,7.4886,7.4886,7.4886,7.4886,7.4886,7.4886,7.4886,7.4886,7.4886,7.4886,7.4886,7.4886,7.4886,7.4886,7.4886,7.4886,7.4886,7.4886,7.4886,7.4886,7.4886,7.4886,7.4886,7.4856,7.4001,7.3612,7.3223,7.2638,7.1996,7.2116,7.2129,7.2219,7.2159,7.2069,7.2009,7.186,7.1637,7.1517,7.1531,7.1172,7.0903,7.0903,7.0903,7.0903,7.0903,7.0903,7.0903,7.0903,7.0903,7.0903,7.0903,7.0903,7.0903,7.0903,7.0903,7.0903,7.0903,7.0903,7.0903,7.0903,7.0843,7.05,7.032,7.0127,6.9782,6.9333,6.8764,6.8315,6.8016,6.8076,6.8315,6.8286,6.8106,6.7986,7.3416,7.4227,7.4676,7.4886,7.4886,7.4886,7.4886,7.4886,7.4886,7.4886,7.4873,7.4407,7.418,7.4001,7.3522,7.3223,7.3133,7.2954,7.2894,7.2834,7.2804,7.2924,7.2744,7.2565,7.2385,7.2744,7.2595,7.2595,7.3283,7.3702,7.418,7.4599,7.4899,7.5095,7.4886,7.4886,7.4886,7.4886,7.4886,7.4886,7.4886,7.4886,7.4886,7.4886,7.4886,7.4886,7.4886,7.4886,7.4886,7.4886,7.4886,7.4886,7.4886,7.4886,7.4886,7.4886,7.4886,7.4886,7.4886,7.4886,7.4886,7.4886,7.4886,7.4886,7.4736,7.43,7.3821,7.3778,7.3253,7.2924,7.2954,7.2757,7.2698,7.2548,7.2578,7.2548,7.2488,7.2355,7.2249,7.2159,7.183,7.1621,7.165,7.171,7.1291,7.1172,7.0919,7.0919,7.0903,7.0903,7.0903,7.0903,7.0903,7.0903,7.0903,7.0903,7.0903,7.0903,7.0903,7.0903,7.0903,7.0903,7.0873,7.0679,7.047,7.0336,7.0051,6.9692,6.9333,6.8944,6.8974,6.8914,6.8764,6.8585,6.8704,7.3642,7.4826,7.4856,7.4856,7.4886,7.4886,7.4886,7.4886,7.4886,7.4886,7.4886,7.4796,7.4796,7.4646,7.4091,7.3881,7.3762,7.3373,7.3116,7.3206,7.3313,7.3103,7.3043,7.3013,7.3043,7.2924,7.2954,7.3223,7.3881,7.4001,7.4629,7.5288,7.5497,7.5514,7.4976,7.4886,7.4886,7.4886,7.4886,7.4886,7.4886,7.4886,7.4886,7.4886,7.4886,7.4886,7.4886,7.4886,7.4886,7.4886,7.4886,7.4886,7.4886,7.4886,7.4886,7.4886,7.4886,7.4886,7.4886,7.4886,7.4886,7.4886,7.4886,7.4886,7.4766,7.436,7.4031,7.4108,7.3552,7.3163,7.3013,7.3043,7.3133,7.3223,7.3283,7.3283,7.3283,7.3043,7.2924,7.2804,7.2834,7.2834,7.2804,7.2654,7.198,7.1561,7.1098,7.0949,7.1052,7.1068,7.1128,7.0903,7.0903,7.0903,7.0903,7.0903,7.0903,7.0903,7.0903,7.0903,7.0903,7.0903,7.0889,7.0889,7.0799,7.059,7.0709,7.0783,7.026,6.9692,6.9393,6.9273,6.9123,6.9183,6.9393,7.3013,7.4227,7.4257,7.4497,7.4856,7.4886,7.4886,7.4886,7.4886,7.4886,7.4886,7.4886,7.4886,7.4796,7.4706,7.4527,7.4467,7.4467,7.421,7.418,7.4138,7.4227,7.4108,7.3778,7.3762,7.3988,7.3941,7.3881,7.4557,7.4497,7.4676,7.5245,7.5826,7.5796,7.5467,7.5215,7.4886,7.4886,7.4886,7.4886,7.4916,7.4916,7.4886,7.4886,7.4886,7.4886,7.4886,7.4886,7.4886,7.4886,7.4886,7.4886,7.4886,7.4886,7.4886,7.4886,7.4886,7.4886,7.4886,7.4886,7.4886,7.4886,7.4886,7.4886,7.4826,7.4736,7.4587,7.4527,7.421,7.4061,7.4287,7.4257,7.4317,7.4347,7.4377,7.4347,7.424,7.3821,7.3552,7.3373,7.3343,7.3163,7.3086,7.3313,7.2864,7.2638,7.2295,7.1787,7.1727,7.1577,7.1547,7.1068,7.0903,7.0903,7.0932,7.1202,7.1262,7.1232,7.1082,7.0903,7.0903,7.0962,7.0903,7.0889,7.0873,7.0903,7.0903,7.0873,7.0769,7.041,7.0081,6.9961,7.0021,7.0141,7.038,7.2654,7.3851,7.3881,7.4287,7.4826,7.4886,7.4886,7.4886,7.4886,7.4886,7.4886,7.4886,7.4886,7.4886,7.4886,7.4886,7.4886,7.4886,7.4886,7.4886,7.4886,7.4766,7.4646,7.4497,7.4467,7.4706,7.4587,7.4527,7.4796,7.4856,7.5228,7.5707,7.5976,7.6377,7.6305,7.6066,7.5647,7.5617,7.5557,7.5335,7.5245,7.5095,7.4886,7.4886,7.4886,7.4886,7.4886,7.4886,7.4886,7.4886,7.4886,7.4886,7.4886,7.4886,7.4886,7.4886,7.4886,7.4886,7.4886,7.4886,7.4886,7.4886,7.4886,7.4886,7.4886,7.4826,7.4856,7.4856,7.4886,7.4886,7.4856,7.4886,7.4886,7.4856,7.4856,7.4826,7.4736,7.427,7.4151,7.4001,7.3911,7.3642,7.3475,7.3672,7.3732,7.3642,7.3582,7.3013,7.2445,7.2265,7.2086,7.1727,7.1501,7.168,7.174,7.183,7.18,7.1637,7.1457,7.1278,7.1128,7.1188,7.1068,7.0903,7.0919,7.0919,7.0903,7.0843,7.0799,7.0799,7.0709,7.0693,7.0873,7.0903,7.0903,7.2641,7.3762,7.3868,7.4227,7.4796,7.4856,7.4886,7.4886,7.4886,7.4886,7.4886,7.4886,7.4886,7.4886,7.4886,7.4886,7.4886,7.4886,7.4886,7.4886,7.4886,7.4886,7.4886,7.4826,7.4796,7.4856,7.4796,7.4706,7.4886,7.4886,7.5467,7.6317,7.6527,7.6916,7.7113,7.7143,7.6724,7.6407,7.6108,7.5946,7.5856,7.5467,7.5335,7.5275,7.5168,7.5125,7.5065,7.4976,7.4916,7.4886,7.4886,7.4886,7.4886,7.4886,7.4886,7.4886,7.4886,7.4886,7.4886,7.4886,7.4886,7.4886,7.4886,7.4886,7.4886,7.4886,7.4886,7.4886,7.4886,7.4886,7.4886,7.4886,7.4886,7.4886,7.4886,7.4886,7.4886,7.4766,7.4766,7.4706,7.4676,7.4557,7.4467,7.4557,7.4317,7.4347,7.421,7.3941,7.3402,7.3013,7.2834,7.2595,7.2505,7.2684,7.2684,7.2458,7.2398,7.2206,7.2086,7.1906,7.1713,7.1547,7.1457,7.1338,7.1038,7.0919,7.0903,7.0903,7.0873,7.0903,7.0919,7.0903,7.0903,7.0903,7.0903,7.1713,7.2491,7.2984,7.3582,7.421,7.4706,7.4886,7.4886,7.4886,7.4886,7.4886,7.4886,7.4886,7.4886,7.4886,7.4886,7.4886,7.4886,7.4886,7.4886,7.4886,7.4886,7.4886,7.4886,7.4886,7.4886,7.4886,7.4886,7.4886,7.4886,7.5258,7.6018,7.6617,7.7155,7.7682,7.8041,7.7544,7.7065,7.6689,7.6587,7.6527,7.6228,7.6125,7.6036,7.5736,7.5647,7.5574,7.5215,7.5065,7.4946,7.4916,7.4916,7.4886,7.4886,7.4886,7.4886,7.4886,7.4886,7.4886,7.4916,7.4976,7.5065,7.5006,7.4886,7.4886,7.4946,7.4946,7.4886,7.4916,7.4916,7.5035,7.5065,7.5155,7.5215,7.5245,7.5228,7.5245,7.5245,7.5245,7.5065,7.5035,7.4886,7.4886,7.4856,7.4646,7.4796,7.4796,7.4557,7.4287,7.3851,7.3582,7.3343,7.3253,7.3343,7.3103,7.2847,7.2864,7.2804,7.2714,7.2624,7.2535,7.2325,7.2086,7.1787,7.1517,7.1188,7.0903,7.0992,7.1321,7.1009,7.0979,7.0949,7.0903,7.0932,7.0932,7.1294,7.1923,7.2325,7.3043,7.3911,7.4616,7.4886,7.4886,7.4886,7.4886,7.4886,7.4886,7.4886,7.4886,7.4886,7.4886,7.4886,7.4886,7.4886,7.4886,7.4886,7.4886,7.4886,7.4886,7.4886,7.4886,7.4886,7.4886,7.4886,7.4946,7.5245,7.5899,7.6497,7.7125,7.7771,7.828,7.834,7.7813,7.7394,7.7245,7.7125,7.6976,7.6826,7.6796,7.6407,7.6335,7.6245,7.5736,7.5557,7.5335,7.5305,7.5125,7.5035,7.4886,7.5155,7.5215,7.5347,7.5527,7.5707,7.5766,7.5677,7.5617,7.5587,7.5707,7.5437,7.5318,7.5095,7.4886,7.4916,7.4993,7.5155,7.5335,7.5497,7.5647,7.5677,7.5677,7.5707,7.5724,7.5544,7.5335,7.5155,7.4946,7.4886,7.4886,7.4886,7.4886,7.4886,7.4796,7.4676,7.4467,7.424,7.4091,7.3941,7.3881,7.3612,7.3492,7.3642,7.3642,7.3432,7.3343,7.3313,7.2967,7.2548,7.2295,7.2056,7.1816,7.1621,7.174,7.1906,7.1607,7.1547,7.1757,7.1607,7.1158,7.1098,7.1248,7.1803,7.1863,7.2701,7.3898,7.4527,7.4826,7.4886,7.4886,7.4886,7.4886,7.4886,7.4886,7.4886,7.4886,7.4886,7.4886,7.4886,7.4886,7.4886,7.4886,7.4886,7.4886,7.4886,7.4886,7.4886,7.4886,7.4886,7.4886,7.4946,7.5185,7.5826,7.6347,7.6916,7.7562,7.822,7.84,7.846,7.81,7.7843,7.7724,7.7365,7.6928,7.7035,7.6976,7.6886,7.6856,7.6736,7.6557,7.6168,7.5869,7.5647,7.5407,7.5258,7.5557,7.5766,7.5946,7.6155,7.6377,7.6467,7.6557,7.6617,7.6796,7.6587,7.6185,7.5826,7.5557,7.5497,7.5557,7.5677,7.5856,7.5946,7.6048,7.6198,7.6275,7.6288,7.6305,7.6245,7.6066,7.5796,7.5437,7.5245,7.4886,7.4886,7.4886,7.4886,7.4886,7.4886,7.4856,7.4796,7.4736,7.4616,7.4497,7.4377,7.4437,7.4377,7.4587,7.4527,7.4197,7.4061,7.3971,7.3552,7.2997,7.2817,7.2654,7.2684,7.2624,7.2565,7.2458,7.2505,7.2505,7.2744,7.2445,7.1846,7.1637,7.1009,7.1188,7.1667,7.2654,7.3821,7.4061,7.4437,7.4886,7.4886,7.4886,7.4886,7.4886,7.4886,7.4886,7.4886,7.4886,7.4886,7.4886,7.4886,7.4886,7.4886,7.4886,7.4886,7.4886,7.4886,7.4886,7.4886,7.4886,7.4886,7.4916,7.4963,7.5215,7.5826,7.6527,7.7155,7.7801,7.828,7.8747,7.8609,7.843,7.837,7.846,7.831,7.813,7.7933,7.7622,7.7424,7.7095,7.6856,7.6587,7.6587,7.6467,7.6377,7.6317,7.6407,7.6557,7.6617,7.6766,7.6916,7.7035,7.7065,7.6946,7.6916,7.6856,7.6676,7.6467,7.6347,7.6317,7.6288,7.6377,7.6509,7.6587,7.6676,7.6826,7.6916,7.6916,7.6916,7.6736,7.6587,7.6228,7.5856,7.5497,7.5155,7.4976,7.4886,7.4886,7.4886,7.4886,7.4886,7.4856,7.4856,7.4766,7.4796,7.4796,7.4886,7.4886,7.4886,7.4886,7.4616,7.4587,7.4616,7.4151,7.3642,7.3462,7.3343,7.3343,7.3253,7.2907,7.2907,7.3163,7.3223,7.3373,7.3223,7.2714,7.2595,7.0903,7.0979,7.1607,7.2312,7.3013,7.3629,7.4138,7.4467,7.4766,7.4886,7.4886,7.4886,7.4886,7.4886,7.4886,7.4886,7.4886,7.4886,7.4886,7.4886,7.4886,7.4886,7.4886,7.4869,7.4886,7.4886,7.4886,7.4886,7.4886,7.4886,7.4916,7.5006,7.5557,7.6168,7.6796,7.7454,7.8083,7.8777,7.8741,7.8771,7.8771,7.8789,7.8789,7.8609,7.8489,7.822,7.816,7.7831,7.7574,7.7215,7.6976,7.6796,7.6706,7.6706,7.6898,7.7155,7.7275,7.7365,7.7544,7.7604,7.7592,7.7592,7.7652,7.7831,7.7861,7.7652,7.7095,7.7006,7.6647,7.6676,7.7095,7.7275,7.7574,7.7801,7.7891,7.7951,7.7771,7.7514,7.7335,7.7095,7.6694,7.6258,7.6006,7.6006,7.5826,7.5437,7.5347,7.5125,7.5065,7.5035,7.5006,7.4916,7.4946,7.4916,7.4886,7.4886,7.4886,7.4886,7.4886,7.4826,7.4736,7.4557,7.43,7.4091,7.4001,7.4048,7.3851,7.3612,7.3732,7.4078,7.4018,7.3958,7.3732,7.3612,7.3612,7.0563,7.0748,7.1258,7.1619,7.1891,7.302,7.3587,7.3784,7.4343,7.4616,7.4557,7.4646,7.4813,7.4886,7.4886,7.4886,7.4886,7.4886,7.4886,7.4886,7.4886,7.48,7.4749,7.4783,7.4749,7.4749,7.4749,7.4817,7.4886,7.4886,7.4946,7.5035,7.5467,7.6031,7.6654,7.7246,7.776,7.8214,7.8405,7.8632,7.8717,7.8771,7.8789,7.8789,7.8789,7.8789,7.8807,7.8687,7.84,7.8071,7.7562,7.7442,7.7335,7.7394,7.7544,7.7801,7.7951,7.819,7.846,7.8519,7.8579,7.8669,7.8789,7.8777,7.8747,7.846,7.7903,7.7604,7.7245,7.7245,7.7694,7.7981,7.831,7.8519,7.8627,7.8687,7.843,7.819,7.8011,7.7801,7.7394,7.6946,7.6796,7.6796,7.6557,7.6155,7.5886,7.5604,7.5425,7.5365,7.5335,7.5155,7.5035,7.5006,7.4916,7.4886,7.4886,7.4886,7.4886,7.4886,7.4856,7.4706,7.4676,7.4736,7.4676,7.4557,7.4587,7.4467,7.4676,7.4706,7.4587,7.4407,7.4437,7.4377,7.4587,6.9207,6.9253,6.9638,7.0095,7.0691,7.1507,7.2178,7.2687,7.3072,7.3283,7.3404,7.3907,7.4347,7.4869,7.4886,7.4852,7.48,7.4817,7.4869,7.4886,7.468,7.4577,7.4404,7.4196,7.4352,7.4352,7.4335,7.4577,7.4525,7.4697,7.4852,7.4877,7.4877,7.5277,7.5623,7.6224,7.6765,7.7256,7.7874,7.8172,7.8318,7.8463,7.8771,7.8789,7.8789,7.8789,7.8807,7.8807,7.8747,7.8627,7.8448,7.828,7.822,7.816,7.831,7.831,7.846,7.8549,7.8759,7.8789,7.8789,7.8789,7.8789,7.8789,7.8777,7.8777,7.843,7.843,7.819,7.819,7.8489,7.8489,7.8699,7.8699,7.8777,7.8777,7.8639,7.8519,7.84,7.813,7.7783,7.7394,7.7018,7.7035,7.6976,7.6706,7.6647,7.6377,7.6155,7.5946,7.5707,7.5527,7.5335,7.5006,7.4886,7.4886,7.4886,7.4886,7.4886,7.4886,7.4886,7.4886,7.4886,7.4886,7.4886,7.4796,7.4886,7.4886,7.4886,7.4826,7.4856,7.4826,7.4886,7.4886,7.4886]},{"header":{"parameterUnit":"m.s-1","parameterCategory":1,"la1":31.0,"la2":29.5877,"lo1":-88.7671,"lo2":-86.6584,"dy":0.0162,"dx":0.0185,"nx":115,"ny":88,"refTime":"2026-04-04T12:00:00:Z","depth":0,"parameterNumber":3,"parameterNumberName":"V-component_of_WINDS"},"data":[0.0,0.0,0.0,0.0,0.0,0.0,0.0,0.0,0.0,0.0,0.0,0.0,0.0,0.0,0.0,0.0,0.0,0.0,0.0,0.0,0.0,0.0,0.0,0.0,0.0,0.0,0.0,0.0,0.0,0.0,0.0,0.0,0.0,0.0,0.0,0.0,0.0,0.0,0.0,0.0,0.0,0.0,0.0,0.0,0.0,0.0,0.0,0.0,0.0,0.0,0.0,0.0,0.0,0.0,0.0,0.0,0.0,0.0,0.0,0.0,0.0,0.0,0.0,0.0,0.0,0.0,0.0,0.0,0.0,0.0,0.0,0.0,0.0,0.0,0.0,0.0,0.0,0.0,0.0,0.0,0.0,0.0,0.0,0.0,0.0,0.0,0.0,0.0,0.0,0.0,0.0,0.0,0.0,0.0,0.0,0.0,0.0,0.0,0.0,0.0,0.0,0.0,0.0,0.0,0.0,0.0,0.0,0.0,0.0,0.0,0.0,0.0,0.0,0.0,0.0,0.0,0.0,0.0,0.0,0.0,0.0,0.0,0.0,0.0,0.0,0.0,0.0,0.0,0.0,0.0,0.0,0.0,0.0,0.0,0.0,0.0,0.0,0.0,0.0,0.0,0.0,0.0,0.0,0.0,0.0,0.0,0.0,0.0,0.0,0.0,0.0,0.0,0.0,0.0,0.0,0.0,0.0,0.0,0.0,0.0,0.0,0.0,0.0,0.0,0.0,0.0,0.0,0.0,0.0,0.0,0.0,0.0,0.0,0.0,0.0,0.0,0.0,0.0,0.0,0.0,0.0,0.0,0.0,0.0,0.0,0.0,0.0,0.0,0.0,0.0,0.0,0.0,0.0,0.0,0.0,0.0,0.0,0.0,0.0,0.0,0.0,0.0,0.0,0.0,0.0,0.0,0.0,0.0,0.0,0.0,0.0,0.0,0.0,0.0,0.0,0.0,0.0,0.0,0.0,0.0,0.0,0.0,0.0,0.0,0.0,0.0,0.0,0.0,0.0,0.0,0.0,0.0,0.0,0.0,0.0,0.0,0.0,0.0,0.0,0.0,0.0,0.0,0.0,0.0,0.0,0.0,0.0,0.0,0.0,0.0,0.0,0.0,0.0,0.0,0.0,0.0,0.0,0.0,0.0,0.0,0.0,0.0,0.0,0.0,0.0,0.0,0.0,0.0,0.0,0.0,0.0,0.0,0.0,0.0,0.0,0.0,0.0,0.0,0.0,0.0,0.0,0.0,0.0,0.0,0.0,0.0,0.0,0.0,0.0,0.0,0.0,0.0,0.0,0.0,0.0,0.0,0.0,0.0,0.0,0.0,0.0,0.0,0.0,0.0,0.0,0.0,0.0,0.0,0.0,0.0,0.0,0.0,0.0,0.0,0.0,0.0,0.0,0.0,0.0,0.0,0.0,0.0,0.0,0.0,0.0,0.0,0.0,0.0,0.0,0.0,0.0,0.0,0.0,0.0,0.0,0.0,0.0,0.0,0.0,0.0,0.0,0.0,0.0,0.0,0.0,0.0,0.0,0.0,0.0,0.0,0.0,0.0,0.0,0.0,0.0,0.0,0.0,0.0,0.0,0.0,0.0,0.0,0.0,0.0,0.0,0.0,0.0,0.0,0.0,0.0,0.0,0.0,0.0,0.0,0.0,0.0,0.0,0.0,0.0,0.0,0.0,0.0,0.0,0.0,0.0,0.0,0.0,0.0,0.0,0.0,0.0,0.0,0.0,0.0,0.0,0.0,0.0,0.0,0.0,0.0,0.0,0.0,0.0,0.0,0.0,0.0,0.0,0.0,0.0,0.0,0.0,0.0,0.0,0.0,0.0,0.0,0.0,0.0,0.0,0.0,0.0,0.0,0.0,0.0,0.0,0.0,0.0,0.0,0.0,0.0,0.0,0.0,0.0,0.0,0.0,0.0,0.0,0.0,0.0,0.0,0.0,0.0,0.0,0.0,0.0,0.0,0.0,0.0,0.0,0.0,0.0,0.0,0.0,0.0,0.0,0.0,0.0,0.0,0.0,0.0,0.0,0.0,0.0,0.0,0.0,0.0,0.0,0.0,0.0,0.0,0.0,0.0,0.0,0.0,0.0,0.0,0.0,0.0,0.0,0.0,0.0,0.0,0.0,0.0,0.0,0.0,0.0,0.0,0.0,0.0,0.0,0.0,0.0,0.0,0.0,0.0,0.0,0.0,0.0,0.0,0.0,0.0,0.0,0.0,0.0,0.0,0.0,0.0,0.0,0.0,0.0,0.0,0.0,0.0,0.0,0.0,0.0,0.0,0.0,0.0,0.0,0.0,0.0,0.0,0.0,0.0,0.0,0.0,0.0,0.0,0.0,0.0,0.0,0.0,0.0,0.0,0.0,0.0,0.0,0.0,0.0,0.0,0.0,0.0,0.0,0.0,0.0,0.0,0.0,0.0,0.0,0.0,0.0,0.0,0.0,0.0,0.0,0.0,0.0,0.0,0.0,0.0,0.0,0.0,0.0,0.0,0.0,0.0,0.0,0.0,0.0,0.0,0.0,0.0,0.0,0.0,0.0,0.0,0.0,0.0,0.0,0.0,0.0,0.0,0.0,0.0,0.0,0.0,0.0,0.0,0.0,0.0,0.0,0.0,0.0,0.0,0.0,0.0,0.0,0.0,0.0,0.0,0.0,0.0,0.0,0.0,0.0,0.0,0.0,0.0,0.0,0.0,0.0,0.0,0.0,0.0,0.0,0.0,0.0,0.0,0.0,0.0,0.0,0.0,0.0,0.0,0.0,0.0,0.0,0.0,0.0,0.0,0.0,0.0,0.0,0.0,0.0,0.0,0.0,0.0,0.0,0.0,0.0,0.0,0.0,0.0,0.0,0.0,0.0,0.0,0.0,0.0,0.0,0.0,0.0,0.0,0.0,0.0,0.0,0.0,0.0,0.0,0.0,0.0,0.0,0.0,0.0,0.0,0.0,0.0,0.0,0.0,0.0,0.0,0.0,0.0,0.0,0.0,0.0,0.0,0.0,0.0,0.0,0.0,0.0,0.0,0.0,0.0,0.0,0.0,0.0,0.0,0.0,0.0,0.0,0.0,0.0,0.0,0.0,0.0,0.0,0.0,0.0,0.0,0.0,0.0,0.0,0.0,0.0,0.0,0.0,0.0,0.0,0.0,0.0,0.0,0.0,0.0,0.0,0.0,0.0,0.0,0.0,0.0,0.0,0.0,0.0,0.0,0.0,0.0,0.0,0.0,0.0,0.0,0.0,0.0,0.0,0.0,0.0,0.0,0.0,0.0,0.0,0.0,0.0,0.0,0.0,0.0,0.0,0.0,0.0,0.0,0.0,0.0,0.0,0.0,0.0,0.0,0.0,0.0,0.0,0.0,0.0,0.0,0.0,0.0,0.0,0.0,0.0,0.0,0.0,0.0,0.0,0.0,0.0,0.0,0.0,0.0,0.0,0.0,0.0,0.0,0.0,0.0,0.0,0.0,0.0,0.0,0.0,0.0,0.0,0.0,0.0,0.0,0.0,0.0,0.0,0.0,0.0,0.0,0.0,0.0,0.0,0.0,0.0,0.0,0.0,0.0,0.0,0.0,0.0,0.0,0.0,0.0,0.0,0.0,0.0,0.0,0.0,0.0,0.0,0.0,0.0,0.0,0.0,0.0,0.0,0.0,0.0,0.0,0.0,0.0,0.0,0.0,0.0,0.0,0.0,0.0,0.0,0.0,0.0,0.0,0.0,0.0,0.0,0.0,0.0,0.0,0.0,0.0,0.0,0.0,0.0,0.0,0.0,0.0,0.0,0.0,0.0,0.0,0.0,0.0,0.0,0.0,0.0,0.0,0.0,0.0,0.0,0.0,0.0,0.0,0.0,0.0,0.0,0.0,0.0,0.0,0.0,0.0,0.0,0.0,0.0,0.0,0.0,0.0,0.0,0.0,0.0,0.0,0.0,0.0,0.0,0.0,0.0,0.0,0.0,0.0,0.0,0.0,0.0,0.0,0.0,0.0,0.0,0.0,0.0,0.0,0.0,0.0,0.0,0.0,0.0,0.0,0.0,0.0,0.0,0.0,0.0,0.0,0.0,0.0,0.0,0.0,0.0,0.0,0.0,0.0,0.0,0.0,0.0,0.0,0.0,0.0,0.0,0.0,0.0,0.0,0.0,0.0,0.0,0.0,0.0,0.0,0.0,0.0,0.0,0.0,0.0,0.0,0.0,0.0,0.0,0.0,0.0,0.0,0.0,0.0,0.0,0.0,0.0,0.0,0.0,0.0,0.0,0.0,1.0119,0.0,0.0,0.0,0.0,0.0,0.0,0.0,0.0,0.0,0.0,0.0,0.0,0.0,0.0,0.0,0.0,0.0,0.0,0.0,0.0,0.0,0.0,0.0,0.0,0.0,0.0,0.0,0.0,0.0,0.0,0.0,0.0,0.0,0.0,0.0,0.0,0.0,0.0,0.0,0.0,0.0,0.0,0.0,0.0,0.0,0.0,0.0,0.0,0.0,0.0,0.0,0.0,0.0,0.0,0.0,0.0,0.0,0.0,0.0,0.0,0.0,0.0,0.0,0.0,0.0,0.0,0.0,0.0,0.0,0.0,0.0,0.0,0.0,0.0,0.0,0.0,0.0,0.0,0.0,0.0,0.0,0.0,0.0,0.0,0.0,0.0,0.0,0.0,0.0,0.0,0.0,0.0,0.0,0.0,0.0,0.0,0.0,0.0,0.0,0.0,0.0,0.0,0.0,0.0,0.0,0.0,0.0,0.0,0.0,0.0,1.0667,1.0819,1.0674,1.0592,1.0595,0.0,0.0,0.0,0.0,0.0,0.0,0.0,0.0,0.0,0.0,0.0,0.0,0.0,0.0,0.0,0.0,0.0,0.0,0.0,0.0,0.0,0.0,0.0,0.0,0.0,0.0,0.0,0.0,0.0,0.0,0.0,0.0,0.0,0.0,0.0,0.0,0.0,0.0,0.0,0.0,0.0,0.0,0.0,0.0,0.0,0.0,0.0,0.0,0.0,0.0,0.0,0.0,0.0,0.0,0.0,0.0,0.0,0.0,0.0,0.0,0.0,0.0,0.0,0.0,0.0,0.0,0.0,0.0,0.0,0.0,0.0,0.0,0.0,0.0,0.0,0.0,0.0,0.0,0.0,0.0,0.0,0.0,0.0,0.0,0.0,0.0,0.0,0.0,0.0,0.0,0.0,0.0,0.0,0.0,0.0,0.0,0.0,0.0,0.0,0.0,0.0,0.0,0.0,0.0,0.0,0.0,0.0,0.0,0.0,0.0,0.0,0.0,1.0891,1.0859,1.0985,0.0,0.0,0.0,0.0,0.0,0.0,0.0,0.0,0.0,0.0,0.0,0.0,0.0,0.0,0.0,0.0,0.0,0.0,0.0,0.0,0.0,0.0,0.0,0.0,0.0,0.0,0.0,0.0,0.0,0.0,0.0,0.0,0.0,0.0,0.0,0.0,0.0,0.0,0.0,0.0,0.0,0.0,0.0,0.0,0.0,0.0,0.0,0.0,0.0,0.0,0.0,0.0,0.0,0.0,0.0,0.0,0.0,0.0,0.0,0.0,0.0,0.0,0.0,0.0,0.0,0.0,0.0,0.0,0.0,0.0,0.0,0.0,0.0,0.0,0.0,0.0,0.0,0.0,0.0,0.0,0.0,0.0,0.0,0.0,0.0,0.0,0.0,0.0,0.0,0.0,0.0,0.0,0.0,0.0,0.0,0.0,0.0,0.0,0.0,0.0,0.0,0.0,0.0,0.0,0.0,0.0,0.0,0.0,0.0,0.0,1.1081,1.1352,1.1331,0.0,1.1012,0.0,0.0,0.0,0.0,0.0,0.0,0.0,0.0,0.0,0.0,0.0,0.0,0.0,0.0,0.0,0.0,0.0,0.0,0.0,0.0,0.0,0.0,0.0,0.0,0.0,0.0,0.0,0.0,0.0,0.0,0.0,0.0,0.0,0.0,0.0,0.0,0.0,0.0,0.0,0.0,0.0,0.0,0.0,0.0,0.0,0.0,0.0,0.0,0.0,0.0,0.0,0.0,0.0,0.0,0.0,0.0,0.0,0.0,0.0,0.0,0.0,0.0,0.0,0.0,0.0,0.0,0.0,0.0,0.0,0.0,0.0,0.0,0.0,0.0,0.0,0.0,0.0,0.0,0.0,0.0,0.0,0.0,0.0,0.0,0.0,0.0,0.0,0.0,0.0,0.0,0.0,0.0,0.0,0.0,0.0,0.0,0.0,0.0,0.0,0.0,0.0,0.0,0.0,0.0,0.0,0.0,0.0,0.0,0.0,0.0,0.0,1.1686,1.1699,1.1463,0.0,0.0,0.0,0.0,0.0,0.0,0.0,0.0,0.0,0.0,0.0,0.0,0.0,0.0,0.0,0.0,0.0,0.0,0.0,0.0,0.0,0.0,0.0,0.0,0.0,0.0,0.0,0.0,0.0,0.0,0.0,0.0,0.0,0.0,0.0,0.0,0.0,0.0,0.0,0.0,0.0,0.0,0.0,0.0,0.0,0.0,0.0,0.0,0.0,0.0,0.0,0.0,0.0,0.0,0.0,0.0,0.0,0.0,0.0,0.0,0.0,0.0,0.0,0.0,0.0,0.0,0.0,0.0,0.0,0.0,0.0,0.0,0.0,0.0,0.0,0.0,0.0,0.0,0.0,0.0,0.0,0.0,0.0,0.0,0.0,0.0,0.0,0.0,0.0,0.0,0.0,0.0,0.0,0.0,0.0,0.0,0.0,0.0,0.0,0.0,0.0,0.0,0.0,0.0,0.0,0.0,0.0,0.0,0.0,0.0,1.1204,0.0,1.1971,1.1931,1.1663,1.1129,0.0,0.0,0.0,0.0,0.0,0.0,0.0,0.0,0.0,0.0,0.0,0.0,0.0,0.0,0.0,0.0,0.0,0.0,0.0,0.0,0.0,0.0,0.0,0.0,0.0,0.0,0.0,0.0,0.0,0.0,0.0,0.0,0.0,0.0,0.0,0.0,0.0,0.0,0.0,0.0,0.0,0.0,0.0,0.0,0.0,0.0,0.0,0.0,0.0,0.0,0.0,0.0,0.0,0.0,0.0,0.0,0.0,0.0,0.0,0.0,0.0,0.0,0.0,0.0,0.0,0.0,0.0,0.0,0.0,0.0,0.0,0.0,0.0,0.0,0.0,0.0,0.0,0.0,0.0,0.0,0.0,0.0,0.0,0.0,0.0,0.0,0.0,0.0,0.0,0.0,0.0,0.0,0.0,0.0,0.0,0.0,0.0,0.0,0.0,0.0,0.0,0.0,0.0,0.0,0.0,0.0,0.0,0.0,0.0,1.1686,1.198,1.2274,1.2029,1.1743,0.0,0.0,0.0,0.0,0.0,0.0,0.0,0.0,0.0,0.0,0.0,0.0,0.0,0.0,0.0,0.0,0.0,0.0,0.0,0.0,0.0,0.0,0.0,0.0,0.0,0.0,0.0,0.0,0.0,0.0,0.0,0.0,0.0,0.0,0.0,0.0,0.0,0.0,0.0,0.0,0.0,0.0,0.0,0.0,0.0,0.0,0.0,0.0,0.0,0.0,0.0,0.0,0.0,0.0,0.0,0.0,0.0,0.0,0.0,0.0,0.0,0.0,0.0,0.0,0.0,0.0,0.0,0.0,0.0,0.0,0.0,0.0,0.0,0.0,0.0,0.0,0.0,0.0,0.0,0.0,0.0,0.0,0.0,0.0,0.0,0.0,0.0,0.0,0.0,0.0,0.0,0.0,0.0,0.0,0.0,0.0,0.0,0.0,0.0,0.0,0.0,0.0,0.0,0.0,0.0,0.0,0.0,0.0,0.0,1.1406,1.1895,1.231,1.2587,1.2154,1.1739,0.0,0.0,0.0,0.0,0.0,0.0,0.0,0.0,0.0,0.0,0.0,0.0,0.0,0.0,0.0,0.0,0.0,0.0,0.0,0.0,0.0,0.0,0.0,0.0,0.0,0.0,0.0,0.0,0.0,0.0,0.0,0.0,0.0,0.0,0.0,0.0,0.0,0.0,0.0,0.0,0.0,0.0,0.0,0.0,0.0,0.0,0.0,0.0,0.0,0.0,0.0,0.0,0.0,0.0,0.0,0.0,0.0,0.0,0.0,0.0,0.0,0.0,0.0,0.0,0.0,0.0,0.0,0.0,0.0,0.0,0.0,0.0,0.0,0.0,0.0,0.0,0.0,0.0,0.0,0.0,0.0,0.0,0.0,0.0,0.0,0.0,0.0,0.0,0.0,0.0,0.0,0.0,0.0,0.0,0.0,0.0,0.0,0.0,0.0,0.0,0.0,0.0,0.0,0.0,0.0,0.0,0.0,0.0,0.0,1.1859,0.0,1.2658,0.0,1.2217,1.1739,0.0,0.0,0.0,0.0,0.0,0.0,0.0,0.0,0.0,0.0,0.0,0.0,0.0,0.0,0.0,0.0,0.0,0.0,0.0,0.0,0.0,0.0,0.0,0.0,0.0,0.0,0.0,0.0,0.0,0.0,0.0,0.0,0.0,0.0,0.0,0.0,0.0,0.0,0.0,0.0,0.0,0.0,0.0,0.0,0.0,0.0,0.0,0.0,0.0,0.0,0.0,0.0,0.0,0.0,0.0,0.0,0.0,0.0,0.0,0.0,0.0,0.0,0.0,0.0,0.0,0.0,0.0,0.0,0.0,0.0,0.0,0.0,0.0,0.0,0.0,0.0,0.0,0.0,0.0,0.0,0.0,0.0,0.0,0.0,0.0,0.0,0.0,0.0,0.0,0.0,0.0,0.0,0.0,0.0,0.0,0.0,0.0,0.0,0.0,0.0,0.0,0.0,0.0,0.0,0.0,0.0,0.0,0.0,1.1891,1.2766,1.3072,1.3103,1.283,1.2261,1.1761,0.0,0.0,0.0,0.0,0.0,0.0,0.0,0.0,0.0,0.0,0.0,0.0,0.0,0.0,0.0,0.0,0.0,0.0,0.0,0.0,0.0,0.0,0.0,0.0,0.0,0.0,0.0,0.0,0.0,0.0,0.0,0.0,0.0,0.0,0.0,0.0,0.0,0.0,0.0,0.0,0.0,0.0,0.0,0.0,0.0,0.0,0.0,0.0,0.0,0.0,0.0,0.0,0.0,0.0,0.0,0.0,0.0,0.0,0.0,0.0,0.0,0.0,0.0,0.0,0.0,0.0,0.0,0.0,0.0,0.0,0.0,0.0,0.0,0.0,0.0,0.0,0.0,0.0,0.0,0.0,0.0,0.0,0.0,0.0,0.0,0.0,0.0,0.0,0.0,0.0,0.0,0.0,0.0,0.0,0.0,0.0,0.0,0.0,0.0,0.0,0.0,0.0,0.0,0.0,0.0,0.0,0.0,0.0,0.0,1.3685,1.3771,1.3868,1.3945,1.3029,1.2265,0.0,0.0,0.0,0.0,0.0,0.0,0.0,0.0,0.0,0.0,0.0,0.0,0.0,0.0,0.0,0.0,0.0,0.0,0.0,0.0,0.0,0.0,0.0,0.0,0.0,0.0,0.0,0.0,0.0,0.0,0.0,0.0,0.0,0.0,0.0,0.0,0.0,0.0,0.0,0.0,0.0,0.0,0.0,0.0,0.0,0.0,0.0,0.0,0.0,0.0,0.0,0.0,0.0,0.0,0.0,0.0,0.0,0.0,0.0,0.0,0.0,0.0,0.0,0.0,0.0,0.0,0.0,0.0,0.0,0.0,0.0,0.0,0.0,0.0,0.0,0.0,0.0,0.0,0.0,0.0,0.0,0.0,0.0,0.0,0.0,0.0,0.0,0.0,0.0,0.0,0.0,0.0,0.0,0.0,0.0,0.0,0.0,0.0,0.0,0.0,0.0,0.0,0.0,0.0,0.0,0.0,0.0,0.0,0.0,1.5213,1.5039,1.4937,1.497,1.3975,1.3055,1.2248,0.0,0.0,0.0,0.0,0.0,0.0,0.0,0.0,0.0,0.0,0.0,0.0,0.0,0.0,0.0,0.0,0.0,0.0,0.0,0.0,0.0,0.0,0.0,0.0,0.0,0.0,0.0,0.0,0.0,0.0,0.0,0.0,0.0,0.0,0.0,0.0,0.0,0.0,0.0,0.0,0.0,0.0,0.0,0.0,0.0,0.0,0.0,0.0,0.0,0.0,0.0,0.0,0.0,0.0,0.0,0.0,0.0,0.0,0.0,0.0,0.0,0.0,0.0,0.0,0.0,0.0,0.0,0.0,0.0,0.0,0.0,0.0,0.0,0.0,0.0,0.0,0.0,0.0,0.0,0.0,0.0,0.0,0.0,0.0,0.0,0.0,0.0,0.0,0.0,0.0,0.0,0.0,0.0,0.0,0.0,0.0,0.0,0.0,0.0,0.0,0.0,0.0,0.0,0.0,0.0,0.0,0.0,0.0,1.7285,1.6828,1.6401,1.598,1.5097,1.4065,0.0,0.0,0.0,0.0,0.0,0.0,0.0,0.0,0.0,0.0,0.0,0.0,0.0,0.0,0.0,0.0,0.0,0.0,0.0,0.0,0.0,0.0,0.0,0.0,0.0,0.0,0.0,0.0,0.0,0.0,0.0,0.0,0.0,0.0,0.0,0.0,0.0,0.0,0.0,0.0,0.0,0.0,0.0,0.0,0.0,0.0,0.0,0.0,0.0,0.0,0.0,0.0,0.0,0.0,0.0,0.0,0.0,0.0,0.0,0.0,0.0,0.0,0.0,0.0,0.0,0.0,0.0,0.0,0.0,0.0,0.0,0.0,0.0,0.0,0.0,0.0,0.0,0.0,0.0,0.0,0.0,0.0,0.0,0.0,0.0,0.0,0.0,0.0,0.0,0.0,0.0,0.0,0.0,0.0,0.0,0.0,0.0,0.0,0.0,0.0,0.0,0.0,0.0,0.0,0.0,0.0,0.0,0.0,0.0,1.8751,1.957,1.9291,1.7836,1.6711,1.545,0.0,0.0,0.0,0.0,0.0,0.0,0.0,0.0,0.0,0.0,0.0,0.0,0.0,0.0,0.0,0.0,0.0,0.0,0.0,0.0,0.0,0.0,0.0,0.0,0.0,0.0,0.0,0.0,0.0,0.0,0.0,0.0,0.0,0.0,0.0,0.0,0.0,0.0,0.0,0.0,0.0,0.0,0.0,0.0,0.0,0.0,0.0,0.0,0.0,0.0,0.0,0.0,0.0,0.0,0.0,0.0,0.0,0.0,0.0,0.0,0.0,0.0,0.0,0.0,0.0,0.0,0.0,0.0,0.0,0.0,0.0,0.0,0.0,0.0,0.0,0.0,0.0,0.0,0.0,0.0,0.0,0.0,0.0,0.0,0.0,0.0,0.0,0.0,0.0,0.0,0.0,0.0,0.0,0.0,0.0,0.0,0.0,0.0,0.0,0.0,0.0,0.0,0.0,0.0,0.0,0.0,0.0,0.0,1.8906,2.1203,2.2257,2.231,2.1344,1.9187,1.7308,0.0,0.0,0.0,0.0,0.0,0.0,0.0,0.0,0.0,0.0,0.0,0.0,0.0,0.0,0.0,0.0,0.0,0.0,0.0,0.0,0.0,0.0,0.0,0.0,0.0,0.0,0.0,0.0,0.0,0.0,0.0,0.0,0.0,0.0,0.0,0.0,0.0,0.0,0.0,0.0,0.0,0.0,0.0,0.0,0.0,0.0,0.0,0.0,0.0,0.0,0.0,0.0,0.0,0.0,0.0,0.0,0.0,0.0,0.0,0.0,0.0,0.0,0.0,0.0,0.0,0.0,0.0,0.0,0.0,0.0,0.0,0.0,0.0,0.0,0.0,0.0,0.0,0.0,0.0,0.0,0.0,0.0,0.0,0.0,0.0,0.0,0.0,0.0,0.0,0.0,0.0,0.0,0.0,0.0,0.0,0.0,0.0,0.0,0.0,0.0,0.0,0.0,0.0,0.0,0.0,0.0,0.0,0.0,2.1106,2.3974,2.4781,2.5293,2.551,2.2095,1.9405,0.0,0.0,0.0,0.0,0.0,0.0,0.0,0.0,0.0,0.0,0.0,0.0,0.0,0.0,0.0,0.0,0.0,0.0,0.0,0.0,0.0,0.0,0.0,0.0,0.0,0.0,0.0,0.0,0.0,0.0,0.0,0.0,0.0,0.0,0.0,0.0,0.0,0.0,0.0,0.0,0.0,0.0,0.0,0.0,0.0,0.0,0.0,0.0,0.0,0.0,0.0,0.0,0.0,0.0,0.0,0.0,0.0,0.0,0.0,0.0,0.0,0.0,0.0,0.0,0.0,0.0,0.0,0.0,0.0,0.0,0.0,0.0,0.0,0.0,0.0,0.0,0.0,0.0,0.0,0.0,0.0,0.0,0.0,0.0,0.0,0.0,0.0,0.0,0.0,0.0,0.0,0.0,0.0,0.0,0.0,0.0,0.0,0.0,0.0,0.0,0.0,0.0,0.0,0.0,0.0,0.0,0.0,0.0,2.287,2.5611,2.6903,2.7851,2.8472,2.4304,2.11,0.0,0.0,0.0,0.0,0.0,0.0,0.0,0.0,0.0,0.0,0.0,0.0,0.0,0.0,0.0,0.0,0.0,0.0,0.0,0.0,0.0,0.0,0.0,0.0,0.0,0.0,0.0,0.0,0.0,0.0,0.0,0.0,0.0,0.0,0.0,0.0,0.0,0.0,0.0,0.0,0.0,0.0,0.0,0.0,0.0,0.0,0.0,0.0,1.0343,0.0,0.0,0.0,0.0,0.0,0.0,0.0,0.0,0.0,0.0,0.0,0.0,0.0,0.0,0.0,0.0,0.0,0.0,0.0,0.0,0.0,0.0,0.0,0.0,0.0,0.0,0.0,0.0,0.0,0.0,0.0,0.0,0.0,0.0,0.0,0.0,0.0,0.0,0.0,0.0,0.0,0.0,0.0,0.0,0.0,0.0,0.0,0.0,0.0,0.0,0.0,0.0,0.0,0.0,0.0,0.0,0.0,0.0,0.0,2.5127,2.805,2.9375,3.023,3.047,2.7367,2.4316,0.0,0.0,0.0,0.0,0.0,0.0,0.0,0.0,0.0,0.0,0.0,0.0,0.0,0.0,0.0,0.0,0.0,0.0,0.0,0.0,0.0,0.0,0.0,0.0,0.0,0.0,0.0,0.0,0.0,0.0,0.0,0.0,0.0,0.0,0.0,0.0,0.0,0.0,0.0,0.0,0.0,0.0,0.0,0.0,0.0,0.0,0.0,0.0,0.0,0.0,0.0,0.0,0.0,0.0,0.0,0.0,0.0,0.0,0.0,0.0,0.0,0.0,0.0,0.0,0.0,0.0,0.0,0.0,0.0,0.0,0.0,0.0,0.0,0.0,0.0,0.0,0.0,0.0,0.0,0.0,0.0,0.0,0.0,0.0,0.0,0.0,0.0,0.0,0.0,0.0,0.0,0.0,0.0,0.0,0.0,0.0,0.0,0.0,0.0,0.0,0.0,0.0,0.0,0.0,0.0,0.0,0.0,2.3987,2.7347,3.0426,3.172,3.236,3.23,3.0399,2.7712,2.4255,0.0,0.0,0.0,0.0,0.0,0.0,0.0,0.0,0.0,0.0,0.0,0.0,0.0,0.0,0.0,0.0,0.0,0.0,0.0,0.0,0.0,0.0,0.0,0.0,0.0,0.0,0.0,0.0,0.0,0.0,0.0,0.0,0.0,0.0,0.0,0.0,0.0,0.0,1.0704,1.1846,0.0,0.0,0.0,0.0,0.0,0.0,0.0,0.0,1.2145,0.0,0.0,0.0,0.0,0.0,0.0,0.0,0.0,0.0,0.0,0.0,0.0,0.0,0.0,0.0,0.0,0.0,0.0,0.0,0.0,0.0,0.0,0.0,0.0,0.0,0.0,0.0,0.0,0.0,0.0,0.0,0.0,0.0,0.0,0.0,0.0,0.0,0.0,0.0,0.0,0.0,0.0,0.0,0.0,0.0,0.0,0.0,0.0,0.0,0.0,0.0,0.0,0.0,0.0,0.0,0.0,2.1594,2.5335,2.8652,3.1487,3.3094,3.3899,3.3805,3.1888,2.9386,2.6236,0.0,0.0,0.0,0.0,0.0,0.0,0.0,0.0,0.0,0.0,0.0,0.0,0.0,0.0,0.0,0.0,0.0,0.0,0.0,0.0,0.0,0.0,0.0,0.0,0.0,0.0,0.0,0.0,0.0,0.0,0.0,0.0,0.0,0.0,0.0,0.0,0.0,0.0,0.0,1.3053,1.3611,0.0,0.0,0.0,0.0,0.0,0.0,0.0,0.0,1.3024,0.0,0.0,0.0,0.0,0.0,0.0,0.0,0.0,0.0,0.0,0.0,0.0,0.0,0.0,0.0,0.0,0.0,0.0,0.0,0.0,0.0,0.0,0.0,0.0,0.0,0.0,0.0,0.0,0.0,0.0,0.0,0.0,0.0,0.0,0.0,0.0,0.0,0.0,0.0,0.0,0.0,0.0,0.0,0.0,0.0,0.0,0.0,0.0,0.0,0.0,0.0,0.0,0.0,0.0,0.0,2.2704,2.661,2.9976,3.2651,3.4132,3.4627,3.4134,3.2343,2.9857,0.0,0.0,0.0,0.0,0.0,0.0,0.0,0.0,0.0,0.0,0.0,0.0,0.0,0.0,0.0,0.0,0.0,0.0,0.0,0.0,0.0,0.0,0.0,0.0,0.0,0.0,0.0,0.0,0.0,0.0,0.0,0.0,0.0,0.0,0.0,0.0,0.0,0.0,0.0,0.0,1.3704,1.4475,1.4183,0.0,0.0,0.0,0.0,0.0,0.0,1.4239,1.4007,0.0,0.0,0.0,0.0,0.0,0.0,0.0,0.0,0.0,0.0,0.0,0.0,0.0,0.0,0.0,0.0,0.0,0.0,0.0,0.0,0.0,0.0,0.0,0.0,0.0,0.0,0.0,0.0,0.0,0.0,0.0,0.0,0.0,0.0,0.0,0.0,0.0,0.0,0.0,0.0,0.0,0.0,0.0,0.0,0.0,0.0,0.0,0.0,0.0,0.0,0.0,0.0,0.0,0.0,0.0,2.3802,2.7772,3.1077,3.3618,3.4887,3.5075,3.4114,3.2387,2.9849,0.0,0.0,0.0,0.0,0.0,0.0,0.0,0.0,0.0,0.0,0.0,0.0,0.0,0.0,0.0,0.0,0.0,0.0,0.0,0.0,0.0,0.0,0.0,0.0,0.0,0.0,0.0,0.0,0.0,0.0,0.0,0.0,0.0,0.0,0.0,0.0,0.0,0.0,0.0,0.0,0.0,1.5198,1.5251,1.5135,0.0,0.0,0.0,0.0,1.5318,1.5345,0.0,0.0,0.0,0.0,0.0,0.0,0.0,0.0,0.0,0.0,0.0,0.0,0.0,0.0,0.0,0.0,0.0,0.0,0.0,0.0,0.0,0.0,0.0,0.0,0.0,0.0,0.0,0.0,0.0,0.0,0.0,0.0,0.0,0.0,0.0,0.0,0.0,0.0,0.0,0.0,0.0,0.0,0.0,0.0,0.0,0.0,0.0,0.0,0.0,0.0,0.0,0.0,0.0,0.0,0.0,0.0,2.4869,2.8653,3.1719,3.3959,3.526,3.5351,3.4134,3.2402,2.9712,0.0,0.0,0.0,0.0,0.0,0.0,0.0,0.0,0.0,0.0,0.0,0.0,0.0,0.0,0.0,0.0,0.0,0.0,0.0,0.0,0.0,0.0,0.0,0.0,0.0,0.0,0.0,0.0,0.0,0.0,0.0,0.0,0.0,0.0,0.0,0.0,0.0,0.0,0.0,0.0,0.0,1.582,1.6122,1.6577,1.6698,0.0,0.0,1.646,1.6487,1.6525,0.0,0.0,0.0,0.0,0.0,0.0,0.0,0.0,0.0,0.0,0.0,0.0,0.0,0.0,0.0,0.0,0.0,0.0,0.0,0.0,0.0,0.0,0.0,0.0,0.0,0.0,0.0,0.0,0.0,0.0,0.0,0.0,0.0,0.0,0.0,0.0,0.0,0.0,0.0,0.0,0.0,0.0,0.0,0.0,0.0,0.0,0.0,0.0,0.0,0.0,0.0,0.0,0.0,0.0,0.0,2.1929,2.6101,2.9527,3.2274,3.4375,3.5469,3.5374,3.4134,3.2187,2.9556,0.0,0.0,0.0,0.0,0.0,0.0,0.0,0.0,0.0,0.0,0.0,0.0,0.0,0.0,0.0,0.0,0.0,0.0,0.0,0.0,0.0,0.0,0.0,0.0,0.0,0.0,0.0,0.0,0.0,0.0,0.0,0.0,0.0,0.0,0.0,0.0,0.0,0.0,0.0,0.0,0.0,0.0,1.7168,1.7649,0.0,0.0,0.0,1.7756,1.7943,0.0,0.0,0.0,0.0,0.0,0.0,0.0,0.0,0.0,0.0,0.0,0.0,0.0,0.0,0.0,0.0,0.0,0.0,0.0,0.0,0.0,0.0,0.0,0.0,0.0,0.0,0.0,0.0,0.0,0.0,0.0,0.0,0.0,0.0,0.0,0.0,0.0,0.0,0.0,0.0,0.0,0.0,0.0,0.0,0.0,0.0,0.0,0.0,0.0,0.0,0.0,0.0,0.0,0.0,0.0,0.0,0.0,2.7035,3.0311,3.2847,3.4648,3.555,3.5391,3.4114,3.2124,0.0,0.0,0.0,0.0,0.0,0.0,0.0,0.0,0.0,0.0,0.0,0.0,0.0,0.0,0.0,0.0,0.0,0.0,0.0,0.0,0.0,0.0,0.0,0.0,0.0,0.0,0.0,0.8738,0.0,0.0,0.0,0.0,0.0,0.0,0.0,0.0,0.0,0.0,0.0,0.0,0.0,0.0,1.6834,1.8063,1.857,1.893,0.0,0.0,1.8984,1.9183,1.8997,1.8411,0.0,0.0,0.0,0.0,0.0,0.0,0.0,0.0,0.0,0.0,0.0,0.0,0.0,0.0,0.0,0.0,0.0,0.0,0.0,0.0,0.0,0.0,0.0,0.0,0.0,0.0,0.0,0.0,0.0,0.0,0.0,0.0,0.0,0.0,0.0,0.0,0.0,0.0,0.0,0.0,0.0,0.0,0.0,0.0,0.0,0.0,0.0,0.0,0.0,0.0,0.0,0.0,0.0,0.0,0.0,2.7251,3.0869,3.3363,3.4668,3.555,3.5391,3.4134,3.2398,2.9883,0.0,0.0,0.0,0.0,0.0,0.0,0.0,0.0,0.0,0.0,0.0,0.0,0.0,0.0,0.0,0.0,0.0,0.0,0.0,0.0,0.0,0.0,0.0,0.0,0.0,0.0,0.0,0.0,0.0,0.0,0.0,0.0,0.0,0.0,0.0,0.0,0.0,0.0,0.0,0.0,0.0,1.7195,1.8636,1.9331,1.9935,0.0,0.0,2.009,2.0104,1.9878,1.9212,1.7782,0.0,0.0,0.0,0.0,0.0,0.0,0.0,0.0,0.0,0.0,0.0,0.0,0.0,0.0,0.0,0.0,0.0,0.0,0.0,0.0,0.0,0.0,0.0,0.0,0.0,0.0,0.0,0.0,0.0,0.0,0.0,0.0,0.0,0.0,0.0,0.0,0.0,0.0,0.0,0.0,0.0,0.0,0.0,0.0,0.0,0.0,0.0,0.0,0.0,0.0,0.0,0.0,0.0,2.445,2.8264,3.1264,3.357,3.5095,3.5686,3.551,3.4473,3.2828,3.0561,0.0,0.0,0.0,0.0,0.0,0.0,0.0,0.0,0.0,0.0,0.0,0.0,0.0,0.0,0.0,0.0,0.0,0.0,0.0,0.0,0.0,0.0,0.0,0.0,0.0,0.0,0.0,0.0,1.0808,1.099,1.0688,0.0,0.0,0.0,0.0,0.0,0.0,0.0,0.0,0.0,0.0,1.8036,1.9505,2.0388,0.0,0.0,2.1082,2.0826,2.1045,2.0479,1.9678,1.857,1.7168,0.0,0.0,0.0,0.0,0.0,0.0,0.0,0.0,0.0,0.0,0.0,0.0,0.0,0.0,0.0,0.0,0.0,0.0,0.0,0.0,0.0,0.0,0.0,0.0,0.0,0.0,0.0,0.0,0.0,0.0,0.0,0.0,0.0,0.0,0.0,0.0,0.0,0.0,0.0,0.0,0.0,0.0,0.0,0.0,0.0,0.0,0.0,0.0,0.0,0.0,0.0,0.0,2.5069,2.8873,3.1587,3.3769,3.5371,3.5784,3.5647,3.4919,3.3258,3.1279,0.0,0.0,0.0,0.0,0.0,0.0,0.0,0.0,0.0,0.0,0.0,0.0,0.0,0.0,0.0,0.0,0.0,0.0,0.0,0.0,0.0,0.0,0.0,0.0,0.0,0.0,0.0,0.0,1.1261,1.1291,1.1022,0.0,0.0,0.0,0.0,0.0,0.0,0.0,0.0,0.0,0.0,1.8872,2.0432,2.1276,2.1872,2.2252,2.1886,2.1601,2.1739,2.1111,2.0267,1.9235,0.0,0.0,0.0,0.0,0.0,0.0,0.0,0.0,0.0,0.0,0.0,0.0,0.0,0.0,0.0,0.0,0.0,0.0,0.0,0.0,0.0,0.0,0.0,0.0,0.0,0.0,0.0,0.0,0.0,0.0,0.0,0.0,0.0,0.0,0.0,0.0,0.0,0.0,0.0,0.0,0.0,0.0,0.0,0.0,0.0,0.0,0.0,0.0,0.0,0.0,0.0,0.0,0.0,2.5488,2.8859,3.186,3.4046,3.5371,3.5801,3.5803,3.5368,3.3691,3.1968,3.0137,0.0,0.0,0.0,0.0,0.0,0.0,0.0,0.0,0.0,0.0,0.0,0.0,0.0,0.0,0.0,0.0,0.0,0.0,0.0,0.0,0.0,0.0,0.0,0.0,0.0,0.0,1.2086,1.1709,1.1308,0.0,0.0,0.0,0.0,0.0,0.0,0.0,0.0,0.0,0.0,1.804,1.9637,2.1417,2.1922,2.2338,2.2879,2.2746,2.2468,2.2156,2.1805,2.1071,0.0,0.0,0.0,0.0,0.0,0.0,0.0,0.0,0.0,0.0,0.0,0.0,0.0,0.0,0.0,0.0,0.0,0.0,0.0,0.0,0.0,0.0,0.0,0.0,0.0,0.0,0.0,2.0708,2.0541,0.0,0.0,0.0,0.0,0.0,0.0,0.0,0.0,0.0,0.0,0.0,2.5327,2.5852,0.0,0.0,0.0,0.0,0.0,0.0,0.0,0.0,0.0,0.0,0.0,0.0,2.634,2.9687,3.2168,3.4167,3.5742,3.592,3.5803,3.5391,3.4274,3.2183,2.9023,0.0,0.0,0.0,0.0,0.0,0.0,0.0,0.0,0.0,0.0,0.0,0.0,0.0,0.0,0.0,0.0,0.0,0.0,0.0,0.0,0.0,0.0,0.0,0.0,0.0,1.2516,0.0,0.0,0.0,0.0,0.0,0.0,0.0,0.0,0.0,0.0,0.0,1.6219,1.8026,1.9714,2.1233,2.2475,2.3049,2.3356,0.0,0.0,0.0,0.0,0.0,0.0,0.0,0.0,0.0,0.0,0.0,0.0,0.0,0.0,1.6447,1.5179,1.4916,1.4928,1.4928,0.0,0.0,0.0,0.0,0.0,0.0,0.0,0.0,0.0,0.0,0.0,0.0,0.0,0.0,0.0,0.0,2.1741,0.0,0.0,0.0,0.0,0.0,0.0,0.0,0.0,2.6207,2.7539,2.8365,2.8978,2.9018,0.0,2.7682,2.6042,0.0,0.0,0.0,0.0,0.0,0.0,0.0,0.0,2.7161,3.0385,3.2559,3.4398,3.592,3.6018,3.5881,3.5605,3.4473,3.2261,2.8861,2.6692,2.4551,0.0,0.0,0.0,0.0,0.0,0.0,0.0,0.0,0.0,0.0,0.0,0.0,0.0,0.0,0.0,0.0,0.0,0.0,0.0,0.0,0.0,0.0,0.0,1.3612,0.0,0.0,0.0,0.0,0.0,0.0,0.0,0.0,0.0,1.4712,1.639,1.8334,2.0101,2.1527,2.2736,2.3654,0.0,0.0,0.0,0.0,0.0,0.0,0.0,2.381,2.3354,2.2947,2.2406,2.1521,2.0707,2.0151,2.0002,0.0,0.0,1.7409,1.7061,1.7048,1.7061,1.7234,1.7408,1.7515,1.7729,1.8009,0.0,0.0,0.0,0.0,0.0,0.0,0.0,0.0,2.5823,2.5823,0.0,2.4508,0.0,0.0,0.0,0.0,0.0,0.0,0.0,0.0,2.89,3.0185,3.105,3.1905,3.2066,3.1567,3.0742,3.0092,2.9403,2.5019,0.0,0.0,0.0,0.0,0.0,0.0,2.7943,3.0913,3.3039,3.4707,3.594,3.6018,3.5999,3.594,3.4303,3.2285,2.9833,2.8464,2.6751,2.4578,2.2449,0.0,0.0,0.0,0.0,0.0,0.0,0.0,0.0,0.0,0.0,0.0,0.0,0.0,0.0,0.0,0.0,0.0,0.0,0.0,0.0,1.4792,0.0,0.0,0.0,0.0,0.0,0.0,0.0,0.0,0.0,0.0,1.7764,1.8839,2.0474,2.262,0.0,0.0,0.0,0.0,2.5218,2.5218,2.5579,2.5833,2.5833,2.6146,2.6204,2.5568,0.0,0.0,2.3532,2.295,2.2512,2.213,2.204,2.1529,1.9899,1.9509,1.9441,1.9484,1.9526,1.9618,1.9858,2.0145,2.0424,3.0469,0.0,0.0,0.0,0.0,2.7741,2.8229,2.8893,2.8607,2.8633,2.8834,2.7559,0.0,0.0,0.0,0.0,0.0,0.0,2.793,2.9361,3.1387,3.2773,3.3617,3.4512,3.4512,3.3789,3.3516,3.2871,3.1831,2.9902,2.7396,2.4446,0.0,0.0,0.0,0.0,2.9096,3.1749,3.3332,3.4723,3.5979,3.6018,3.5879,3.5566,3.4489,3.3258,3.1929,3.0332,2.8646,2.6829,2.4656,0.0,0.0,0.0,0.0,0.0,0.0,0.0,0.0,0.0,0.0,0.0,0.0,0.0,0.0,0.0,0.0,0.0,0.0,0.0,1.7053,1.745,1.7266,0.0,0.0,0.0,0.0,0.0,0.0,0.0,0.0,0.0,2.3512,2.3579,2.3977,0.0,0.0,2.6759,2.7292,2.7633,2.7724,2.7484,0.0,0.0,0.0,2.8689,2.8881,2.868,2.7785,2.6749,2.5799,2.4876,2.4101,2.3706,2.3651,2.346,2.2967,2.1986,2.1413,2.1608,2.1835,2.2109,2.2431,2.2729,2.2918,3.3769,3.1591,3.0385,2.9995,3.0215,3.0376,3.0742,3.1211,3.1147,3.1167,3.1172,3.0059,2.9336,2.89,2.7773,0.0,0.0,0.0,3.0254,3.1528,3.3359,3.4668,3.5525,3.6191,3.6233,3.5723,3.5391,3.4808,3.4062,3.3027,3.1255,2.8762,0.0,0.0,2.7272,2.8809,3.0586,3.2633,3.3961,3.5075,3.5979,3.6018,3.582,3.5407,3.4704,3.3942,3.3066,3.1543,3.0078,2.8724,2.6608,2.4461,0.0,0.0,0.0,0.0,0.0,0.0,0.0,0.0,0.0,0.0,0.0,1.4177,1.4531,0.0,0.0,0.0,1.6705,1.8045,1.9393,1.9578,0.0,0.0,0.0,0.0,0.0,0.0,0.0,2.2427,2.4617,2.6464,2.762,2.811,2.8204,2.7909,2.8639,2.9287,2.955,0.0,2.9651,2.9456,2.9939,3.0383,3.0523,3.0945,3.1217,3.105,2.9936,2.8751,2.7812,2.6831,2.6012,2.5544,2.5369,2.5369,2.5369,2.4697,2.4036,2.3809,2.3859,2.4121,2.4527,2.4805,2.5019,3.6619,3.5957,3.3629,3.2593,3.255,3.2891,3.3066,3.3125,3.3476,3.3402,3.3062,3.2153,3.1489,3.1011,3.0249,0.0,0.0,3.1133,3.2352,3.3597,3.4919,3.5954,3.6812,3.7225,3.7383,3.7307,3.6526,3.6116,3.5979,3.4841,3.4004,3.35,3.0767,2.9498,2.9838,3.0976,3.2172,3.3441,3.4671,3.5564,3.5999,3.6018,3.5803,3.541,3.4922,3.4258,3.3402,3.2172,3.1099,3.0195,2.8209,2.6152,2.4043,0.0,0.0,0.0,0.0,0.0,0.0,0.0,0.0,0.0,0.0,0.0,0.0,0.0,0.0,0.0,2.0027,0.0,2.1525,2.1434,0.0,0.0,0.0,2.0772,2.2213,2.3265,2.4481,2.6109,0.0,0.0,0.0,0.0,3.2679,3.1016,3.1311,3.1676,3.1676,3.144,3.1246,3.1297,3.162,3.1974,3.2381,3.2938,3.319,3.2816,3.1875,3.0783,2.9709,2.8752,2.8009,2.7273,2.7157,2.7176,2.7157,2.7376,2.7341,2.622,2.5903,2.5953,2.6378,2.6691,2.6994,3.8164,3.7404,3.6799,3.5979,3.5117,3.5198,3.5449,3.5739,3.5491,3.5527,3.5681,3.4473,3.334,3.2344,3.2446,3.2324,3.2101,3.3043,3.4,3.4944,3.5935,3.6816,3.7619,3.8066,3.8086,3.7756,3.756,3.7131,3.6504,3.5859,3.5335,3.4883,3.3848,3.2734,3.1631,3.187,3.2652,3.3906,3.4551,3.5234,3.5979,3.6018,3.582,3.5407,3.4645,3.3981,3.3402,3.2172,3.1099,3.0215,2.8803,2.7155,2.5316,2.293,0.0,0.0,0.0,0.0,0.0,0.0,0.0,0.0,0.0,1.7936,1.858,0.0,1.9678,0.0,2.1784,2.3296,2.4302,2.4504,0.0,0.0,2.488,2.5122,2.6268,2.721,2.8192,2.9339,3.1097,3.2382,3.2737,3.3988,3.4702,3.4241,3.3581,3.3152,3.3188,3.3394,3.3504,3.3507,3.378,3.4234,3.4552,3.4831,3.4768,3.4427,3.3409,3.2385,3.1578,3.0287,2.9234,2.8783,2.8676,2.8694,2.8712,2.9214,2.9684,2.9612,2.896,2.846,2.8834,2.9182,2.9513,3.9238,3.8809,3.879,3.8361,3.7695,3.6897,3.6701,3.6951,3.6699,3.6738,3.6912,3.5993,3.5078,3.4258,3.4456,3.4339,3.4023,3.4665,3.5329,3.6013,3.6658,3.75,3.8458,3.8553,3.8573,3.8476,3.8087,3.7658,3.7226,3.6621,3.6208,3.5974,3.5312,3.4531,3.3649,3.3414,3.3668,3.4372,3.4961,3.551,3.5979,3.584,3.5625,3.5391,3.4372,3.3574,3.3129,3.1899,3.0903,3.0215,2.9146,2.7864,2.633,2.4394,2.256,0.0,0.0,0.0,0.0,0.0,0.0,0.0,0.0,0.0,0.0,0.0,2.221,0.0,2.4582,0.0,2.6448,2.6967,2.7491,2.8048,2.799,2.8408,2.9702,3.0435,3.1173,3.2069,3.3283,3.4134,3.4386,3.5137,3.5647,3.5684,3.5114,3.4708,3.4727,3.4818,3.4833,3.4852,3.5024,3.5308,3.5687,3.5742,3.5572,3.5196,3.449,3.3711,3.298,3.2035,3.1208,3.0854,3.0765,3.0748,3.0766,3.1243,3.1719,3.1859,3.1754,3.1366,3.0907,3.1136,3.1437,4.0038,3.998,3.998,3.9941,3.9785,3.8262,3.7637,3.7617,3.7559,3.748,3.7344,3.701,3.6582,3.6174,3.6174,3.5976,3.5664,3.5999,3.6406,3.6853,3.7225,3.8027,3.918,3.8828,3.8866,3.916,3.8419,3.7991,3.7892,3.7187,3.6834,3.6736,3.5957,3.5527,3.5449,3.5019,3.4785,3.4805,3.5605,3.6018,3.5999,3.5664,3.541,3.529,3.4082,3.3148,3.2617,3.146,3.0581,3.0039,2.9302,2.8346,2.7148,2.593,2.439,0.0,2.1485,0.0,0.0,0.0,0.0,0.0,0.0,0.0,0.0,2.3809,2.4902,2.6167,2.7702,2.8591,2.847,2.9182,2.9892,3.0458,3.0509,3.1102,3.2498,3.3054,3.3559,3.4183,3.4961,3.5488,3.5566,3.5879,3.6096,3.6174,3.614,3.6123,3.6103,3.5784,3.5536,3.5575,3.557,3.5687,3.5964,3.6008,3.5879,3.5572,3.5196,3.4748,3.4126,3.3624,3.3224,3.2945,3.2823,3.2858,3.291,3.3155,3.338,3.3415,3.3866,3.3885,3.2788,3.2701,3.305,4.0723,4.0391,4.0391,4.0196,3.9863,3.9531,3.9394,3.9394,3.9004,3.8457,3.7795,3.7716,3.7461,3.707,3.707,3.7012,3.6934,3.7012,3.7285,3.7677,3.7756,3.8301,3.918,3.9121,3.9121,3.918,3.9024,3.8595,3.7912,3.7756,3.7519,3.7185,3.6697,3.625,0.0,0.0,0.0,0.0,3.5745,3.6018,3.5999,3.5937,3.555,3.4844,3.3926,0.0,3.1782,3.0825,2.998,2.9185,2.8976,0.0,0.0,0.0,0.0,0.0,0.0,0.0,0.0,0.0,0.0,0.0,2.666,2.6433,2.5257,2.653,2.7969,2.9238,3.0,3.0684,3.1337,3.1834,3.2447,3.3214,3.333,3.3564,3.4212,3.4664,3.5009,3.5137,3.5605,3.6018,3.6384,3.6521,3.6697,3.6953,3.7051,3.7051,3.7031,3.6379,3.5935,3.5899,3.5932,3.5949,3.5996,3.6025,3.5982,3.5862,3.5606,3.5333,3.5144,3.4612,3.4179,3.4058,3.4076,3.4076,3.4094,3.4352,3.4541,3.4558,3.4973,3.5024,3.4163,3.4249,3.449,4.1074,0.0,4.084,4.0742,0.0,4.0546,4.0546,4.0488,3.9824,3.916,3.8536,3.8555,3.832,3.7948,3.7948,3.7812,3.758,3.758,3.7697,3.7912,3.8144,3.8711,3.9531,3.9551,3.9648,3.9825,3.9629,3.9199,3.8556,3.8359,3.8027,3.7598,3.7205,3.6875,3.666,3.6445,3.6035,3.541,3.5801,3.6018,3.5999,3.582,3.5391,3.4707,0.0,0.0,0.0,0.0,0.0,0.0,0.0,0.0,0.0,0.0,0.0,2.7012,2.6562,2.6413,2.6615,2.7051,2.78,2.8848,2.9902,2.9883,2.8385,2.9473,3.0581,3.1406,3.2085,3.2667,3.3098,3.3496,3.4004,3.4645,3.4743,3.4899,3.5276,3.5547,3.5781,3.6013,3.6211,3.6521,3.6931,3.699,3.7051,3.7266,3.7305,3.7305,3.7248,3.6916,3.666,3.6641,3.6428,3.6348,3.6328,3.6133,3.6018,3.5964,3.5845,3.5743,3.5726,3.5436,3.5196,3.5179,3.5196,3.5179,3.5196,3.5333,3.5453,3.5453,3.5606,3.5641,3.5247,3.5316,3.5453,4.1367,4.1308,4.1289,4.1269,4.1211,4.1211,4.1211,4.1133,0.0,0.0,0.0,3.9316,3.9141,3.8809,3.8749,3.8496,3.8126,3.8048,3.8029,3.8066,3.8495,3.9176,3.9996,4.0094,4.0308,4.0679,4.0384,3.9953,3.9428,3.9016,3.8588,3.8107,3.7656,3.74,3.7305,3.7305,3.6777,3.5801,3.6057,3.6194,3.6116,3.5801,3.5371,3.4844,3.4046,3.3262,3.2437,3.1655,3.0976,3.0449,3.0098,2.9936,2.9936,2.995,2.9799,2.9517,2.9478,2.9503,2.9595,2.9955,3.0537,3.1401,3.2496,3.2656,3.1558,3.212,3.2691,3.3121,3.3864,3.4313,3.4349,3.4687,3.5078,3.5469,3.5603,3.5762,3.6057,3.6211,3.6406,3.6736,3.6795,3.6951,3.7344,3.7402,3.7424,3.7519,3.7598,3.7519,3.75,3.7383,3.7226,3.7187,3.697,3.6795,3.6756,3.6543,3.6252,3.6311,3.6213,3.6116,3.6116,3.6057,3.6018,3.5933,3.6018,3.5947,3.6001,3.593,3.6018,3.6018,3.6018,3.6018,3.6018,3.6018,3.5984,4.2031,4.1719,4.1719,4.1523,4.1211,4.1211,4.1211,4.1172,4.0625,4.0176,3.9823,3.9805,3.9766,3.9687,3.9297,3.9082,3.9004,3.8633,3.8495,0.0,3.8926,3.9561,4.0409,4.0765,4.1154,4.1496,4.1494,4.1045,4.0328,3.9875,3.9433,3.8962,3.8205,3.7638,3.7324,3.7305,3.7207,3.7031,3.709,3.6951,3.6599,3.6558,3.6111,3.5312,3.4785,3.4121,3.3246,3.2773,3.2168,3.1372,3.1255,3.125,3.1235,3.1235,3.1387,3.171,3.1749,3.1905,3.2207,3.2305,3.273,3.357,3.4137,3.4215,3.3723,3.3746,3.4016,3.4411,3.4902,3.5231,3.5234,3.5586,3.5842,3.5957,3.6269,3.6541,3.6599,3.6875,3.709,3.7187,3.7225,3.7363,3.7754,3.7814,3.7951,3.8299,3.828,3.8377,3.8259,3.7772,3.7344,3.7305,3.7246,3.7207,3.7187,3.7168,3.7031,3.7129,3.6797,3.6599,3.6582,3.6328,3.6116,3.6018,3.6057,3.6038,3.6018,3.6018,3.6018,3.6038,3.6057,3.6057,3.6096,3.6096,3.6057,4.2304,4.2128,4.2129,4.2011,4.1855,4.1836,4.1719,4.1504,4.1308,4.084,4.0254,4.0234,4.0117,3.9883,3.9668,3.959,3.9569,3.9343,3.9256,3.9332,4.0152,4.0767,4.1233,4.2274,4.2885,4.3055,4.3055,4.2621,4.1817,4.1351,4.074,3.9904,3.9036,3.8398,3.8026,3.8006,3.8006,3.7969,3.7557,3.7207,3.7029,3.7029,3.6601,3.5762,3.551,3.5,3.4124,3.3711,3.3301,3.2945,3.266,3.2641,3.2891,3.2926,3.3086,3.3512,3.3551,3.3633,3.3809,3.4062,3.4473,3.5078,3.5544,3.5818,3.5837,3.5192,3.4961,3.5354,3.582,3.6111,3.6111,3.6465,3.6701,3.6719,3.6894,3.7012,3.7031,3.7168,3.7365,3.756,3.7619,3.7812,3.8223,3.8281,3.832,3.8591,3.8592,3.8592,3.8592,3.8298,3.8006,3.7969,3.7793,3.7638,3.7599,3.7422,3.7324,3.7305,3.7148,3.7049,3.7029,3.6797,3.6658,3.6443,3.6367,3.6269,3.6096,3.6018,3.6096,3.6348,3.6387,3.6445,3.6621,3.6719,3.6562,4.3079,4.298,4.2759,4.26,4.2402,4.2502,4.2386,4.2111,4.229,4.1954,4.1225,4.0838,4.0488,4.0214,4.0173,4.0171,4.0188,4.0223,4.0281,4.0469,4.1575,4.2243,4.262,4.3969,4.4687,4.4838,4.4856,4.4421,4.3637,4.31,4.2177,4.0969,4.0144,3.9604,3.9307,3.9124,3.8993,3.8837,3.812,3.7637,3.7441,3.7441,3.7053,3.6369,3.6291,3.5976,3.5312,3.4899,3.4642,3.4508,3.4101,3.4023,3.4352,3.4407,3.4567,3.4941,3.4983,3.5039,3.5156,3.5566,3.5957,3.6252,3.6638,3.697,3.7168,3.6406,3.5957,3.6289,3.6601,3.6814,3.6834,3.7088,3.7305,3.7305,3.7402,3.7441,3.7441,3.7519,3.7695,3.799,3.8048,3.8203,3.8495,3.8592,3.8611,3.8611,3.8592,3.8592,3.8592,3.8592,3.8592,3.8534,3.8281,3.8086,3.8029,3.7832,3.7656,3.7596,3.75,3.7443,3.7404,3.7383,3.7187,3.6892,3.6814,3.6699,3.6387,3.633,3.6467,3.6738,3.6834,3.6929,3.7166,3.7226,3.7109,4.5129,4.4663,4.3939,4.3116,4.2541,4.2902,4.3061,4.3101,4.3796,4.3887,4.3281,4.1833,4.1191,4.1073,4.1027,4.1021,4.1057,4.137,4.1742,4.2152,4.2935,4.3901,4.4938,4.5607,4.62,4.6791,4.6887,4.6492,4.5741,4.4848,4.3679,4.2249,4.1688,4.1442,4.1309,4.068,4.0128,3.9715,3.9266,3.8634,3.7912,3.7853,3.7619,3.7207,3.7168,3.7166,3.6953,3.6658,3.6267,3.5842,3.5413,3.5234,3.529,3.5273,3.5449,3.5859,3.5881,3.6038,3.6482,3.6892,3.7107,3.7168,3.7207,3.7266,3.7324,3.7225,3.7129,3.7187,3.7244,3.7264,3.7246,3.7305,3.7383,3.7441,3.7658,3.7853,3.7892,3.8241,3.8495,3.8532,3.8475,3.8553,3.8573,3.865,3.865,3.8729,3.8768,3.8729,3.8671,3.8671,3.8631,3.8612,3.8534,3.8514,3.8475,3.8514,3.8358,3.8377,3.8105,3.7892,3.7795,3.7598,3.7285,3.7305,3.7264,3.7205,3.7129,3.7168,3.7146,3.7207,3.7266,3.7285,3.7305,3.7383,3.7322,4.6544,4.6096,4.5734,4.5108,4.4442,4.4563,4.4623,4.4719,4.5274,4.5399,4.5196,4.4482,4.3513,4.2294,4.2247,4.2356,4.2619,4.322,4.3692,4.4169,4.5329,4.6373,4.7236,4.8406,4.9212,4.9742,4.9486,4.8946,4.7993,4.6374,4.4989,4.412,4.3452,4.2883,4.2394,4.1859,4.1349,4.093,4.028,3.9649,3.9041,3.8564,3.8105,3.7715,3.7656,3.7521,3.7305,3.7146,3.6953,3.6777,3.6584,3.6523,3.6523,3.6523,3.6582,3.6758,3.676,3.6855,3.7049,3.7207,3.7402,3.7619,3.7638,3.7773,3.8027,3.8065,3.8084,3.8045,3.7812,3.7658,3.7677,3.791,3.8065,3.8066,3.8203,3.832,3.832,3.8476,3.8592,3.8592,3.8592,3.8612,3.865,3.8807,3.9061,3.9276,3.9354,3.9257,3.9004,3.8945,3.8846,3.8651,3.8592,3.8592,3.8592,3.8592,3.8592,3.8573,3.8456,3.832,3.8262,3.8203,3.7988,3.7734,3.7676,3.7559,3.7285,3.7324,3.7344,3.7541,3.793,3.8065,3.8065,3.8065,3.8065,4.8425,4.8067,4.7629,4.695,4.6245,4.6346,4.6441,4.6647,4.7239,4.751,4.7481,4.746,4.6526,4.4964,4.435,4.4272,4.4721,4.5425,4.6021,4.66,4.7754,4.8721,4.9517,5.0615,5.1537,5.2012,5.1748,5.111,5.0068,4.8173,4.6902,4.6389,4.5651,4.4966,4.4389,4.3704,4.3033,4.2507,4.1634,4.0891,4.0304,3.9524,3.88,3.8182,3.8105,3.7949,3.7674,3.7521,3.7461,3.7443,3.7346,3.7305,3.7305,3.7305,3.7305,3.7305,3.7402,3.7519,3.7654,3.7754,3.799,3.838,3.8458,3.8594,3.8866,3.8944,3.8944,3.8944,3.8634,3.8439,3.832,3.869,3.8944,3.8964,3.8964,3.8964,3.8964,3.8944,3.8983,3.8944,3.9042,3.8964,3.9003,3.9237,3.9512,3.9766,3.9844,3.9805,3.9492,3.9394,3.9296,3.9003,3.8983,3.8846,3.8671,3.8592,3.8592,3.8592,3.8573,3.8553,3.8592,3.8592,3.8573,3.8144,3.8087,3.8048,3.7908,3.7791,3.7676,3.8027,3.832,3.8534,3.8475,3.8573,3.8573,5.1139,5.0872,4.9391,4.8327,4.7569,4.7973,4.8349,4.8818,4.9914,5.0419,5.0331,5.0365,5.0067,4.9381,4.7676,4.6968,4.7381,4.8015,4.8675,4.9377,4.9829,5.0651,5.1798,5.1943,5.2449,5.3384,5.3286,5.2651,5.1429,5.0377,4.9712,4.9253,4.842,4.804,4.7677,4.6448,4.5409,4.4596,4.3464,4.2437,4.1657,4.0871,3.9877,3.8818,3.8591,3.8592,3.8514,3.8125,3.7912,3.7892,3.756,3.7363,3.7324,3.7344,3.7383,3.7402,3.7697,3.8087,3.8534,3.8866,3.9238,3.9648,3.9648,3.9766,3.9687,3.9707,3.9707,3.9805,3.9707,3.9551,3.9258,3.9453,3.9707,3.9726,3.9785,3.9784,3.9785,3.9687,3.9824,3.9766,3.9707,3.9707,3.9785,3.9844,3.9902,3.9961,3.9941,3.9922,3.9902,3.9863,3.9805,3.9766,3.9687,3.9531,3.8827,3.869,3.8671,3.8592,3.8592,3.8592,3.8592,3.8592,3.8573,3.8553,3.8495,3.8475,3.8532,3.8513,3.8416,3.8514,3.8495,3.8592,3.8592,3.8592,3.8592,5.3591,5.2905,5.1487,5.0746,5.0468,5.0349,5.0684,5.1324,5.1728,5.2204,5.2594,5.2646,5.257,5.2343,5.1642,5.061,4.9566,5.0221,5.0773,5.1226,5.1802,5.2494,5.3235,5.3552,5.4202,5.5007,5.4843,5.4126,5.3088,5.1918,5.1236,5.0985,5.0199,4.9676,4.93,4.8399,4.7558,4.6931,4.5601,4.4459,4.3611,4.2586,4.1443,4.0269,3.9711,3.9433,3.9433,3.9258,3.9062,3.8732,3.8594,3.8398,3.8184,3.8379,3.8516,3.8555,3.8926,3.9258,3.9433,3.957,3.9707,3.9863,3.9883,3.9941,3.9883,3.9883,3.9883,3.9961,4.0176,4.0176,4.0059,3.998,3.9902,3.9902,3.9902,3.9941,3.9883,3.9883,3.9883,3.9883,3.9902,4.0,4.0235,4.0274,4.041,4.0683,4.0722,4.0566,4.0371,4.0274,4.0234,3.998,3.9883,3.9805,3.9551,3.9159,3.8944,3.871,3.8592,3.8612,3.8631,3.8651,3.8631,3.8573,3.8592,3.8592,3.8591,3.8591,3.8592,3.8592,3.8592,3.8592,3.8592,3.8592,3.8592,5.5534,5.4631,5.3754,5.3327,5.3171,5.2914,5.3167,5.3761,5.3671,5.4006,5.4528,5.4457,5.4384,5.4347,5.4253,5.3555,5.2241,5.2425,5.2653,5.292,5.3431,5.3957,5.4423,5.4749,5.5333,5.5974,5.5641,5.5021,5.442,5.3356,5.2853,5.2793,5.207,5.1598,5.1236,5.0389,4.9702,4.9119,4.7781,4.6522,4.5607,4.4366,4.3177,4.2145,4.1203,4.0421,3.9941,3.9883,3.9766,3.9492,3.9434,3.9297,3.9081,3.9277,3.9414,3.9473,3.9726,3.9961,4.0078,4.0098,4.0215,4.0488,4.0527,4.0547,4.0664,4.0723,4.0703,4.0781,4.0918,4.1094,4.1055,4.0879,4.0605,4.0429,4.043,4.0468,4.0351,4.0468,4.0527,4.0586,4.0605,4.0644,4.0664,4.0703,4.0859,4.1172,4.1211,4.1054,4.0801,4.0723,4.0645,4.0371,4.039,4.0293,4.0098,3.9824,3.9551,3.9315,3.9081,3.8964,3.8807,3.8807,3.8749,3.8671,3.8612,3.8612,3.8612,3.8612,3.8612,3.8631,3.8592,3.8592,3.8592,3.8592,3.8671,5.6854,5.6161,5.6089,5.5776,5.5443,5.5347,5.568,5.5953,5.5803,5.5884,5.6172,5.5862,5.5683,5.5584,5.5349,5.522,5.5226,5.4586,5.4333,5.4577,5.4574,5.482,5.5279,5.5272,5.5609,5.615,5.5691,5.5415,5.5311,5.4713,5.4437,5.4437,5.3982,5.3626,5.3864,5.2501,5.1782,5.1208,4.9825,4.86,4.7672,4.6355,4.5183,4.422,4.3079,4.18,4.021,4.0038,3.998,3.9902,3.9902,3.9921,3.9823,3.9863,3.9883,3.9902,3.9961,4.0137,4.0489,4.0586,4.0996,4.1465,4.1738,4.1777,4.2011,4.2128,4.2148,4.2109,4.2187,4.2265,4.2226,4.2226,4.1933,4.1387,4.1465,4.1504,4.1348,4.1543,4.1758,4.168,4.1582,4.1562,4.1308,4.1113,4.1133,4.1172,4.1211,4.1191,4.1094,4.1074,4.1152,4.1113,4.0996,4.0781,4.0644,4.0469,4.0254,4.0,3.9785,3.9608,3.9316,3.9219,3.9121,3.9061,3.9022,3.9003,3.8983,3.8964,3.8885,3.8846,3.8749,3.8788,3.8905,3.8983,3.8866,5.8111,5.7862,5.7594,5.7421,5.7243,5.7011,5.7108,5.7405,5.7033,5.7074,5.7356,5.7262,5.7187,5.715,5.7037,5.7031,5.7118,5.6438,5.5808,5.531,5.5178,5.5214,5.5383,5.5415,5.5684,5.6118,5.6043,5.5968,5.5867,5.5415,5.5132,5.5046,5.4673,5.4445,5.4416,5.3729,5.3291,5.313,5.2187,5.1259,5.0438,4.9175,4.7867,4.6507,4.526,4.4069,4.3009,4.1597,4.0683,4.0371,4.0313,4.0176,4.0019,4.0157,4.0293,4.0371,4.0898,4.125,4.1406,4.164,4.1875,4.2128,4.2207,4.2265,4.2382,4.2421,4.2441,4.2401,4.2382,4.2402,4.2441,4.2715,4.2598,4.2109,4.2128,4.2167,4.2051,4.2128,4.209,4.1855,4.1817,4.1621,4.1328,4.1211,4.1211,4.1211,4.1211,4.1211,4.1211,4.1211,4.1211,4.1211,4.1191,4.1172,4.0976,4.084,4.0742,4.0488,4.0312,4.0059,3.9805,3.9648,3.9551,3.9434,3.9394,3.9355,3.9354,3.9296,3.918,3.9199,3.9237,3.9335,3.9434,3.9394,3.9277,5.8987,5.8967,5.8718,5.8621,5.8602,5.8351,5.8365,5.8527,5.8042,5.7975,5.8139,5.7976,5.7901,5.7901,5.7901,5.7901,5.7851,5.7481,5.6853,5.6068,5.5723,5.5691,5.5742,5.5917,5.6294,5.6728,5.6828,5.6721,5.6477,5.615,5.5892,5.5641,5.534,5.5315,5.539,5.4849,5.458,5.464,5.3795,5.3004,5.2235,5.1184,4.9955,4.8619,4.7247,4.6167,4.5289,4.3545,4.2247,4.1581,4.1308,4.1074,4.086,4.1094,4.1191,4.1309,4.168,4.2031,4.207,4.2207,4.2499,4.2597,4.2636,4.2734,4.2831,4.289,4.289,4.285,4.2909,4.289,4.2929,4.3125,4.3164,4.2929,4.2734,4.2656,4.2676,4.2656,4.2578,4.2403,4.2325,4.2012,4.1621,4.1426,4.1348,4.125,4.1211,4.1211,4.1211,4.1211,4.1211,4.1211,4.1211,4.1211,4.1211,4.1172,4.1172,4.0976,4.0742,4.0469,4.0215,4.0137,4.0039,3.9785,3.9687,3.9648,3.9629,3.959,3.9512,3.9609,3.9707,3.9687,3.9726,3.9746,3.9668,5.9483,5.9527,5.9483,5.9438,5.9438,5.94,5.9375,5.9344,5.8942,5.8716,5.8635,5.8328,5.8077,5.8027,5.8152,5.8152,5.8001,5.7976,5.7656,5.7054,5.6577,5.6226,5.6301,5.6627,5.7104,5.7675,5.7775,5.7531,5.706,5.6985,5.6784,5.6394,5.6351,5.6502,5.6677,5.6018,5.5831,5.599,5.4993,5.4173,5.3659,5.2622,5.1581,5.0704,4.9235,4.8058,4.7173,4.5729,4.4331,4.3221,4.2485,4.2187,4.2324,4.2402,4.2345,4.2345,4.2462,4.2561,4.2521,4.2756,4.2892,4.3204,4.3382,4.3401,4.3814,4.4038,4.4181,4.4141,4.4162,4.41,4.4141,4.4221,4.418,4.3937,4.3563,4.3185,4.3145,4.3105,4.3067,4.3028,4.3028,4.2794,4.1953,4.1836,4.168,4.1484,4.1387,4.1426,4.1406,4.1426,4.1289,4.1269,4.1289,4.1211,4.1211,4.1211,4.1211,4.1133,4.0976,4.082,4.0625,4.0566,4.0527,4.0273,4.0059,4.0019,4.0,4.0,4.0039,4.0156,4.0137,3.9999,4.0058,4.0176,4.0195,5.9527,5.9527,5.9527,5.9527,5.9527,5.9527,5.9527,5.9483,5.9357,5.9257,5.9232,5.9156,5.9006,5.9081,5.9056,5.9081,5.893,5.8635,5.8434,5.8133,5.7211,5.6809,5.6803,5.6935,5.7355,5.7876,5.8001,5.7826,5.7675,5.7656,5.7575,5.7474,5.7374,5.7474,5.7575,5.7323,5.7323,5.7405,5.7124,5.637,5.5596,5.4985,5.4124,5.2927,5.1654,5.0585,4.9579,4.7605,4.5363,4.33,4.2642,4.2402,4.258,4.286,4.31,4.324,4.3599,4.3738,4.3595,4.3968,4.4239,4.4146,4.4698,4.5056,4.5175,4.5803,4.6116,4.6262,4.6491,4.6637,4.6678,4.6637,4.6658,4.6451,4.4999,4.3761,4.3679,4.3535,4.3437,4.3184,4.3188,4.2954,4.2621,4.2386,4.2346,4.2189,4.2131,4.2071,4.2013,4.1837,4.1758,4.1543,4.1465,4.1289,4.1211,4.1211,4.1211,4.1211,4.1133,4.1094,4.0996,4.0976,4.0976,4.0898,4.0703,4.0625,4.0625,4.0625,4.0684,4.0625,4.0527,4.0429,4.0722,4.0898,4.0859,5.9527,5.9527,5.9527,5.9527,5.9527,5.9527,5.9527,5.9527,5.9527,5.9527,5.9527,5.9527,5.9527,5.9527,5.9483,5.9502,5.9458,5.9182,5.893,5.856,5.7782,5.7405,5.738,5.738,5.7782,5.8504,5.8554,5.8453,5.8278,5.8234,5.8127,5.7901,5.7901,5.8001,5.8208,5.8001,5.8008,5.8127,5.8008,5.7569,5.705,5.6643,5.6113,5.5183,5.4243,5.3146,5.1588,4.9553,4.7118,4.4805,4.3778,4.3655,4.4077,4.432,4.4664,4.5028,4.5556,4.5718,4.5595,4.5937,4.6034,4.5949,4.6358,4.6607,4.6879,4.738,4.7672,4.7921,4.8212,4.8315,4.8336,4.8357,4.8357,4.8065,4.6701,4.5513,4.5164,4.5164,4.4902,4.4601,4.4421,4.428,4.386,4.378,4.356,4.338,4.33,4.3022,4.2763,4.2526,4.2328,4.225,4.2073,4.1994,4.1955,4.1955,4.1876,4.1817,4.1738,4.164,4.1523,4.1464,4.1211,4.1191,4.1191,4.121,4.119,4.1131,4.0996,4.0918,4.0859,4.0956,4.121,4.156,4.1502,5.9527,5.9527,5.9527,5.9527,5.9527,5.9527,5.9527,5.9527,5.9527,5.9527,5.9527,5.9527,5.9527,5.9527,5.9527,5.9527,5.9527,5.9433,5.9112,5.871,5.8183,5.7976,5.7976,5.7976,5.8478,5.9207,5.9477,5.9207,5.888,5.8786,5.8535,5.8328,5.8177,5.8353,5.8635,5.8378,5.8378,5.8635,5.8428,5.8158,5.7888,5.7593,5.726,5.6941,5.6214,5.4865,5.321,5.1463,4.942,4.6573,4.5739,4.5779,4.6455,4.6619,4.7155,4.7816,4.8063,4.8189,4.8066,4.8025,4.8046,4.7963,4.8088,4.8358,4.8796,4.9231,4.9686,5.0036,4.974,5.0259,5.028,5.003,5.0239,5.0319,4.9538,4.8772,4.7973,4.7419,4.6904,4.6509,4.6406,4.6239,4.6051,4.5864,4.5621,4.5121,4.4899,4.46,4.424,4.3919,4.3619,4.328,4.3061,4.2803,4.2803,4.2823,4.2724,4.2644,4.2582,4.2463,4.2247,4.2011,4.1483,4.1269,4.1405,4.1579,4.1715,4.1579,4.1521,4.1675,4.1942,4.1751,4.1638,4.2005,4.214,5.9527,5.9527,5.9527,5.9527,5.9527,5.9527,5.9527,5.9527,5.9527,5.9527,5.9527,5.9527,5.9527,5.9527,5.9527,5.9527,5.9527,5.9502,5.9207,5.8716,5.861,5.8535,5.8554,5.8554,5.8905,5.9402,5.9527,5.9452,5.9307,5.9257,5.9282,5.9151,5.9006,5.9182,5.9232,5.9131,5.9182,5.9307,5.9156,5.888,5.8579,5.8453,5.8182,5.78,5.7061,5.5935,5.4585,5.3448,5.2264,5.0767,4.9065,4.8187,4.8353,4.903,4.9647,5.0062,5.0573,5.0591,5.0084,5.0203,5.0047,4.9758,5.0494,5.0898,5.1086,5.2284,5.29,5.3311,5.3823,5.3893,5.387,5.4165,5.3934,5.3761,5.3733,5.3503,5.2693,4.9811,4.8007,4.7595,4.7531,4.7328,4.7302,4.7418,4.7235,4.6914,4.6674,4.6335,4.591,4.5463,4.5122,4.4781,4.4579,4.4438,4.4397,4.4357,4.4174,4.399,4.3825,4.3702,4.3464,4.2933,4.2538,4.2087,4.1676,4.1947,4.2569,4.264,4.2696,4.287,4.3004,4.2927,4.285,4.2945,4.2907,5.9527,5.9527,5.9527,5.9527,5.9527,5.9527,5.9527,5.9527,5.9527,5.9527,5.9527,5.9527,5.9527,5.9527,5.9527,5.9527,5.9527,5.9483,5.9357,5.9112,5.9081,5.9081,5.9081,5.9081,5.9257,5.9502,5.9527,5.9527,5.9527,5.9527,5.9477,5.9527,5.9527,5.9452,5.9527,5.9527,5.9477,5.9502,5.9483,5.9313,5.9112,5.9081,5.9006,5.8609,5.8056,5.728,5.6444,5.562,5.4908,5.4008,5.2838,5.1667,5.1062,5.1569,5.2185,5.2916,5.3244,5.3405,5.3072,5.3066,5.3152,5.2859,5.3587,5.3946,5.4259,5.5183,5.5491,5.5678,5.5926,5.6294,5.6314,5.625,5.6314,5.6287,5.612,5.5795,5.5032,5.2586,5.0557,5.0356,5.0269,5.0137,4.9975,4.9604,4.9464,4.9407,4.9251,4.8881,4.77,4.7271,4.6893,4.6611,4.6364,4.62,4.6158,4.6033,4.5807,4.5618,4.5409,4.5302,4.5158,4.4485,4.3794,4.3477,4.3277,4.3387,4.3872,4.3877,4.4037,4.4031,4.4125,4.4163,4.4241,4.4321,4.4224,5.9527,5.9527,5.9527,5.9527,5.9527,5.9527,5.9527,5.9527,5.9527,5.9527,5.9527,5.9527,5.9527,5.9527,5.9527,5.9527,5.9527,5.9527,5.9433,5.9433,5.9427,5.9427,5.9433,5.9433,5.9433,5.9502,5.9527,5.9527,5.9527,5.9527,5.9527,5.9527,5.9527,5.9527,5.9527,5.9608,5.9684,5.9709,5.9859,5.991,5.9834,5.9809,5.9784,5.9726,5.9467,5.9013,5.8443,5.7845,5.7289,5.6889,5.6829,5.609,5.5162,5.451,5.4807,5.6004,5.6175,5.6229,5.6085,5.6156,5.63,5.682,5.6844,5.6987,5.7255,5.7454,5.7634,5.7586,5.77,5.7654,5.7414,5.7488,5.7468,5.7376,5.6997,5.674,5.6477,5.5521,5.4501,5.3321,5.2604,5.2282,5.2292,5.2103,5.2026,5.1873,5.1682,5.1262,5.0082,4.9334,4.9131,4.9043,4.9006,4.8957,4.8893,4.8732,4.8401,4.8097,4.7685,4.7598,4.7568,4.7643,4.7182,4.5606,4.5284,4.5466,4.5796,4.6239,4.6198,4.5637,4.6055,4.6873,4.6602,4.5881,4.59,5.9527,5.9527,5.9527,5.9527,5.9527,5.9527,5.9558,5.9527,5.9533,5.9527,5.9527,5.9527,5.9527,5.9527,5.9527,5.9527,5.9527,5.9527,5.9527,5.9527,5.9527,5.9527,5.9527,5.9527,5.9527,5.9527,5.9527,5.9508,5.9578,5.9527,5.9603,5.9552,5.9527,5.9527,5.9633,5.989,6.0091,6.0136,6.0462,6.0733,6.0733,6.0758,6.0758,6.0733,6.0595,6.0377,6.0109,5.994,5.9729,5.9348,5.9307,5.925,5.8784,5.8003,5.777,5.7987,5.8564,5.873,5.8548,5.8629,5.8478,5.8432,5.8619,5.8802,5.9066,5.9445,5.9564,5.9562,5.9519,5.9477,5.9126,5.8842,5.8998,5.8993,5.8826,5.8702,5.8583,5.796,5.6723,5.5163,5.4597,5.428,5.4293,5.4234,5.3989,5.3747,5.3552,5.3261,5.251,5.2013,5.1816,5.1824,5.1884,5.188,5.1857,5.1681,5.1435,5.1198,5.0926,5.0888,5.0998,5.148,5.0861,4.9017,4.7912,4.7828,4.821,4.8644,4.8867,4.8741,4.9323,4.9869,4.9282,4.8673,4.9162,5.9527,5.9533,5.9809,5.991,5.9985,6.0256,6.0186,5.9935,5.991,5.9759,5.9578,5.9527,5.9527,5.9527,5.9527,5.9527,5.9527,5.9527,5.9527,5.9527,5.9527,5.9527,5.9527,5.9527,5.9527,5.9527,5.9508,5.9684,5.989,5.9935,5.991,5.9859,5.9659,5.9527,5.9608,5.9991,6.0292,6.0442,6.0889,6.1215,6.1215,6.1215,6.1215,6.119,6.1215,6.1066,6.0946,6.0866,6.0762,6.0582,6.0542,6.0687,6.0667,6.0552,6.0102,5.9994,6.0302,6.0511,6.0326,6.0286,6.026,6.0415,6.0565,6.0687,6.0767,6.096,6.0981,6.0536,6.0346,6.0066,5.95,5.9527,5.9527,5.9527,5.9527,5.9527,5.9452,5.9232,5.8075,5.6732,5.6524,5.6327,5.623,5.6088,5.5864,5.5645,5.537,5.5037,5.4648,5.4409,5.4104,5.3804,5.3694,5.3618,5.3661,5.3679,5.3698,5.3637,5.3594,5.357,5.3399,5.3423,5.3081,5.1958,5.1197,5.0421,5.0489,5.0876,5.1329,5.1668,5.1571,5.1468,5.1602,5.1675,5.1904,5.9558,5.9709,6.0136,6.0387,6.0563,6.0964,6.0934,6.0563,6.0512,6.0186,5.9709,5.9659,5.9633,5.9533,5.9527,5.9527,5.9527,5.9527,5.9527,5.9527,5.9527,5.9527,5.9527,5.9527,5.9527,5.9527,5.9709,5.9865,6.0141,6.0217,6.0342,6.0387,6.001,5.9854,6.0035,6.0563,6.0568,6.0819,6.119,6.1492,6.1517,6.1517,6.1517,6.1517,6.1517,6.1567,6.1602,6.1607,6.1582,6.1562,6.1512,6.1547,6.1592,6.1918,6.1943,6.1592,6.1537,6.1517,6.1522,6.1532,6.1622,6.1816,6.2089,6.2129,6.2013,6.1782,6.1552,6.0719,6.0317,6.0066,5.9608,5.9527,5.9527,5.9527,5.9527,5.9527,5.9527,5.9408,5.9257,5.8525,5.8428,5.7963,5.7462,5.7249,5.688,5.6843,5.6586,5.6554,5.6226,5.6243,5.5974,5.5478,5.5232,5.5061,5.5056,5.5204,5.5291,5.5359,5.5334,5.5334,5.5026,5.4762,5.4417,5.4197,5.3754,5.3088,5.311,5.3037,5.3375,5.3467,5.3193,5.3248,5.3589,5.3632,5.3674,5.9784,6.0217,6.0286,6.0593,6.1065,6.1235,6.1185,6.111,6.1085,6.0738,6.0217,6.0191,5.996,5.9633,5.9527,5.9527,5.9527,5.9527,5.9527,5.9527,5.9527,5.9527,5.9527,5.9527,5.9527,5.9552,5.989,6.0191,6.0317,6.0342,6.0638,6.0934,6.0959,6.0959,6.0788,6.1266,6.1793,6.1868,6.2275,6.2551,6.2526,6.2526,6.2501,6.2526,6.2501,6.2476,6.24,6.24,6.245,6.2476,6.2551,6.2576,6.2626,6.2631,6.2701,6.2626,6.2626,6.2601,6.2501,6.2446,6.2446,6.2576,6.2626,6.2701,6.2526,6.2174,6.1718,6.121,6.0638,6.0085,5.9633,5.9527,5.9527,5.9527,5.9527,5.9527,5.9527,5.9502,5.9402,5.9377,5.8956,5.8529,5.8064,5.7945,5.7838,5.7844,5.7832,5.7769,5.768,5.7585,5.7484,5.6945,5.6535,5.6337,5.6244,5.6413,5.65,5.6749,5.6749,5.6768,5.6488,5.6152,5.6402,5.6141,5.5689,5.525,5.4893,5.4906,5.5255,5.5125,5.4737,5.5142,5.5788,5.5658,5.5142,6.0066,6.0317,6.0663,6.114,6.1667,6.1969,6.1943,6.1667,6.1642,6.1341,6.0889,6.0814,6.0487,6.001,5.9659,5.9527,5.9527,5.9527,5.9527,5.9527,5.9527,5.9527,5.9527,5.9527,5.9527,5.9578,5.9759,6.001,6.0261,6.0713,6.111,6.1492,6.1361,6.116,6.1341,6.1768,6.1943,6.2119,6.2476,6.2777,6.2802,6.2802,6.2802,6.2802,6.2802,6.2802,6.2802,6.2802,6.2802,6.2802,6.2802,6.2802,6.2802,6.2802,6.2802,6.2802,6.2802,6.2777,6.2777,6.2802,6.2802,6.2802,6.2802,6.2777,6.2701,6.2275,6.1743,6.1235,6.0663,6.0066,5.9633,5.9527,5.9527,5.9527,5.9527,5.9527,5.9527,5.9527,5.9502,5.9502,5.9477,5.905,5.8724,5.8679,5.8629,5.8635,5.8685,5.8678,5.8565,5.8432,5.8338,5.8188,5.7825,5.7544,5.7437,5.7437,5.7324,5.7474,5.7474,5.7512,5.76,5.7575,5.7556,5.7355,5.6756,5.6463,5.64,5.6076,5.5808,5.5979,5.6175,5.6219,5.6219,5.6157,5.5781,6.0468,6.0788,6.1215,6.1718,6.2225,6.2651,6.2576,6.2225,6.222,6.1893,6.1486,6.1235,6.0914,6.0487,6.001,5.9759,5.9709,5.9558,5.9508,5.9527,5.9527,5.9527,5.9527,5.9527,5.9527,5.9527,5.9552,5.996,6.0537,6.0964,6.1391,6.1969,6.1868,6.1692,6.1743,6.2019,6.2295,6.23,6.2626,6.2802,6.2802,6.2802,6.2802,6.2802,6.2802,6.2802,6.2802,6.2802,6.2802,6.2802,6.2802,6.2802,6.2802,6.2802,6.2802,6.2802,6.2802,6.2802,6.2802,6.2802,6.2802,6.2802,6.2802,6.2802,6.2727,6.225,6.1692,6.121,6.0437,5.9935,5.9633,5.9527,5.9527,5.9527,5.9527,5.9527,5.9527,5.9578,5.9552,5.9527,5.9527,5.9527,5.9326,5.9402,5.9427,5.9477,5.9502,5.9527,5.9307,5.9056,5.8981,5.8855,5.873,5.8478,5.8453,5.8353,5.8303,5.8202,5.8202,5.8278,5.8378,5.8278,5.8108,5.7857,5.7581,5.7343,5.7099,5.6647,5.6219,5.6219,5.6219,5.6219,5.6219,5.6244,5.6269,6.0919,6.1893,6.1918,6.2245,6.2727,6.2777,6.2777,6.2676,6.2727,6.24,6.1918,6.1466,6.1215,6.0989,6.0563,6.0242,6.0217,5.9734,5.9703,5.9653,5.9527,5.9703,5.9728,5.9703,5.9628,5.9633,5.9659,6.0186,6.0909,6.119,6.1567,6.1943,6.2225,6.2551,6.2576,6.2526,6.2626,6.2626,6.2777,6.2802,6.2802,6.2802,6.2802,6.2802,6.2802,6.2802,6.2802,6.2802,6.2802,6.2802,6.2802,6.2802,6.2802,6.2802,6.2802,6.2802,6.2802,6.2802,6.2802,6.2802,6.2802,6.2802,6.2802,6.2802,6.2777,6.1843,6.1316,6.1215,6.0563,5.996,5.9684,5.9552,5.9804,5.9854,5.9954,5.9954,5.9879,5.9659,5.9653,5.9552,5.9527,5.9527,5.9527,5.9527,5.9527,5.9527,5.9527,5.9527,5.9527,5.9332,5.9357,5.9332,5.9357,5.9301,5.9326,5.9201,5.8956,5.8905,5.8905,5.9056,5.9226,5.9006,5.8635,5.8459,5.8208,5.8001,5.7725,5.7198,5.6721,5.6369,5.6294,5.6595,5.6646,5.6671,5.6595,6.1316,6.2019,6.235,6.2601,6.2802,6.2802,6.2802,6.2802,6.2802,6.2727,6.2425,6.1969,6.1692,6.1542,6.114,6.0839,6.0839,6.0663,6.0532,6.0557,6.0537,6.0537,6.0437,6.0211,6.0161,6.0337,6.0261,6.0337,6.111,6.1466,6.1718,6.2119,6.2626,6.2727,6.2802,6.2802,6.2802,6.2802,6.2802,6.2802,6.2802,6.2802,6.2802,6.2802,6.2802,6.2802,6.2802,6.2802,6.2802,6.2802,6.2802,6.2802,6.2802,6.2802,6.2802,6.2802,6.2802,6.2802,6.2802,6.2802,6.2802,6.2802,6.2802,6.2802,6.2777,6.2094,6.1768,6.1441,6.0984,6.0412,6.0512,6.0557,6.0632,6.0582,6.0507,6.0457,6.0331,6.0111,6.001,6.0055,5.9753,5.9527,5.9527,5.9527,5.9527,5.9527,5.9527,5.9527,5.9527,5.9527,5.9527,5.9527,5.9527,5.9527,5.9527,5.9527,5.9527,5.9527,5.9527,5.9527,5.9527,5.9477,5.9156,5.9006,5.8811,5.8554,5.8177,5.77,5.7323,5.7072,5.7123,5.7323,5.7298,5.7148,5.7047,6.1637,6.225,6.2626,6.2802,6.2802,6.2802,6.2802,6.2802,6.2802,6.2802,6.2756,6.24,6.2245,6.2094,6.1692,6.1441,6.1366,6.1215,6.1165,6.1115,6.109,6.119,6.104,6.0889,6.0738,6.104,6.0914,6.0914,6.1492,6.1843,6.2245,6.2596,6.2847,6.2978,6.2802,6.2802,6.2802,6.2802,6.2802,6.2802,6.2802,6.2802,6.2802,6.2802,6.2802,6.2802,6.2802,6.2802,6.2802,6.2802,6.2802,6.2802,6.2802,6.2802,6.2802,6.2802,6.2802,6.2802,6.2802,6.2802,6.2802,6.2802,6.2802,6.2802,6.2676,6.2345,6.1943,6.1873,6.1466,6.119,6.1215,6.1085,6.1034,6.0909,6.0934,6.0909,6.0858,6.0713,6.0658,6.0582,6.0306,6.013,6.0155,6.0205,5.9854,5.9753,5.9508,5.9508,5.9527,5.9527,5.9527,5.9527,5.9527,5.9527,5.9527,5.9527,5.9527,5.9527,5.9527,5.9527,5.9527,5.9527,5.9502,5.9307,5.9131,5.8987,5.878,5.8478,5.8177,5.7851,5.7876,5.7826,5.77,5.7549,5.765,6.1793,6.2752,6.2777,6.2777,6.2802,6.2802,6.2802,6.2802,6.2802,6.2802,6.2802,6.2727,6.2727,6.2601,6.2169,6.1994,6.1893,6.1567,6.1386,6.1461,6.1517,6.1341,6.1291,6.1266,6.1291,6.119,6.1215,6.1441,6.1994,6.2094,6.2621,6.3174,6.335,6.3329,6.2877,6.2802,6.2802,6.2802,6.2802,6.2802,6.2802,6.2802,6.2802,6.2802,6.2802,6.2802,6.2802,6.2802,6.2802,6.2802,6.2802,6.2802,6.2802,6.2802,6.2802,6.2802,6.2802,6.2802,6.2802,6.2802,6.2802,6.2802,6.2802,6.2802,6.2701,6.2395,6.2119,6.2149,6.1718,6.1391,6.1266,6.1291,6.1366,6.1441,6.1492,6.1492,6.1492,6.1291,6.119,6.109,6.1115,6.1115,6.109,6.0964,6.0431,6.008,5.9659,5.9533,5.9653,5.9633,5.9684,5.9527,5.9527,5.9527,5.9527,5.9527,5.9527,5.9527,5.9527,5.9527,5.9527,5.9527,5.9483,5.9483,5.9408,5.9232,5.9332,5.9427,5.8956,5.8478,5.8227,5.8127,5.8001,5.8052,5.8227,6.1266,6.225,6.2275,6.2476,6.2777,6.2802,6.2802,6.2802,6.2802,6.2802,6.2802,6.2802,6.2802,6.2727,6.2651,6.2501,6.245,6.245,6.227,6.2245,6.2174,6.225,6.2149,6.1873,6.1893,6.2049,6.2044,6.1994,6.2526,6.2476,6.2626,6.3103,6.3626,6.3601,6.3324,6.3078,6.2802,6.2802,6.2802,6.2802,6.2827,6.2827,6.2802,6.2802,6.2802,6.2802,6.2802,6.2802,6.2802,6.2802,6.2802,6.2802,6.2802,6.2802,6.2802,6.2802,6.2802,6.2802,6.2802,6.2802,6.2802,6.2802,6.2802,6.2802,6.2752,6.2676,6.2551,6.2501,6.227,6.2144,6.23,6.2275,6.2325,6.235,6.2375,6.235,6.2295,6.1943,6.1718,6.1567,6.1542,6.1391,6.1361,6.1517,6.114,6.0984,6.0663,6.0236,6.0186,6.006,6.0035,5.9633,5.9527,5.9527,5.9552,5.9778,5.9829,5.9804,5.9678,5.9527,5.9527,5.9578,5.9527,5.9483,5.9502,5.9527,5.9527,5.9502,5.9382,5.9081,5.8805,5.8704,5.8755,5.8855,5.9056,6.0964,6.1969,6.1994,6.23,6.2752,6.2802,6.2802,6.2802,6.2802,6.2802,6.2802,6.2802,6.2802,6.2802,6.2802,6.2802,6.2802,6.2802,6.2802,6.2802,6.2802,6.2701,6.2601,6.2476,6.245,6.2651,6.2551,6.2501,6.2727,6.2777,6.3124,6.3525,6.3751,6.4124,6.4028,6.3827,6.3475,6.345,6.34,6.3178,6.3103,6.2978,6.2802,6.2802,6.2802,6.2802,6.2802,6.2802,6.2802,6.2802,6.2802,6.2802,6.2802,6.2802,6.2802,6.2802,6.2802,6.2802,6.2802,6.2802,6.2802,6.2802,6.2802,6.2802,6.2802,6.2752,6.2777,6.2777,6.2802,6.2802,6.2777,6.2802,6.2802,6.2777,6.2777,6.2752,6.2676,6.232,6.222,6.2094,6.2019,6.1793,6.1687,6.1818,6.1868,6.1793,6.1743,6.1266,6.0788,6.0638,6.0487,6.0186,6.003,6.018,6.0231,6.0306,6.0281,6.0111,5.996,5.9809,5.9684,5.9734,5.9633,5.9527,5.9508,5.9508,5.9527,5.9477,5.9408,5.9408,5.9332,5.9351,5.9502,5.9527,5.9527,6.0919,6.1893,6.1948,6.225,6.2727,6.2777,6.2802,6.2802,6.2802,6.2802,6.2802,6.2802,6.2802,6.2802,6.2802,6.2802,6.2802,6.2802,6.2802,6.2802,6.2802,6.2802,6.2802,6.2752,6.2727,6.2777,6.2727,6.2651,6.2802,6.2802,6.3324,6.4073,6.4249,6.4576,6.4705,6.4731,6.4379,6.4149,6.3898,6.3726,6.3651,6.3324,6.3178,6.3128,6.3073,6.3003,6.2952,6.2877,6.2827,6.2802,6.2802,6.2802,6.2802,6.2802,6.2802,6.2802,6.2802,6.2802,6.2802,6.2802,6.2802,6.2802,6.2802,6.2802,6.2802,6.2802,6.2802,6.2802,6.2802,6.2802,6.2802,6.2802,6.2802,6.2802,6.2802,6.2802,6.2802,6.2701,6.2701,6.2651,6.2626,6.2526,6.245,6.2526,6.2325,6.235,6.227,6.2044,6.1592,6.1266,6.1115,6.0914,6.0839,6.0989,6.0989,6.0833,6.0783,6.0588,6.0487,6.0337,6.0141,6.0035,5.996,5.9859,5.9608,5.9508,5.9527,5.9527,5.9502,5.9527,5.9508,5.9527,5.9527,5.9527,5.9527,6.0141,6.0794,6.124,6.1743,6.227,6.2651,6.2802,6.2802,6.2802,6.2802,6.2802,6.2802,6.2802,6.2802,6.2802,6.2802,6.2802,6.2802,6.2802,6.2802,6.2802,6.2802,6.2802,6.2802,6.2802,6.2802,6.2802,6.2802,6.2802,6.2802,6.3149,6.3822,6.4325,6.4777,6.5183,6.5484,6.5103,6.4701,6.4421,6.43,6.4249,6.3998,6.3877,6.3802,6.355,6.3475,6.3379,6.3078,6.2952,6.2852,6.2827,6.2827,6.2802,6.2802,6.2802,6.2802,6.2802,6.2802,6.2802,6.2827,6.2877,6.2952,6.2902,6.2802,6.2802,6.2852,6.2852,6.2802,6.2827,6.2827,6.2927,6.2952,6.3028,6.3078,6.3103,6.3124,6.3103,6.3103,6.3103,6.2952,6.2927,6.2802,6.2802,6.2777,6.2601,6.2727,6.2727,6.2526,6.23,6.1969,6.1743,6.1542,6.1466,6.1542,6.1341,6.116,6.114,6.109,6.1014,6.0939,6.0864,6.0688,6.0487,6.0236,6.001,5.9734,5.9527,5.9603,5.9879,5.9583,5.9558,5.9533,5.9527,5.9552,5.9552,5.979,6.0317,6.0688,6.1291,6.2019,6.2576,6.2802,6.2802,6.2802,6.2802,6.2802,6.2802,6.2802,6.2802,6.2802,6.2802,6.2802,6.2802,6.2802,6.2802,6.2802,6.2802,6.2802,6.2802,6.2802,6.2802,6.2802,6.2802,6.2802,6.2852,6.3103,6.3722,6.4224,6.4752,6.5258,6.5685,6.5735,6.5329,6.4978,6.4852,6.4752,6.4626,6.45,6.4475,6.4149,6.4053,6.3977,6.355,6.34,6.3178,6.3153,6.3003,6.2927,6.2802,6.3028,6.3078,6.3224,6.3375,6.3525,6.3576,6.35,6.345,6.3425,6.3525,6.3299,6.3199,6.2978,6.2802,6.2827,6.2857,6.3028,6.3178,6.335,6.3475,6.35,6.35,6.3525,6.3505,6.3354,6.3178,6.3028,6.2852,6.2802,6.2802,6.2802,6.2802,6.2802,6.2727,6.2626,6.245,6.2295,6.2169,6.2044,6.1994,6.1768,6.1667,6.1793,6.1793,6.1617,6.1542,6.1517,6.126,6.0909,6.0663,6.0462,6.0261,6.013,6.0231,6.0337,6.0085,6.0035,6.0211,6.0085,5.9709,5.9659,5.9784,6.0217,6.0267,6.097,6.1974,6.2501,6.2752,6.2802,6.2802,6.2802,6.2802,6.2802,6.2802,6.2802,6.2802,6.2802,6.2802,6.2802,6.2802,6.2802,6.2802,6.2802,6.2802,6.2802,6.2802,6.2802,6.2802,6.2802,6.2802,6.2852,6.3053,6.3626,6.4099,6.4576,6.5082,6.5634,6.5785,6.5835,6.5534,6.5354,6.5254,6.4953,6.4622,6.4676,6.4626,6.4551,6.4526,6.4425,6.4274,6.3948,6.3697,6.3475,6.3274,6.3149,6.34,6.3576,6.3726,6.3902,6.4124,6.4199,6.4274,6.4325,6.4475,6.43,6.3927,6.3626,6.34,6.335,6.34,6.35,6.3651,6.3726,6.3847,6.3973,6.4002,6.4048,6.4028,6.3977,6.3827,6.3601,6.3299,6.3103,6.2802,6.2802,6.2802,6.2802,6.2802,6.2802,6.2777,6.2727,6.2676,6.2576,6.2476,6.2375,6.2425,6.2375,6.2551,6.2501,6.2225,6.2144,6.2069,6.1718,6.1285,6.1135,6.0964,6.0989,6.0939,6.0889,6.0833,6.0839,6.0839,6.104,6.0788,6.0286,6.0111,5.9583,5.9734,6.0136,6.0964,6.1943,6.2144,6.2425,6.2802,6.2802,6.2802,6.2802,6.2802,6.2802,6.2802,6.2802,6.2802,6.2802,6.2802,6.2802,6.2802,6.2802,6.2802,6.2802,6.2802,6.2802,6.2802,6.2802,6.2802,6.2802,6.2827,6.2832,6.3078,6.3626,6.4249,6.4777,6.5283,6.5685,6.604,6.5961,6.581,6.576,6.5835,6.571,6.5559,6.543,6.5132,6.5003,6.4726,6.4526,6.43,6.43,6.4199,6.4124,6.4073,6.4149,6.4274,6.4325,6.445,6.4576,6.4676,6.4701,6.4601,6.4576,6.4526,6.4375,6.4199,6.4099,6.4073,6.4048,6.4124,6.427,6.43,6.4375,6.45,6.4576,6.4576,6.4576,6.4425,6.43,6.3998,6.3651,6.335,6.3028,6.2877,6.2802,6.2802,6.2802,6.2802,6.2802,6.2777,6.2777,6.2701,6.2727,6.2727,6.2802,6.2802,6.2802,6.2802,6.2576,6.2551,6.2576,6.222,6.1793,6.1642,6.1542,6.1542,6.1466,6.121,6.121,6.1391,6.1441,6.1567,6.1441,6.1014,6.0914,5.9527,5.9558,6.0085,6.0643,6.1266,6.1748,6.2174,6.245,6.2701,6.2802,6.2802,6.2802,6.2802,6.2802,6.2802,6.2802,6.2802,6.2802,6.2802,6.2802,6.2802,6.2802,6.2802,6.2822,6.2802,6.2802,6.2802,6.2802,6.2802,6.2802,6.2827,6.2902,6.34,6.3948,6.4475,6.5028,6.5555,6.6065,6.6108,6.6133,6.6133,6.6112,6.6112,6.5961,6.586,6.5634,6.5584,6.5308,6.5128,6.4827,6.4626,6.4475,6.44,6.44,6.4597,6.4777,6.4877,6.4953,6.5103,6.5153,6.5107,6.5107,6.5157,6.5308,6.5333,6.5157,6.4726,6.4651,6.435,6.4375,6.4726,6.4877,6.5128,6.5283,6.5358,6.5409,6.5258,6.5078,6.4927,6.4726,6.4354,6.4023,6.3776,6.3776,6.3626,6.3299,6.3224,6.3003,6.2952,6.2927,6.2902,6.2827,6.2852,6.2827,6.2802,6.2802,6.2802,6.2802,6.2802,6.2752,6.2676,6.2526,6.2345,6.2169,6.2094,6.2099,6.1969,6.1768,6.1868,6.2124,6.2074,6.2024,6.1868,6.1768,6.1768,5.9869,5.9893,6.0257,6.0496,6.0658,6.1441,6.1918,6.2049,6.2416,6.2576,6.2526,6.2601,6.2706,6.2802,6.2802,6.2802,6.2802,6.2802,6.2802,6.2802,6.2802,6.2904,6.2965,6.2924,6.2965,6.2965,6.2965,6.2884,6.2802,6.2802,6.2852,6.2927,6.3324,6.3868,6.4463,6.5033,6.5574,6.6067,6.6264,6.6237,6.6197,6.6133,6.6112,6.6112,6.6112,6.6112,6.609,6.599,6.5785,6.5509,6.5082,6.4982,6.4927,6.4978,6.5103,6.5283,6.5409,6.5609,6.5835,6.5886,6.5936,6.6011,6.6112,6.6065,6.604,6.5835,6.5405,6.5153,6.4852,6.4852,6.5229,6.5434,6.571,6.5886,6.5939,6.599,6.581,6.5609,6.5459,6.5283,6.4978,6.4601,6.4475,6.4475,6.4274,6.3902,6.3676,6.3404,6.3254,6.3203,6.3178,6.3028,6.2927,6.2902,6.2827,6.2802,6.2802,6.2802,6.2802,6.2802,6.2777,6.2651,6.2626,6.2676,6.2626,6.2526,6.2551,6.245,6.2626,6.2651,6.2551,6.24,6.2425,6.2375,6.2551,6.1431,6.1438,6.1239,6.137,6.1756,6.1411,6.1408,6.1773,6.1621,6.1492,6.1833,6.2084,6.235,6.2822,6.2802,6.2843,6.2904,6.2884,6.2822,6.2802,6.3047,6.3169,6.3372,6.3615,6.3433,6.3433,6.3453,6.3169,6.323,6.3026,6.2843,6.2934,6.2934,6.3551,6.441,6.503,6.5781,6.6348,6.6768,6.6839,6.6669,6.6498,6.6133,6.6112,6.6112,6.6112,6.609,6.609,6.604,6.5939,6.5789,6.5685,6.5634,6.5584,6.571,6.571,6.5835,6.5911,6.6086,6.6112,6.6112,6.6112,6.6112,6.6112,6.6065,6.6065,6.581,6.581,6.5609,6.5609,6.586,6.586,6.6036,6.6036,6.6065,6.6065,6.5986,6.5886,6.5785,6.5559,6.5304,6.4978,6.4697,6.4676,6.4626,6.44,6.435,6.4124,6.3902,6.3726,6.3525,6.3375,6.3178,6.2902,6.2802,6.2802,6.2802,6.2802,6.2802,6.2802,6.2802,6.2802,6.2802,6.2802,6.2802,6.2727,6.2802,6.2802,6.2802,6.2752,6.2777,6.2752,6.2802,6.2802,6.2802]}]]